[[{"header":{"parameterUnit":"m.s-1","parameterCategory":1,"la1":30.6,"la2":28.766,"lo1":-90.7593,"lo2":-88.6598,"dy":0.0162,"dx":0.0183,"nx":116,"ny":114,"refTime":"2024-03-21T06:00:00:Z","depth":0,"parameterNumber":2,"parameterNumberName":"U-component_of_WINDS"},"data":[0.0,0.0,0.0,0.0,0.0,0.0,0.0,0.0,0.0,0.0,0.0,0.0,0.0,0.0,0.0,0.0,0.0,0.0,0.0,0.0,0.0,0.0,0.0,0.0,0.0,0.0,0.0,0.0,0.0,0.0,0.0,0.0,0.0,0.0,0.0,0.0,0.0,0.0,0.0,0.0,0.0,0.0,0.0,0.0,0.0,0.0,0.0,0.0,0.0,0.0,0.0,0.0,0.0,0.0,0.0,0.0,0.0,0.0,0.0,0.0,0.0,0.0,0.0,0.0,0.0,0.0,0.0,0.0,0.0,0.0,0.0,0.0,0.0,0.0,0.0,0.0,0.0,0.0,0.0,0.0,0.0,0.0,0.0,0.0,0.0,0.0,0.0,0.0,0.0,0.0,0.0,0.0,0.0,0.0,0.0,0.0,0.0,0.0,0.0,0.0,0.0,0.0,0.0,0.0,0.0,0.0,0.0,0.0,0.0,0.0,0.0,0.0,0.0,0.0,0.0,0.0,0.0,0.0,0.0,0.0,0.0,0.0,0.0,0.0,0.0,0.0,0.0,0.0,0.0,0.0,0.0,0.0,0.0,0.0,0.0,0.0,0.0,0.0,0.0,0.0,0.0,0.0,0.0,0.0,0.0,0.0,0.0,0.0,0.0,0.0,0.0,0.0,0.0,0.0,0.0,0.0,0.0,0.0,0.0,0.0,0.0,0.0,0.0,0.0,0.0,0.0,0.0,0.0,0.0,0.0,0.0,0.0,0.0,0.0,0.0,0.0,0.0,0.0,0.0,0.0,0.0,0.0,0.0,0.0,0.0,0.0,0.0,0.0,0.0,0.0,0.0,0.0,0.0,0.0,0.0,0.0,0.0,0.0,0.0,0.0,0.0,0.0,0.0,0.0,0.0,0.0,0.0,0.0,0.0,0.0,0.0,0.0,0.0,0.0,0.0,0.0,0.0,0.0,0.0,0.0,0.0,0.0,0.0,0.0,0.0,0.0,0.0,0.0,0.0,0.0,0.0,0.0,0.0,0.0,0.0,0.0,0.0,0.0,0.0,0.0,0.0,0.0,0.0,0.0,0.0,0.0,0.0,0.0,0.0,0.0,0.0,0.0,0.0,0.0,0.0,0.0,0.0,0.0,0.0,0.0,0.0,0.0,0.0,0.0,0.0,0.0,0.0,0.0,0.0,0.0,0.0,0.0,0.0,0.0,0.0,0.0,0.0,0.0,0.0,0.0,0.0,0.0,0.0,0.0,0.0,0.0,0.0,0.0,0.0,0.0,0.0,0.0,0.0,0.0,0.0,0.0,0.0,0.0,0.0,0.0,0.0,0.0,0.0,0.0,0.0,0.0,0.0,0.0,0.0,0.0,0.0,0.0,0.0,0.0,0.0,0.0,0.0,0.0,0.0,0.0,0.0,0.0,0.0,0.0,0.0,0.0,0.0,0.0,0.0,0.0,0.0,0.0,0.0,0.0,0.0,0.0,0.0,0.0,0.0,0.0,0.0,0.0,0.0,0.0,0.0,0.0,0.0,0.0,0.0,0.0,0.0,0.0,0.0,0.0,0.0,0.0,0.0,0.0,0.0,0.0,0.0,0.0,0.0,0.0,0.0,0.0,0.0,0.0,0.0,0.0,0.0,0.0,0.0,0.0,0.0,0.0,0.0,0.0,0.0,0.0,0.0,0.0,0.0,0.0,0.0,0.0,0.0,0.0,0.0,0.0,0.0,0.0,0.0,0.0,0.0,0.0,0.0,0.0,0.0,0.0,0.0,0.0,0.0,0.0,0.0,0.0,0.0,0.0,0.0,0.0,0.0,0.0,0.0,0.0,0.0,0.0,0.0,0.0,0.0,0.0,0.0,0.0,0.0,0.0,0.0,0.0,0.0,0.0,0.0,0.0,0.0,0.0,0.0,0.0,0.0,0.0,0.0,0.0,0.0,0.0,0.0,0.0,0.0,0.0,0.0,0.0,0.0,0.0,0.0,0.0,0.0,0.0,0.0,0.0,0.0,0.0,0.0,0.0,0.0,0.0,0.0,0.0,0.0,0.0,0.0,0.0,0.0,0.0,0.0,0.0,0.0,0.0,0.0,0.0,0.0,0.0,0.0,0.0,0.0,0.0,0.0,0.0,0.0,0.0,0.0,0.0,0.0,0.0,0.0,0.0,0.0,0.0,0.0,0.0,0.0,0.0,0.0,0.0,0.0,0.0,0.0,0.0,0.0,0.0,0.0,0.0,0.0,0.0,0.0,0.0,0.0,0.0,0.0,0.0,0.0,0.0,0.0,0.0,0.0,0.0,0.0,0.0,0.0,0.0,0.0,0.0,0.0,0.0,0.0,0.0,0.0,0.0,0.0,0.0,0.0,0.0,0.0,0.0,0.0,0.0,0.0,0.0,0.0,0.0,0.0,0.0,0.0,0.0,0.0,0.0,0.0,0.0,0.0,0.0,0.0,0.0,0.0,0.0,0.0,0.0,0.0,0.0,0.0,0.0,0.0,0.0,0.0,0.0,0.0,0.0,0.0,0.0,0.0,0.0,0.0,0.0,0.0,0.0,0.0,0.0,0.0,0.0,0.0,0.0,0.0,0.0,0.0,0.0,0.0,0.0,0.0,0.0,0.0,0.0,0.0,0.0,0.0,0.0,0.0,0.0,0.0,0.0,0.0,0.0,0.0,0.0,0.0,0.0,0.0,0.0,0.0,0.0,0.0,0.0,0.0,0.0,0.0,0.0,0.0,0.0,0.0,0.0,0.0,0.0,0.0,0.0,0.0,0.0,0.0,0.0,0.0,0.0,0.0,0.0,0.0,0.0,0.0,0.0,0.0,0.0,0.0,0.0,0.0,0.0,0.0,0.0,0.0,0.0,0.0,0.0,0.0,0.0,0.0,0.0,0.0,0.0,0.0,0.0,0.0,0.0,0.0,0.0,0.0,0.0,0.0,0.0,0.0,0.0,0.0,0.0,0.0,0.0,0.0,0.0,0.0,0.0,0.0,0.0,0.0,0.0,0.0,0.0,0.0,0.0,0.0,0.0,0.0,0.0,0.0,0.0,0.0,0.0,0.0,0.0,0.0,0.0,0.0,0.0,0.0,0.0,0.0,0.0,0.0,0.0,0.0,0.0,0.0,0.0,0.0,0.0,0.0,0.0,0.0,0.0,0.0,0.0,0.0,0.0,0.0,0.0,0.0,0.0,0.0,0.0,0.0,0.0,0.0,0.0,0.0,0.0,0.0,0.0,0.0,0.0,0.0,0.0,0.0,0.0,0.0,0.0,0.0,0.0,0.0,0.0,0.0,0.0,0.0,0.0,0.0,0.0,0.0,0.0,0.0,0.0,0.0,0.0,0.0,0.0,0.0,0.0,0.0,0.0,0.0,0.0,0.0,0.0,0.0,0.0,0.0,0.0,0.0,0.0,0.0,0.0,0.0,0.0,0.0,0.0,0.0,0.0,0.0,0.0,0.0,0.0,0.0,0.0,0.0,0.0,0.0,0.0,0.0,0.0,0.0,0.0,0.0,0.0,0.0,0.0,0.0,0.0,0.0,0.0,0.0,0.0,0.0,0.0,0.0,0.0,0.0,0.0,0.0,0.0,0.0,0.0,0.0,0.0,0.0,0.0,0.0,0.0,0.0,0.0,0.0,0.0,0.0,0.0,0.0,0.0,0.0,0.0,0.0,0.0,0.0,0.0,0.0,0.0,0.0,0.0,0.0,0.0,0.0,0.0,0.0,0.0,0.0,0.0,0.0,0.0,0.0,0.0,0.0,0.0,0.0,0.0,0.0,0.0,0.0,0.0,0.0,0.0,0.0,0.0,0.0,0.0,0.0,0.0,0.0,0.0,0.0,0.0,0.0,0.0,0.0,0.0,0.0,0.0,0.0,0.0,0.0,0.0,0.0,0.0,0.0,0.0,0.0,0.0,0.0,0.0,0.0,0.0,0.0,0.0,0.0,0.0,0.0,0.0,0.0,0.0,0.0,0.0,0.0,0.0,0.0,0.0,0.0,0.0,0.0,0.0,0.0,0.0,0.0,0.0,0.0,0.0,0.0,0.0,0.0,0.0,0.0,0.0,0.0,0.0,0.0,0.0,0.0,0.0,0.0,0.0,0.0,0.0,0.0,0.0,0.0,0.0,0.0,0.0,0.0,0.0,0.0,0.0,0.0,0.0,0.0,0.0,0.0,0.0,0.0,0.0,0.0,0.0,0.0,0.0,0.0,0.0,0.0,0.0,0.0,0.0,0.0,0.0,0.0,0.0,0.0,0.0,0.0,0.0,0.0,0.0,0.0,0.0,0.0,0.0,0.0,0.0,0.0,0.0,0.0,0.0,0.0,0.0,0.0,0.0,0.0,0.0,0.0,0.0,0.0,0.0,0.0,0.0,0.0,0.0,0.0,0.0,0.0,0.0,0.0,0.0,0.0,0.0,0.0,0.0,0.0,0.0,0.0,0.0,0.0,0.0,0.0,0.0,0.0,0.0,0.0,0.0,0.0,0.0,0.0,0.0,0.0,0.0,0.0,0.0,0.0,0.0,0.0,0.0,0.0,0.0,0.0,0.0,0.0,0.0,0.0,0.0,0.0,0.0,0.0,0.0,0.0,0.0,0.0,0.0,0.0,0.0,0.0,0.0,0.0,0.0,0.0,0.0,0.0,0.0,0.0,0.0,0.0,0.0,0.0,0.0,0.0,0.0,0.0,0.0,0.0,0.0,0.0,0.0,0.0,0.0,0.0,0.0,0.0,0.0,0.0,0.0,0.0,0.0,0.0,0.0,0.0,0.0,0.0,0.0,0.0,0.0,0.0,0.0,0.0,0.0,0.0,0.0,0.0,0.0,0.0,0.0,0.0,0.0,0.0,0.0,0.0,0.0,0.0,0.0,0.0,0.0,0.0,0.0,0.0,0.0,0.0,0.0,0.0,0.0,0.0,0.0,0.0,0.0,0.0,0.0,0.0,0.0,0.0,0.0,0.0,0.0,0.0,0.0,0.0,0.0,0.0,0.0,0.0,0.0,0.0,0.0,0.0,0.0,0.0,0.0,0.0,0.0,0.0,0.0,0.0,0.0,0.0,0.0,0.0,0.0,0.0,0.0,0.0,0.0,0.0,0.0,0.0,0.0,0.0,0.0,0.0,0.0,0.0,0.0,0.0,0.0,0.0,0.0,0.0,0.0,0.0,0.0,0.0,0.0,0.0,0.0,0.0,0.0,0.0,0.0,0.0,0.0,0.0,0.0,0.0,0.0,0.0,0.0,0.0,0.0,0.0,0.0,0.0,0.0,0.0,0.0,0.0,0.0,0.0,0.0,0.0,0.0,0.0,0.0,0.0,0.0,0.0,0.0,0.0,0.0,0.0,0.0,0.0,0.0,0.0,0.0,0.0,0.0,0.0,0.0,0.0,0.0,0.0,0.0,0.0,0.0,0.0,0.0,0.0,0.0,0.0,0.0,0.0,0.0,0.0,0.0,0.0,0.0,0.0,0.0,0.0,0.0,0.0,0.0,0.0,0.0,0.0,0.0,0.0,0.0,0.0,0.0,0.0,0.0,0.0,0.0,0.0,0.0,0.0,0.0,0.0,0.0,0.0,0.0,0.0,0.0,0.0,0.0,0.0,0.0,0.0,0.0,0.0,0.0,0.0,0.0,0.0,0.0,0.0,0.0,0.0,0.0,0.0,0.0,0.0,0.0,0.0,0.0,0.0,0.0,0.0,0.0,0.0,0.0,0.0,0.0,0.0,0.0,0.0,0.0,0.0,0.0,0.0,0.0,0.0,0.0,0.0,0.0,0.0,0.0,0.0,0.0,0.0,0.0,0.0,0.0,0.0,0.0,0.0,0.0,0.0,0.0,0.0,0.0,0.0,0.0,0.0,0.0,0.0,0.0,0.0,0.0,0.0,0.0,0.0,0.0,0.0,0.0,0.0,0.0,0.0,0.0,0.0,0.0,0.0,0.0,0.0,0.0,0.0,0.0,0.0,0.0,0.0,0.0,0.0,0.0,0.0,0.0,0.0,0.0,0.0,0.0,0.0,0.0,0.0,0.0,0.0,0.0,0.0,0.0,0.0,0.0,0.0,0.0,0.0,0.0,0.0,0.0,0.0,0.0,0.0,0.0,-7.6538,-7.6538,0.0,0.0,0.0,0.0,0.0,0.0,0.0,0.0,0.0,0.0,0.0,0.0,0.0,0.0,0.0,0.0,0.0,0.0,0.0,0.0,0.0,0.0,0.0,0.0,0.0,0.0,-9.0581,-9.0581,-9.0581,-9.0581,0.0,0.0,0.0,0.0,0.0,0.0,-8.413,-8.3108,-8.294,-8.2883,-8.2883,-8.2883,-8.2883,-8.2883,0.0,0.0,0.0,0.0,0.0,0.0,0.0,0.0,0.0,0.0,0.0,0.0,0.0,0.0,0.0,0.0,0.0,0.0,0.0,0.0,0.0,0.0,0.0,0.0,0.0,0.0,0.0,0.0,0.0,0.0,0.0,0.0,0.0,0.0,0.0,0.0,0.0,0.0,0.0,0.0,0.0,0.0,0.0,0.0,0.0,0.0,0.0,0.0,0.0,0.0,0.0,0.0,0.0,0.0,0.0,0.0,0.0,0.0,0.0,0.0,0.0,0.0,0.0,0.0,0.0,0.0,0.0,0.0,0.0,0.0,-7.6538,-7.6538,0.0,0.0,0.0,0.0,0.0,0.0,0.0,0.0,0.0,0.0,0.0,0.0,0.0,0.0,0.0,0.0,0.0,0.0,0.0,0.0,0.0,0.0,0.0,-9.0581,-9.0581,-9.0581,-9.0581,-9.0581,-9.0581,-9.0581,-9.0581,-9.0578,-8.8976,-8.769,-8.6755,-8.5068,-8.3817,-8.2883,-8.2883,-8.2883,-8.2883,-8.2883,-8.2883,-8.2883,-8.2883,0.0,0.0,0.0,0.0,0.0,0.0,0.0,0.0,0.0,0.0,0.0,0.0,0.0,0.0,0.0,0.0,0.0,0.0,0.0,0.0,0.0,0.0,0.0,0.0,0.0,0.0,0.0,0.0,0.0,0.0,0.0,0.0,0.0,0.0,0.0,0.0,0.0,0.0,0.0,0.0,0.0,0.0,0.0,0.0,0.0,0.0,0.0,0.0,0.0,0.0,0.0,0.0,0.0,0.0,0.0,0.0,0.0,0.0,0.0,0.0,0.0,0.0,0.0,-7.6538,-7.6538,-7.6538,-7.6579,-7.6637,-7.6637,-7.6753,-7.6724,-7.6666,-7.7188,0.0,0.0,0.0,0.0,0.0,0.0,0.0,0.0,0.0,0.0,0.0,0.0,0.0,0.0,0.0,0.0,0.0,0.0,0.0,-9.0581,-9.0581,-9.0581,-9.0581,-9.0581,-9.0581,-9.0581,-9.0581,-9.0581,-9.0537,-9.0335,-8.8194,-8.6852,-8.6463,-8.4258,-8.3052,-8.2883,-8.2883,-8.2883,-8.2883,-8.2883,-8.2883,-8.2883,-8.2883,-8.2883,-8.2883,0.0,0.0,0.0,0.0,0.0,0.0,0.0,0.0,0.0,0.0,0.0,0.0,0.0,0.0,0.0,0.0,0.0,0.0,0.0,0.0,0.0,0.0,0.0,0.0,0.0,0.0,0.0,0.0,0.0,0.0,0.0,0.0,0.0,0.0,0.0,0.0,0.0,0.0,0.0,0.0,0.0,-7.6375,-7.6538,0.0,0.0,0.0,0.0,0.0,0.0,0.0,0.0,0.0,0.0,0.0,0.0,0.0,-7.6538,-7.6538,-7.6538,-7.6538,-7.6538,-7.6538,-7.6538,-7.6567,-7.7014,-7.7275,-7.7304,-7.7885,0.0,-7.7275,-7.7362,0.0,0.0,0.0,0.0,0.0,0.0,0.0,0.0,0.0,0.0,0.0,0.0,0.0,0.0,0.0,0.0,0.0,0.0,0.0,0.0,0.0,-9.0581,-9.0581,-9.0581,-9.0497,-9.0457,-9.0457,-9.0457,-9.0416,-9.0295,-8.8058,-8.6755,-8.6658,-8.4184,-8.2883,-8.2883,-8.2883,-8.2883,-8.2883,-8.2883,-8.2883,-8.2883,-8.2883,-8.2883,-8.2883,-8.2883,0.0,0.0,0.0,0.0,0.0,0.0,0.0,0.0,0.0,0.0,0.0,0.0,0.0,0.0,0.0,0.0,0.0,0.0,0.0,0.0,0.0,0.0,0.0,0.0,0.0,0.0,0.0,0.0,0.0,0.0,0.0,0.0,0.0,0.0,0.0,0.0,0.0,0.0,0.0,-7.6538,-7.6538,-7.6538,-7.6538,-7.6538,0.0,0.0,0.0,0.0,0.0,0.0,0.0,0.0,0.0,-7.6538,-7.6538,-7.6538,-7.6538,-7.6538,-7.6538,-7.6538,-7.6811,-7.6985,-7.7014,-7.7682,-7.7972,-7.7972,-7.8291,-7.8436,-7.8465,-7.8465,-7.864,-7.893,0.0,0.0,0.0,0.0,-7.9481,-7.9481,0.0,0.0,0.0,0.0,0.0,0.0,0.0,0.0,0.0,0.0,0.0,0.0,-9.0581,-9.0581,-9.0578,-9.0537,-9.0376,-9.0254,-9.0213,-9.0254,-9.0095,-8.9726,-8.7875,-8.661,-8.6217,-8.4022,-8.2883,-8.2883,-8.2883,-8.2883,-8.2883,-8.2883,-8.2883,-8.2883,-8.2883,-8.2883,-8.2883,-8.2883,-8.2883,-8.2883,0.0,0.0,0.0,0.0,0.0,0.0,0.0,0.0,0.0,0.0,0.0,0.0,0.0,0.0,0.0,0.0,0.0,0.0,0.0,0.0,0.0,0.0,0.0,0.0,0.0,0.0,0.0,0.0,0.0,0.0,0.0,0.0,0.0,0.0,0.0,0.0,0.0,-7.6538,-7.6538,-7.6538,-7.6538,-7.6538,0.0,0.0,0.0,0.0,0.0,0.0,-7.6538,-7.6538,-7.6538,-7.6538,-7.6538,-7.6538,-7.6538,-7.6538,-7.655,-7.6724,-7.7188,-7.7507,-7.7682,-7.8349,-7.864,-7.864,-7.8814,-7.9133,-7.954,-7.9365,-7.9394,-7.9598,-8.0091,-8.0294,-8.0294,-8.0294,-8.0294,-8.0294,0.0,0.0,0.0,0.0,0.0,0.0,0.0,0.0,0.0,0.0,0.0,-9.0581,-9.0581,-9.0581,-9.0537,-9.0335,-9.0295,-9.0213,-9.0042,-9.0172,-8.9641,-8.8184,-8.7281,-8.6118,-8.4664,-8.3487,-8.2883,-8.2883,-8.2883,-8.2883,-8.2883,-8.2883,-8.2883,-8.2883,-8.2883,-8.2883,-8.2883,-8.2883,-8.2883,-8.2883,-8.2883,0.0,0.0,0.0,0.0,0.0,0.0,0.0,0.0,0.0,0.0,0.0,0.0,0.0,0.0,0.0,0.0,0.0,0.0,0.0,0.0,0.0,0.0,0.0,0.0,0.0,0.0,0.0,0.0,0.0,0.0,0.0,0.0,0.0,0.0,0.0,0.0,0.0,0.0,-7.6538,-7.6538,0.0,0.0,0.0,0.0,-7.6538,-7.6538,-7.6538,-7.6538,-7.6538,-7.6538,-7.6538,-7.6538,-7.6538,-7.6538,-7.6538,-7.6753,-7.7362,-7.7391,-7.774,-7.8378,-7.8988,-7.9249,-7.9278,-7.9917,-8.0207,-8.0207,-7.9569,-7.9685,-8.0265,-8.0294,-8.0294,-8.0294,-8.0294,-8.0294,-8.0294,0.0,0.0,0.0,0.0,0.0,0.0,0.0,0.0,-9.0581,-9.0581,-9.0581,-9.0581,-9.0581,-9.0497,-9.0457,-9.0497,-9.0131,-8.9881,-9.0001,-8.9264,-8.8579,-8.8002,-8.6414,-8.4878,-8.3487,-8.3108,-8.2883,-8.2883,-8.2883,-8.2883,-8.2883,-8.2883,-8.2883,-8.2883,-8.2883,-8.2883,-8.2883,-8.2883,-8.2883,-8.2883,-8.2883,-8.2883,0.0,0.0,0.0,0.0,0.0,0.0,0.0,0.0,0.0,0.0,0.0,0.0,0.0,0.0,0.0,0.0,0.0,0.0,0.0,0.0,0.0,0.0,0.0,0.0,0.0,0.0,0.0,0.0,0.0,0.0,0.0,0.0,0.0,0.0,0.0,0.0,0.0,-7.6538,-7.6538,0.0,-7.6538,-7.6538,-7.6538,-7.6538,-7.6538,-7.6538,-7.6538,-7.6538,-7.6538,-7.6538,-7.6538,-7.6538,-7.6538,-7.6869,-7.7188,-7.742,-7.8233,-7.8756,-7.8988,-7.9656,-7.9946,-7.9946,-8.0207,-8.0294,-8.0265,-8.0033,-8.0091,-8.0294,-8.0294,-8.0294,-8.0294,-8.0294,-8.0294,-8.0294,0.0,0.0,0.0,0.0,0.0,0.0,0.0,-9.0581,-9.0581,-9.0581,-9.0581,-9.0581,-9.0581,-9.0497,-9.0416,-9.0497,-9.0048,-8.9755,-8.9839,-8.8704,-8.7818,-8.7398,-8.5293,-8.375,-8.2883,-8.2883,-8.2883,-8.2883,-8.2883,-8.2883,-8.2883,-8.2883,-8.2883,-8.2883,-8.2883,-8.2883,-8.2883,-8.2883,-8.2883,-8.2883,-8.2883,-8.2883,-8.3049,0.0,0.0,0.0,0.0,0.0,0.0,0.0,0.0,0.0,0.0,0.0,0.0,0.0,0.0,0.0,0.0,0.0,0.0,0.0,0.0,0.0,0.0,0.0,0.0,0.0,0.0,0.0,0.0,0.0,0.0,0.0,0.0,0.0,0.0,-7.6538,-7.6538,-7.6538,-7.6538,-7.6538,-7.6538,-7.6538,-7.6538,-7.6538,-7.6538,-7.6538,-7.6538,-7.6538,-7.6538,-7.6538,-7.6538,-7.6579,-7.6782,-7.7188,-7.7624,-7.8059,-7.8901,-7.9423,-7.9656,-8.0091,-8.0294,-8.0294,-8.0294,-8.0294,-8.0294,-8.0294,-8.0294,-8.0294,-8.0294,-8.0294,-8.0294,-8.0294,-8.0294,-8.0294,0.0,0.0,0.0,0.0,0.0,0.0,-9.0581,-9.0581,-9.0581,-9.0581,-9.0581,-9.0581,-9.0581,-9.0581,-9.0537,-9.0335,-9.0125,-8.9875,-8.9628,-8.857,-8.7398,-8.6122,-8.4001,-8.2883,-8.2883,-8.2883,-8.2883,-8.2883,-8.2883,-8.2883,-8.2883,-8.2883,-8.2883,-8.2883,-8.2883,-8.2883,-8.2883,-8.2883,-8.2883,-8.2883,-8.2883,-8.2916,-8.3082,0.0,0.0,0.0,0.0,0.0,0.0,0.0,0.0,0.0,0.0,0.0,0.0,0.0,0.0,0.0,0.0,0.0,0.0,0.0,0.0,0.0,0.0,0.0,0.0,0.0,0.0,0.0,0.0,0.0,0.0,0.0,0.0,0.0,-7.6538,-7.6538,-7.6538,-7.6538,-7.6538,-7.6538,-7.6538,-7.6538,-7.6538,-7.6538,-7.6538,-7.6538,-7.6538,-7.6538,-7.6538,-7.6538,-7.6567,-7.6782,-7.7391,-7.7449,-7.8088,-7.9307,-7.9307,-7.9656,-8.0294,-8.0294,-8.0294,-8.0294,-8.0294,-8.0294,-8.0294,-8.0294,-8.0294,-8.0294,-8.0294,-8.0294,-8.0294,-8.0294,-8.0294,-8.0294,0.0,0.0,0.0,0.0,0.0,0.0,-9.0581,-9.0581,-9.0581,-9.0581,-9.0581,-9.0581,-9.0581,-9.0497,-9.0376,-9.0295,-8.9923,-8.9671,-8.9628,-8.8471,-8.6921,-8.4998,-8.3653,-8.2883,-8.2883,-8.2883,-8.2883,-8.2883,-8.2883,-8.2883,-8.2883,-8.2883,-8.2883,-8.2883,-8.2883,-8.2883,-8.2883,-8.2883,-8.2883,-8.2883,-8.2883,-8.3215,-8.3811,0.0,0.0,0.0,0.0,0.0,0.0,0.0,0.0,0.0,0.0,0.0,0.0,0.0,0.0,0.0,0.0,0.0,0.0,0.0,0.0,0.0,0.0,0.0,0.0,0.0,0.0,0.0,0.0,0.0,0.0,0.0,-7.812,-7.7711,-7.6687,-7.6538,-7.6538,-7.6538,-7.6538,-7.6538,-7.6538,-7.6538,-7.6538,-7.6538,-7.6538,-7.6538,-7.6538,-7.6538,-7.6538,-7.6538,-7.6898,-7.7217,-7.7391,-7.832,-7.8959,-7.9307,-7.9801,-8.012,-8.0294,-8.0294,-8.0294,-8.0294,-8.0294,-8.0294,-8.0294,-8.0294,-8.0294,-8.0294,-8.0294,-8.0294,-8.0294,-8.0294,-8.0294,-8.0294,0.0,0.0,0.0,0.0,0.0,0.0,-9.0581,-9.0581,-9.0581,-9.0581,-9.0581,-9.0581,-9.0581,-9.0497,-9.0416,-9.0416,-9.0089,-8.9881,-8.9881,-8.8174,-8.6187,-8.3947,-8.3243,-8.2883,-8.2883,-8.2883,-8.2883,-8.2883,-8.2883,-8.2883,-8.2883,-8.2883,-8.2883,-8.2883,-8.2883,-8.2883,-8.2883,-8.2883,-8.2883,-8.2883,-8.2883,-8.3347,-8.4076,-8.4838,-8.5567,-8.6321,-8.7024,-8.7289,-8.7289,-8.7289,0.0,0.0,0.0,0.0,0.0,0.0,0.0,0.0,0.0,0.0,0.0,0.0,0.0,0.0,0.0,0.0,0.0,0.0,0.0,0.0,0.0,0.0,0.0,0.0,-7.7784,-7.749,-7.6612,-7.6538,-7.6538,-7.6538,-7.6538,-7.6538,-7.6538,-7.6538,-7.6538,-7.6538,-7.6538,-7.6538,-7.6538,-7.6538,-7.6579,-7.684,-7.7217,-7.7653,-7.8204,-7.893,-7.9452,-7.9714,-8.012,-8.0294,-8.0294,-8.0294,-8.0294,-8.0294,-8.0294,-8.0294,-8.0294,-8.0294,-8.0294,-8.0294,0.0,0.0,0.0,0.0,-8.0294,-8.0294,0.0,0.0,0.0,0.0,0.0,0.0,-9.0581,-9.0581,-9.0581,-9.0581,-9.0581,-9.0581,-9.0581,-9.0581,-9.0581,-9.0578,-9.0416,-9.0295,-9.0213,-8.7829,-8.5446,-8.3354,-8.3052,-8.2883,-8.2883,-8.2883,-8.2883,-8.2883,-8.2883,-8.2883,-8.2883,-8.2883,-8.2883,-8.2883,-8.2883,-8.2883,-8.2883,-8.2883,-8.2883,-8.2883,-8.2883,-8.338,-8.4208,-8.4871,-8.56,-8.6395,-8.7057,-8.7289,-8.7289,-8.7289,0.0,0.0,0.0,0.0,0.0,0.0,0.0,0.0,0.0,0.0,0.0,0.0,0.0,0.0,0.0,0.0,0.0,0.0,0.0,0.0,0.0,0.0,0.0,0.0,-7.6808,-7.6538,-7.6733,-7.6612,-7.6538,-7.6538,-7.6538,-7.6538,-7.6538,-7.6538,-7.6538,-7.6538,-7.6538,-7.6538,-7.6538,-7.6521,0.0,0.0,0.0,-7.8175,-7.9278,-7.9365,-7.9714,-8.0294,-8.0294,-8.0294,-8.0294,-8.0294,-8.0294,-8.0294,-8.0294,-8.0294,-8.0294,-8.0294,-8.0294,-8.0294,-8.0294,-8.0294,-8.0294,-8.0294,-8.0294,-8.0294,0.0,0.0,0.0,0.0,0.0,0.0,-9.0581,-9.0581,-9.0581,-9.0581,-9.0581,-9.0581,-9.0581,-9.0581,-9.0501,-9.0376,-9.0335,-9.0131,-8.9755,-8.7492,-8.5937,-8.5515,-8.3784,-8.2883,-8.2883,-8.2883,-8.2883,-8.2883,-8.2883,-8.2883,-8.2883,-8.2883,-8.2883,-8.2883,-8.2883,-8.2883,-8.2883,-8.2883,-8.2883,-8.2883,-8.2883,-8.3711,-8.4904,-8.507,-8.5931,-8.709,-8.7223,-8.7289,-8.7289,-8.7289,-8.7289,-8.7289,-8.7289,-8.7289,0.0,0.0,0.0,0.0,0.0,0.0,0.0,0.0,0.0,0.0,0.0,0.0,0.0,0.0,0.0,0.0,0.0,0.0,0.0,-8.1511,-7.8813,-7.6957,-7.812,-7.7224,-7.6538,-7.6538,-7.6538,-7.6538,-7.6538,-7.6538,-7.6538,-7.6538,-7.6538,-7.6538,-7.6538,-7.6956,-7.7275,-7.7391,-7.8407,-7.9046,-7.9307,-7.983,-8.0178,-8.0294,-8.0294,0.0,-8.0294,-8.0294,-8.0294,-8.0294,-8.0294,-8.0294,-8.0294,-8.0294,-8.0294,-8.0294,-8.0294,-8.0294,-8.0294,-8.0294,-8.0294,-8.0294,0.0,0.0,0.0,0.0,0.0,0.0,-9.0581,-9.0581,-9.0581,-9.0581,-9.0581,-9.0581,-9.0581,-9.0581,-9.0578,-9.0457,-9.0457,-9.0095,-8.9185,-8.8048,-8.7078,-8.6301,-8.4702,-8.3805,-8.3708,-8.3131,-8.2883,-8.2883,-8.2883,-8.2883,-8.2883,-8.2883,-8.2883,-8.2883,-8.2883,-8.2883,-8.2883,-8.2883,-8.2883,-8.2883,-8.2883,-8.3778,-8.5103,-8.5103,-8.603,-8.7289,-8.7289,-8.7289,-8.7289,-8.7289,-8.7289,-8.7289,-8.7289,-8.7289,-8.7289,0.0,0.0,0.0,0.0,0.0,0.0,0.0,0.0,0.0,0.0,0.0,0.0,0.0,0.0,-8.5577,-8.5014,0.0,-8.1548,-8.1917,-7.9496,-7.812,-7.9567,-7.7931,-7.6538,-7.6538,-7.6538,-7.6538,-7.6538,-7.6538,-7.6538,-7.6538,-7.6753,-7.6927,-7.6927,-7.7537,-7.803,-7.8349,-7.8959,-7.9452,-7.9801,-8.012,-8.0294,-8.0294,-8.0294,-8.0294,-8.0294,-8.0294,-8.0294,-8.0294,-8.0294,-8.0294,-8.0294,-8.0294,-8.0294,-8.0294,-8.0294,-8.0294,-8.0294,-8.0294,-8.0294,-8.0294,0.0,0.0,0.0,0.0,0.0,0.0,-9.0581,-9.0581,-9.0581,-9.0581,-9.0581,-9.0581,-9.0581,-9.0581,-9.0581,-9.0581,-9.0541,-9.01,-8.907,-8.8809,-8.8103,-8.6852,-8.5717,-8.5034,-8.4893,-8.4001,-8.341,-8.3187,-8.3187,-8.3108,-8.2883,-8.2883,-8.2883,-8.2883,-8.2883,-8.2883,-8.2883,-8.2883,-8.2883,-8.2883,-8.2883,-8.3778,-8.5103,-8.5103,-8.603,-8.7289,-8.7289,-8.7289,-8.7289,-8.7289,-8.7289,-8.7289,-8.7289,-8.7289,-8.7289,-8.7289,-8.7289,0.0,0.0,0.0,0.0,0.0,0.0,0.0,0.0,-8.7289,-8.7289,-8.723,-8.7329,-8.6853,-8.5049,-8.4572,-8.3922,-8.2494,-8.0737,-8.0032,-8.1571,-7.9419,-7.768,-7.7307,-7.692,-7.6637,-7.6637,-7.6753,-7.684,-7.684,-7.7304,-7.7595,-7.7595,-7.8233,-7.8785,-7.9278,-7.9423,-7.9743,-8.0294,-8.0294,-8.0294,-8.0294,-8.0294,-8.0294,-8.0294,-8.0294,-8.0294,-8.0294,-8.0294,-8.0294,-8.0294,-8.0294,-8.0294,-8.0294,-8.0294,-8.0294,-8.0294,-8.0294,-8.0294,-8.0294,0.0,0.0,0.0,0.0,0.0,0.0,0.0,0.0,-9.0581,-9.0581,-9.0581,-9.0581,-9.0581,-9.0581,-9.0581,-9.0581,-9.0457,-9.0295,-9.0136,-8.9055,-8.8365,-8.8184,-8.69,-8.6217,-8.6167,-8.5887,-8.5258,-8.4291,-8.4291,-8.3838,-8.2883,-8.2883,-8.2883,-8.2883,-8.2883,-8.2883,-8.2883,-8.2883,-8.2883,-8.2883,-8.2883,-8.3778,-8.5103,-8.5103,-8.603,-8.7289,-8.7289,-8.7289,-8.7289,-8.7289,-8.7289,-8.7289,-8.7289,-8.7289,-8.7289,-8.7289,-8.7289,-8.7289,-8.7289,-8.7289,-8.7289,-8.7289,-8.7289,-8.7289,0.0,-8.7289,-8.723,-8.693,-8.7398,-8.7643,-8.7117,-8.6179,-8.5881,-8.6953,-8.4546,-8.3,-8.4509,-8.331,-8.1755,-8.0434,-7.8502,-7.7304,-7.7304,-7.7827,-7.8175,-7.8175,-7.8262,-7.8291,-7.8291,-7.8872,-7.922,-7.9307,-7.9888,-8.0207,-8.0294,-8.0294,-8.0294,-8.0294,-8.0294,-8.0294,-8.0294,-8.0294,-8.0294,-8.0294,-8.0294,-8.0294,-8.0294,-8.0294,-8.0294,-8.0294,-8.0294,-8.0294,-8.0294,-8.0294,-8.0294,-8.0294,0.0,0.0,0.0,0.0,0.0,0.0,0.0,0.0,-9.0581,-9.0581,-9.0581,-9.0581,-9.0581,-9.0581,-9.0581,-9.0581,-9.0537,-9.0497,-9.0497,-8.9976,-8.9648,-8.9521,-8.8374,-8.7609,-8.7363,-8.6644,-8.6037,-8.5464,-8.4822,-8.4238,-8.3817,-8.3187,-8.2883,-8.2883,-8.2883,-8.2883,-8.2883,-8.2883,-8.2883,-8.2883,-8.2883,-8.3778,-8.5103,-8.5103,-8.603,-8.7289,-8.7289,-8.7289,0.0,-8.7289,-8.7289,-8.7289,-8.7289,-8.7289,-8.7289,-8.7289,-8.7289,-8.7289,-8.7289,-8.7289,-8.7289,-8.7289,-8.7289,-8.7289,-8.7289,-8.7289,-8.7389,-8.7606,-8.7937,-8.8146,-8.8268,-8.7875,-8.7691,-8.8169,-8.6137,-8.5105,-8.6595,-8.4562,-8.3106,-8.3317,-8.209,-8.0378,-7.8154,-7.909,-7.9388,-7.8484,-7.8727,-7.893,-7.893,-7.954,-7.9888,-7.9888,-8.0149,-8.0294,-8.0294,-8.0294,-8.0294,-8.0294,-8.0294,-8.0294,-8.0294,-8.0294,-8.0294,-8.0294,-8.0294,-8.0294,-8.0294,-8.0294,-8.0294,-8.0294,-8.0294,-8.0294,-8.0294,-8.0294,-8.0294,-8.0294,0.0,0.0,0.0,0.0,0.0,0.0,0.0,0.0,0.0,0.0,-9.0581,-9.0581,-9.0581,-9.0581,-9.0581,-9.0581,-9.0581,-9.0581,-9.0581,-9.0581,-9.0501,-9.0376,-8.9605,-8.8976,-8.8624,-8.7736,-8.7078,-8.663,-8.5786,-8.5206,-8.4893,-8.4164,-8.3598,-8.3354,-8.3354,-8.322,-8.2883,-8.2883,-8.2883,-8.2883,-8.2883,-8.3778,-8.5103,-8.5103,-8.603,-8.7289,-8.7289,-8.7289,-8.7289,-8.7289,-8.7289,-8.7289,-8.7289,-8.7289,-8.7289,-8.7289,-8.7289,-8.7289,-8.7289,-8.7289,-8.7289,-8.7289,-8.7289,-8.7289,-8.7289,-8.7422,-8.7687,-8.8217,-8.8647,-8.9017,-8.9301,-8.9409,-8.9449,-8.9232,-8.7988,-8.7403,-8.8374,-8.6478,-8.5158,-8.5705,-8.5629,-8.4177,-8.0553,-8.084,-8.054,-7.9085,-7.9336,-7.9569,-7.9569,-8.0033,-8.0294,-8.0294,-8.012,-8.012,-8.0294,-8.012,-8.012,-8.0294,-8.0294,-8.0294,-8.0294,-8.0294,-8.0294,-8.0294,-8.0294,-8.0294,-8.0294,-8.0294,-8.0294,-8.0294,-8.0294,-8.0294,-8.0294,-8.0294,-8.0294,-8.0294,0.0,0.0,0.0,0.0,0.0,0.0,0.0,0.0,0.0,0.0,0.0,-9.0581,-9.0581,-9.0581,-9.0581,-9.0581,-9.0581,-9.0581,-9.0581,-9.0581,-9.0618,-9.0581,-9.0376,-9.0254,-9.0254,-8.9719,-8.896,-8.7956,-8.7714,-8.7052,-8.6072,-8.6022,-8.5464,-8.4452,-8.4452,-8.3838,-8.2883,-8.2883,-8.2883,-8.2883,-8.2883,-8.3778,-8.5103,-8.5103,-8.603,-8.7289,-8.7289,-8.7289,-8.7289,-8.7289,-8.7289,-8.7289,-8.7289,-8.7289,-8.7289,-8.7289,-8.7289,-8.7289,-8.7289,-8.7289,-8.7289,-8.7289,-8.7289,-8.7289,-8.7289,-8.7786,-8.8283,-8.8316,-8.9442,-9.0469,-9.0408,-9.0816,-9.1027,-9.1027,-9.0709,-9.0324,-9.0066,-8.9936,-8.9215,-8.7365,-8.8513,-8.8144,-8.5009,-8.3398,-8.1875,-8.0394,-8.0265,-8.0265,-8.0265,-8.0294,-8.0294,-8.0294,-7.9656,-7.9627,-8.0294,-7.9656,-7.9656,-8.0294,-8.0294,-8.0294,-8.0294,-8.0294,-8.0294,-8.0294,-8.0294,-8.0294,-8.0294,-8.0294,-8.0294,-8.0294,-8.0294,-8.0294,-8.0294,-8.0294,-8.0294,-8.0294,0.0,0.0,0.0,0.0,0.0,0.0,0.0,0.0,0.0,0.0,0.0,0.0,0.0,0.0,0.0,0.0,-9.0581,-9.0581,-9.0581,-9.0581,-9.0581,-9.0581,-9.0537,-9.0457,-9.0295,-9.0131,-8.9803,-8.9343,-8.8525,-8.7899,-8.7351,-8.6644,-8.6003,-8.5515,-8.4788,-8.4291,-8.3893,-8.3187,-8.2883,-8.2883,-8.2883,-8.3778,-8.5103,-8.5103,-8.603,-8.7289,0.0,-8.7289,-8.7289,-8.7289,-8.7289,-8.7289,-8.7289,-8.7289,-8.7289,-8.7289,-8.7289,-8.7289,-8.7289,-8.7289,-8.7289,-8.7289,-8.7289,-8.7389,-8.7852,-8.815,-8.8581,-8.9575,-9.0171,-9.0668,-9.1132,-9.1368,-9.1471,-9.1471,-9.1156,-9.0902,-9.0775,-9.0583,-9.0131,-8.9213,-8.9608,-8.9014,-8.6634,-8.593,-8.4636,-8.2011,-8.274,-8.2438,-8.0452,-8.1301,-8.1603,-8.1083,-8.0347,-8.0376,-8.1083,-8.0376,-8.0091,-8.0294,-8.0294,-8.0294,-8.0294,-8.0294,-8.0294,-8.0294,-8.0294,-8.0294,-8.0294,-8.0294,-8.0294,-8.0294,-8.0294,-8.0294,-8.0352,-8.0759,-8.0904,-8.0846,0.0,0.0,0.0,0.0,0.0,0.0,0.0,0.0,0.0,0.0,0.0,0.0,0.0,0.0,0.0,0.0,0.0,-9.0581,-9.0581,-9.0581,-9.0581,-9.0581,-9.0581,-9.0537,-9.0416,-9.0335,-9.0213,-9.0125,-8.9343,-8.888,-8.8704,-8.8002,-8.7363,-8.6728,-8.6087,-8.5481,-8.4998,-8.3947,-8.3465,-8.3465,-8.3052,-8.3778,-8.5103,-8.5103,-8.603,0.0,-8.7289,-8.7289,-8.7289,-8.7289,-8.7289,-8.7289,-8.7289,-8.7289,-8.7289,-8.7289,-8.7289,-8.7289,-8.7289,-8.7289,-8.7289,-8.7289,-8.7289,-8.7455,-8.815,-8.8515,-8.9045,-9.0271,-9.0734,-9.1032,-9.1496,-9.1596,-9.1596,-9.1596,-9.1408,-9.1219,-9.1156,-9.0902,-9.0647,-9.0325,-9.0131,-8.9576,-8.8379,-8.8108,-8.6805,-8.3681,-8.4314,-8.402,-8.2011,-8.268,-8.2961,-8.2676,-8.1206,-8.093,-8.1886,-8.058,-8.0062,-8.0294,-8.0294,-8.0294,-8.0294,-8.0294,-8.0294,-8.0294,-8.0294,-8.0294,-8.0294,-8.0294,-8.0439,-8.0614,-8.0614,-8.0759,-8.102,-8.1397,-8.1543,-8.1484,0.0,0.0,0.0,0.0,0.0,0.0,0.0,0.0,0.0,0.0,0.0,0.0,0.0,0.0,0.0,0.0,0.0,0.0,-9.0581,-9.0581,-9.0581,-9.0581,-9.0581,-9.0581,-9.0581,-9.0416,-9.0295,-9.0295,-9.0089,-9.0042,-9.0001,-9.0001,-8.9343,-8.8093,-8.8048,-8.7303,-8.6072,-8.4946,-8.4505,-8.4291,-8.3299,-8.3778,-8.5103,-8.5103,-8.603,-8.7289,-8.7289,-8.7289,-8.7289,-8.7289,-8.7289,-8.7289,-8.7289,-8.7289,-8.7289,-8.7289,-8.7289,-8.7289,-8.7289,-8.7289,-8.7289,-8.7289,-8.7289,-8.7488,-8.8184,-8.8912,-8.9641,-9.0403,-9.1099,-9.1596,-9.1596,-9.1596,-9.1596,-9.1596,-9.1596,-9.1471,-9.1156,-9.1156,-9.1029,-9.0647,-9.0325,-9.0131,-9.0164,-8.9837,-8.8411,-8.54,-8.5143,-8.504,-8.4834,-8.4352,-8.4321,-8.4876,-8.2292,-8.1377,-8.268,-8.0422,-7.9734,-8.0452,-8.0373,-8.0294,-8.0294,-8.0294,-8.0294,-8.0294,-8.0323,-8.0352,-8.0352,-8.0381,-8.073,-8.1252,-8.1252,-8.163,-8.2181,-8.2239,-8.2239,-8.2239,0.0,0.0,0.0,0.0,0.0,0.0,0.0,0.0,0.0,0.0,0.0,0.0,0.0,0.0,0.0,0.0,0.0,0.0,-9.0581,-9.0581,-9.0581,-9.0581,-9.0581,-9.0581,-9.0581,-9.0578,-9.0501,-9.0501,-9.0497,-9.0376,-9.0213,-9.0213,-8.9965,-8.9464,-8.8659,-8.755,-8.6217,-8.5189,-8.415,-8.3299,-8.2996,-8.3778,-8.5103,-8.5103,-8.603,-8.7289,-8.7289,-8.7289,-8.7289,-8.7289,-8.7289,-8.7289,-8.7289,-8.7289,-8.7289,-8.7289,-8.7289,-8.7289,-8.7289,-8.7289,-8.7289,-8.7289,-8.7289,-8.7587,-8.8846,-8.9277,-8.9774,-9.1032,-9.1463,-9.1596,-9.1596,-9.1596,-9.1596,-9.1596,-9.1596,-9.1596,-9.1437,-9.1471,-9.1345,-9.1029,-9.0902,-9.0775,-9.0519,-9.0131,-8.9674,-8.8849,-8.8545,-8.717,-8.4331,-8.5564,-8.5937,-8.5058,-8.4248,-8.3733,-8.361,-8.1273,-8.0717,-8.2011,-8.0864,-8.0294,-8.0294,-8.0294,-8.0294,-8.0323,-8.0759,-8.0962,-8.0991,-8.1514,-8.1804,-8.1949,-8.1949,-8.2036,-8.2239,-8.2762,-8.2936,-8.2994,0.0,0.0,0.0,0.0,0.0,0.0,0.0,0.0,0.0,0.0,0.0,0.0,0.0,0.0,0.0,0.0,0.0,0.0,0.0,-9.0581,-9.0581,-9.0581,-9.0581,-9.0581,-9.0581,-9.0581,-9.0581,-9.0581,-9.0581,-9.0541,-9.0457,-9.0457,-9.0335,-9.0125,-8.9514,-8.8712,-8.7725,-8.6658,-8.5446,0.0,0.0,-8.3998,-8.4672,-8.5003,-8.5798,-8.6825,-8.7157,-8.7289,-8.7289,-8.7289,-8.7289,-8.7289,-8.7289,-8.7289,-8.7289,-8.7289,-8.7289,-8.7289,-8.7289,-8.7289,-8.7289,-8.7289,-8.7488,-8.8018,-8.9144,-8.9674,-9.0237,-9.1364,-9.1596,-9.1596,-9.1596,-9.1596,-9.1596,-9.1596,-9.1596,-9.1596,-9.1596,-9.1596,-9.1533,-9.1345,-9.1219,-9.1029,-9.0839,-9.0519,-9.0261,-9.0066,-8.948,-8.8332,-8.6516,-8.6941,-8.7253,-8.7061,-8.6013,-8.5077,-8.4342,-8.2334,-8.1734,-8.2589,-8.102,-8.0294,-8.0294,-8.0294,-8.0439,-8.0701,-8.1049,-8.1368,-8.1659,-8.2036,-8.2355,-8.2617,-8.2617,-8.2791,-8.3081,-8.3458,-8.3575,-8.3633,0.0,0.0,0.0,0.0,0.0,0.0,0.0,0.0,0.0,0.0,0.0,0.0,0.0,0.0,0.0,0.0,0.0,0.0,0.0,0.0,-9.0581,-9.0581,-9.0581,-9.0581,-9.0581,-9.0581,-9.0581,-9.0581,-9.0581,-9.0581,-9.0581,-9.0581,-9.0537,-9.0335,-9.0335,-9.0012,-8.9386,-8.8445,-8.7256,-8.5836,-8.505,-8.4417,-8.4076,0.0,-8.5708,-8.6321,-8.7024,-8.7289,-8.7289,-8.7289,-8.7289,-8.7289,-8.7289,-8.7289,-8.7289,-8.7289,-8.7289,-8.7289,-8.7289,-8.7289,-8.7289,-8.7289,-8.7786,-8.8515,-8.9244,-8.9972,-9.0734,-9.143,-9.1596,-9.1596,-9.1596,-9.1596,-9.1596,-9.1596,-9.1596,-9.1596,-9.1596,-9.1596,-9.1596,-9.1596,-9.1345,-9.1156,-9.1156,-9.0839,-9.0486,-9.0065,-8.9123,-8.883,-8.9413,-8.8344,-8.8279,-8.9542,-8.7466,-8.6069,-8.5543,-8.3756,-8.3041,-8.316,-8.1455,-8.058,-8.058,-8.046,-8.0701,-8.1194,-8.1397,-8.1804,-8.2326,-8.2413,-8.2791,-8.3313,-8.3313,-8.3633,-8.4097,-8.4097,-8.4097,-8.4097,0.0,0.0,0.0,0.0,0.0,0.0,0.0,0.0,0.0,0.0,-9.0581,-9.0581,0.0,0.0,0.0,0.0,0.0,0.0,0.0,0.0,0.0,-9.0581,-9.0581,-9.0581,-9.0581,-9.0581,-9.0581,-9.0581,-9.0581,-9.0581,-9.0581,-9.0581,-9.0581,-9.0578,-9.0578,-8.9898,-8.8809,-8.8454,-8.7043,-8.5086,-8.5583,-8.5105,-8.419,-8.5784,0.0,0.0,-8.7024,-8.7289,-8.7289,-8.7289,-8.7289,-8.7289,-8.7289,-8.7289,-8.7289,-8.7289,-8.7289,-8.7289,-8.7289,-8.7289,-8.7289,-8.7289,-8.7786,-8.8515,-8.9244,-8.9972,-9.0734,-9.143,-9.1596,-9.1596,-9.1596,-9.1596,-9.1596,-9.1596,-9.1596,-9.1596,-9.1596,-9.1596,-9.1596,-9.1596,-9.1533,-9.1533,-9.1533,-9.1219,-9.0639,-8.9667,-8.9185,-8.8863,-8.8668,-8.9024,-8.9316,-8.9575,-8.7912,-8.7608,-8.8779,-8.593,-8.5112,-8.6354,-8.3533,-8.2163,-8.2193,-8.139,-8.1107,-8.1252,-8.2355,-8.2907,-8.3052,-8.3546,-8.3836,-8.3923,-8.3923,-8.401,-8.4097,-8.4097,-8.4097,-8.4097,0.0,0.0,0.0,0.0,0.0,0.0,0.0,-9.0581,-9.0581,-9.0581,-9.0581,-9.0581,-9.0581,-9.0581,-9.0581,0.0,0.0,0.0,0.0,0.0,0.0,-9.0581,-9.0581,-9.0581,-9.0581,-9.0581,-9.0581,-9.0581,0.0,-9.0581,-9.0581,-9.0581,-9.0581,-9.0581,-9.0581,-9.0182,-8.9563,-8.9435,-8.8275,-8.6463,-8.6301,-8.5428,-8.4377,-8.5426,0.0,0.0,-8.7157,-8.7289,-8.7289,-8.7289,-8.7289,-8.7289,-8.7289,-8.7289,-8.7289,-8.7289,-8.7289,-8.7289,-8.7289,-8.7289,-8.7289,-8.7289,-8.8084,-8.8979,-8.9343,-9.0271,-9.1165,-9.1529,-9.1596,-9.1596,-9.1596,-9.1596,-9.1596,-9.1596,-9.1596,-9.1596,-9.1596,-9.1596,-9.1596,-9.1596,-9.1596,-9.1596,-9.1596,-9.1437,-9.1054,-9.0376,-9.0186,-8.9639,-8.8571,-8.9186,-8.9575,-8.9575,-8.8846,-8.8846,-8.9575,-8.7291,-8.6494,-8.7153,-8.4896,-8.3566,-8.3158,-8.264,-8.2339,-8.2268,-8.2907,-8.3371,-8.3691,-8.3981,-8.4097,-8.4097,-8.4097,-8.4097,-8.4097,-8.4097,-8.4097,-8.4097,0.0,0.0,0.0,0.0,0.0,0.0,0.0,-9.0581,-9.0581,-9.0581,-9.0581,-9.0581,-9.0581,-9.0581,-9.0581,0.0,0.0,0.0,0.0,0.0,0.0,0.0,0.0,0.0,-9.0581,0.0,0.0,-9.0581,-9.0581,0.0,0.0,0.0,0.0,0.0,-9.0581,-9.0537,-9.0376,-9.0335,-8.9478,0.0,0.0,-8.5903,-8.4587,0.0,0.0,0.0,0.0,-8.7289,-8.7289,-8.7289,-8.7289,-8.7289,-8.7289,-8.7289,-8.7289,-8.7289,-8.7289,-8.7289,-8.7289,-8.7289,-8.7322,-8.7455,-8.8449,-8.9442,-8.9608,-9.0668,-9.1596,-9.1596,-9.1596,-9.1596,-9.1596,-9.1596,-9.1596,-9.1596,-9.1596,-9.1596,-9.1596,-9.1596,-9.1596,-9.1596,-9.1596,-9.1596,-9.1596,-9.1596,-9.1404,-9.0925,-9.0799,-9.0157,-8.8863,-8.9349,-8.9575,-8.9575,-8.9575,-8.9575,-8.9575,-8.8343,-8.7735,-8.7667,-8.6267,-8.5273,-8.4563,-8.4212,-8.3952,-8.3738,-8.3477,-8.3662,-8.4097,-8.4097,-8.4097,-8.4097,-8.4097,-8.4097,-8.4097,-8.4097,-8.4097,-8.4097,0.0,0.0,0.0,0.0,0.0,0.0,0.0,-9.0581,-9.0581,-9.0581,-9.0581,-9.0581,-9.0581,-9.0581,-9.0581,0.0,0.0,0.0,0.0,0.0,0.0,0.0,0.0,0.0,0.0,0.0,0.0,-9.0581,-9.0581,0.0,0.0,0.0,0.0,0.0,0.0,-9.0618,-9.0578,-9.0376,0.0,0.0,0.0,0.0,0.0,0.0,0.0,0.0,0.0,-8.7289,-8.7289,-8.7289,-8.7289,-8.7289,-8.7289,-8.7289,-8.7289,-8.7289,-8.7289,-8.7289,-8.7289,-8.7289,-8.7422,-8.8051,-8.8813,-8.9608,-9.0271,-9.1032,-9.1596,-9.1596,-9.1596,-9.1596,-9.1596,-9.1596,-9.1596,-9.1596,-9.1596,-9.1596,-9.1596,-9.1596,-9.1596,-9.1596,-9.1596,-9.1596,-9.1596,-9.1596,-9.1173,-9.02,-8.9853,-8.9735,-8.9936,-8.9739,-8.9575,-8.9575,-8.9575,-8.9575,-8.9575,-8.9443,-8.9377,-8.9377,-8.8471,-8.7921,-8.7804,-8.6184,-8.5383,-8.5327,-8.4374,-8.4039,-8.4097,-8.4097,-8.4097,-8.4097,-8.4097,-8.4097,-8.4097,-8.4097,-8.4097,-8.4097,0.0,0.0,0.0,0.0,0.0,0.0,-9.0581,-9.0581,-9.0581,-9.0581,-9.0581,-9.0581,-9.0581,-9.0581,-9.0581,-9.0581,0.0,0.0,0.0,0.0,0.0,0.0,0.0,0.0,0.0,0.0,-9.0581,-9.0581,-9.0581,0.0,0.0,0.0,0.0,0.0,0.0,-9.0581,-9.0581,-9.0537,0.0,0.0,0.0,0.0,0.0,0.0,0.0,0.0,0.0,0.0,-8.7289,-8.7289,-8.7289,-8.7289,-8.7289,-8.7289,-8.7289,-8.7289,-8.7289,-8.7289,-8.7289,-8.7289,-8.7455,-8.815,-8.8879,-8.9608,-9.0337,-9.1066,-9.1596,-9.1596,-9.1596,-9.1596,-9.1596,-9.1596,-9.1596,-9.1596,-9.1596,-9.1596,-9.1596,-9.1596,-9.1596,-9.1596,-9.1596,-9.1596,-9.1596,-9.1596,-9.1401,-9.0978,-9.0631,-9.051,-9.0678,-9.0196,-8.9903,-8.9903,-8.9706,-8.9575,-8.9575,-8.9575,-8.9801,-9.019,-8.9881,-8.9575,-8.9458,-8.8764,-8.8114,-8.7553,-8.6181,-8.553,-8.5449,-8.445,-8.4097,-8.4097,-8.4097,-8.4097,-8.4097,-8.4097,-8.4097,-8.4097,0.0,0.0,0.0,0.0,0.0,-9.0581,-9.0581,-9.0581,-9.0581,-9.0581,-9.0581,-9.0581,-9.0581,-9.0581,-9.0581,-9.0581,-9.0581,0.0,0.0,0.0,0.0,0.0,0.0,0.0,0.0,0.0,-9.0581,-9.0581,-9.0581,-9.0581,0.0,0.0,-9.0581,-9.0581,0.0,0.0,0.0,0.0,0.0,0.0,0.0,0.0,0.0,0.0,0.0,0.0,0.0,0.0,0.0,0.0,0.0,-8.7289,-8.7289,-8.7289,-8.7289,-8.7289,-8.7289,-8.7289,-8.7289,-8.7289,-8.7488,-8.8415,-8.9045,-8.9674,-9.0635,-9.1231,-9.1596,-9.1596,-9.1596,-9.1596,-9.1596,-9.1596,-9.1596,-9.1596,-9.1596,-9.1596,-9.1596,-9.1596,-9.1596,-9.1596,-9.1596,-9.1596,-9.1596,-9.1596,-9.1596,-9.1596,-9.1408,-9.1282,-9.1282,-9.0711,-9.0325,-9.0099,-8.9772,-8.9575,-8.9575,-8.9801,-9.0125,-9.0611,-9.1032,-9.1201,-9.1054,-9.0715,-9.0267,-8.9593,-8.7964,-8.6982,-8.643,-8.5317,-8.4532,-8.4097,-8.4097,-8.4097,-8.4097,-8.4097,-8.4097,-8.4097,0.0,0.0,0.0,0.0,0.0,0.0,-9.0581,-9.0581,-9.0581,-9.0581,-9.0581,-9.0581,-9.0581,-9.0581,-9.0581,-9.0581,-9.0581,0.0,0.0,0.0,0.0,0.0,0.0,0.0,0.0,0.0,-9.0581,-9.0581,-9.0581,-9.0581,-9.0581,-9.0581,-9.0581,-9.0581,0.0,0.0,0.0,0.0,0.0,0.0,0.0,0.0,-8.6573,0.0,0.0,0.0,0.0,0.0,0.0,0.0,0.0,0.0,0.0,-8.7289,-8.7289,-8.7289,-8.7289,-8.7289,-8.7289,-8.7289,-8.762,-8.9045,-8.9409,-8.9807,-9.1231,-9.1562,-9.1596,-9.1596,-9.1596,-9.1596,-9.1596,-9.1596,-9.1596,-9.1596,-9.1596,-9.1596,-9.1596,-9.1596,-9.1596,-9.1596,-9.1596,-9.1596,-9.1596,-9.1596,-9.1596,-9.1596,-9.1596,-9.1596,-9.1596,-9.1282,-9.0775,-9.0164,-8.9772,-8.9575,-8.9575,-9.0255,-9.0579,-9.0611,-9.2068,-9.2781,-9.2745,-9.1826,-9.1393,-9.1321,-8.9668,-8.8041,-8.6509,-8.6509,-8.553,-8.4097,-8.4097,-8.4097,-8.4097,-8.4097,-8.4097,-8.4097,0.0,0.0,0.0,0.0,0.0,0.0,0.0,-9.0581,-9.0581,-9.0581,-9.0581,-9.0581,-9.0581,-9.0581,-9.0581,-9.0581,-9.0581,0.0,0.0,0.0,0.0,0.0,0.0,0.0,0.0,-9.0581,-9.0581,-9.0581,-9.0581,-9.0581,-9.0581,-9.0581,-9.0581,-9.0581,-9.0581,-9.0581,0.0,0.0,0.0,0.0,0.0,-8.6848,-8.6847,0.0,0.0,0.0,0.0,0.0,0.0,0.0,0.0,0.0,0.0,0.0,0.0,-8.7289,-8.7289,-8.7289,-8.7289,-8.762,-8.8217,-8.9177,-8.9807,-9.0436,-9.1364,-9.1596,-9.1596,-9.1596,-9.1596,-9.1596,-9.1596,-9.1596,-9.1596,-9.1596,-9.1596,-9.1596,-9.1596,-9.1596,-9.1596,-9.1596,-9.1596,-9.1596,-9.1596,-9.1596,-9.1596,-9.1596,-9.1596,-9.1596,-9.1596,-9.1282,-9.0902,-9.0454,-9.0164,-8.9837,-8.9575,-9.0255,-9.0838,-9.1356,-9.2327,-9.304,-9.3493,-9.3202,-9.3057,-9.2987,-9.1321,-9.0338,-8.9637,-8.7421,-8.6221,-8.5611,-8.4532,-8.4097,-8.4097,-8.4097,-8.4097,-8.4097,0.0,0.0,0.0,0.0,0.0,0.0,0.0,-9.0581,-9.0581,-9.0581,-9.0581,-9.0581,-9.0581,-9.0581,-9.0581,-9.0581,0.0,0.0,0.0,0.0,0.0,0.0,0.0,0.0,-9.0581,-9.0581,-9.0581,-9.0581,-9.0581,-9.0581,-9.0581,-9.0581,-9.0581,-9.0581,-9.0581,-9.0581,0.0,0.0,0.0,0.0,-8.7597,-8.725,-8.7477,0.0,0.0,0.0,0.0,0.0,0.0,0.0,0.0,0.0,0.0,0.0,0.0,0.0,-8.7289,-8.7289,-8.7289,-8.7786,-8.8482,-8.9244,-8.9972,-9.0701,-9.143,-9.1596,-9.1596,-9.1596,-9.1596,-9.1596,-9.1596,-9.1596,-9.1596,-9.1596,-9.1596,-9.1596,-9.1596,-9.1596,-9.1596,-9.1596,-9.1596,-9.1596,-9.1596,-9.1596,-9.1596,-9.1596,-9.1596,-9.1596,-9.1596,-9.1408,-9.1156,-9.0775,-9.0454,-9.0326,-9.0359,-9.0942,-9.1557,-9.2271,-9.2914,-9.3396,-9.3817,-9.3817,-9.3817,-9.3748,-9.2744,-9.193,0.0,-8.9186,-8.7655,-8.643,-8.5369,-8.4614,-8.4097,-8.4097,-8.4097,-8.4097,0.0,0.0,0.0,0.0,0.0,0.0,0.0,-9.0581,-9.0581,-9.0581,-9.0581,-9.0581,-9.0581,-9.0581,-9.0581,-9.0581,0.0,0.0,0.0,0.0,0.0,0.0,0.0,0.0,-9.0581,-9.0581,-9.0581,-9.0581,-9.0581,-9.0581,-9.0581,-9.0581,-9.0581,-9.0581,-9.0581,-9.0581,-9.0581,-9.0581,-9.038,-8.9929,-8.7967,-8.7694,0.0,0.0,0.0,0.0,0.0,0.0,0.0,0.0,0.0,0.0,0.0,0.0,0.0,0.0,0.0,0.0,0.0,-8.7819,-8.8548,-8.9244,-9.0006,-9.0767,-9.143,-9.1596,0.0,-9.1596,-9.1596,-9.1596,-9.1596,-9.1596,-9.1596,-9.1596,-9.1596,-9.1596,-9.1596,-9.1596,-9.1596,-9.1596,-9.1596,-9.1596,-9.1596,-9.1596,-9.1596,-9.1596,-9.1596,-9.1596,-9.1596,-9.1596,-9.1471,-9.1156,-9.0839,-9.1007,-9.1664,-9.199,-9.2574,-9.3291,-9.3667,-9.3817,-9.3817,-9.3817,-9.3817,-9.3817,-9.3817,-9.2987,-9.1538,-9.1466,-8.9562,-8.6825,-8.6588,-8.5611,-8.4233,-8.418,-8.4097,-8.4097,0.0,0.0,0.0,0.0,0.0,0.0,0.0,0.0,0.0,0.0,-9.0581,-9.0581,-9.0581,-9.0581,-9.0581,0.0,0.0,0.0,0.0,0.0,0.0,0.0,0.0,0.0,-9.0581,-9.0581,-9.0581,-9.0581,-9.0581,-9.0581,-9.0581,-9.0581,-9.0581,-9.0581,-9.0581,-9.0581,-9.0581,-9.0581,-8.9654,-8.8184,-8.7233,-8.6781,0.0,0.0,0.0,0.0,-8.7289,-8.7289,0.0,0.0,0.0,0.0,0.0,0.0,0.0,0.0,-8.7289,-8.7289,-8.7289,0.0,-8.921,-8.9376,-9.037,-9.1364,0.0,-9.1596,-9.1596,-9.1596,-9.1596,-9.1596,-9.1596,-9.1596,-9.1596,-9.1596,-9.1596,-9.1596,-9.1596,-9.1596,-9.1596,-9.1596,-9.1596,-9.1596,-9.1596,-9.1596,-9.1596,-9.1596,-9.1596,-9.1596,-9.1596,-9.1596,-9.1596,-9.1437,-9.1408,-9.1486,-9.1664,-9.199,-9.2574,-9.3291,-9.3667,-9.3817,-9.3817,-9.3817,-9.3817,-9.3817,-9.3817,-9.3577,-9.3127,-9.193,-9.0957,-9.001,-8.7499,-8.6271,-8.5742,-8.4532,-8.4097,-8.4097,0.0,0.0,0.0,0.0,0.0,0.0,0.0,0.0,0.0,0.0,0.0,0.0,0.0,0.0,0.0,0.0,0.0,0.0,0.0,0.0,0.0,0.0,0.0,-9.0581,-9.0581,-9.0581,-9.0581,-9.0581,-9.0581,-9.0581,-9.0581,-9.0581,-9.0581,-9.0581,-9.0581,-9.0581,-9.0581,-9.0581,-8.9696,-8.8229,-8.7713,0.0,0.0,0.0,0.0,0.0,-8.7289,-8.7289,0.0,-8.7289,-8.7289,-8.7289,0.0,0.0,0.0,0.0,-8.7289,-8.7289,-8.7289,-8.8316,-8.9409,-8.9409,-9.0502,-9.1596,-9.1596,-9.1596,-9.1596,-9.1596,-9.1596,-9.1596,-9.1596,-9.1596,-9.1596,-9.1596,-9.1596,-9.1596,-9.1596,-9.1596,-9.1596,-9.1596,-9.1596,-9.1596,-9.1596,-9.1596,-9.1596,-9.1596,-9.1596,-9.1596,-9.1596,-9.1596,-9.1596,-9.1596,-9.1596,-9.1904,-9.2674,-9.2483,-9.307,-9.4218,-9.4102,-9.4125,-9.4125,-9.4125,-9.3955,-9.3817,-9.3817,-9.3817,-9.3748,-9.2846,-9.2073,-9.1176,-8.8655,-8.7217,-8.6271,-8.4696,-8.4097,-8.4126,0.0,0.0,0.0,0.0,0.0,0.0,0.0,0.0,0.0,0.0,0.0,0.0,0.0,0.0,0.0,0.0,0.0,0.0,0.0,0.0,0.0,0.0,-9.0581,-9.0581,-9.0581,-9.0581,-9.0581,-9.0581,-9.0581,-9.0581,-9.0581,-9.0581,-9.0581,-9.0581,-9.0581,-9.0581,-9.0581,-9.0461,-8.9815,-8.8792,-8.8251,0.0,0.0,0.0,0.0,0.0,0.0,0.0,0.0,-8.7289,-8.7289,-8.7289,-8.7289,0.0,0.0,0.0,0.0,0.0,-8.7289,-8.825,-8.9277,-8.9376,-9.0502,-9.1596,-9.1596,-9.1596,-9.1596,-9.1596,-9.1596,-9.1596,-9.1596,-9.1596,-9.1596,-9.1596,-9.1596,-9.1596,-9.1596,-9.1596,-9.1596,-9.1596,-9.1596,-9.1596,-9.1596,-9.1596,-9.1596,-9.1596,-9.1596,-9.1596,-9.1596,-9.1596,-9.1596,-9.1596,-9.1596,-9.2291,-9.3782,-9.3137,-9.3664,-9.5408,-9.4772,-9.4466,-9.4466,-9.4466,-9.433,-9.3955,-9.3955,-9.3955,-9.3886,-9.3886,-9.3057,-9.161,-8.9967,-8.8502,-8.7031,-8.5155,-8.448,-8.4567,0.0,0.0,0.0,0.0,0.0,0.0,0.0,0.0,0.0,0.0,0.0,0.0,0.0,0.0,0.0,0.0,0.0,0.0,0.0,0.0,0.0,-9.0581,-9.0581,-9.0581,-9.0581,-9.0581,-9.0581,-9.0581,-9.0581,-9.0581,-9.0581,-9.0581,-9.0581,-9.0581,-9.0581,-9.0581,-9.0541,-8.9654,-8.8721,-8.776,-8.7016,0.0,0.0,0.0,0.0,0.0,0.0,0.0,0.0,-8.7289,-8.7289,-8.7289,-8.7289,0.0,0.0,0.0,0.0,0.0,-8.7289,-8.7852,-8.8614,-8.9244,-9.0502,-9.1596,-9.1596,-9.1596,-9.1596,-9.1596,-9.1596,-9.1596,-9.1596,-9.1596,-9.1596,-9.1596,-9.1596,-9.1596,-9.1596,-9.1596,-9.1596,-9.1596,-9.1596,-9.1596,-9.1596,-9.1596,-9.1596,-9.1596,-9.1596,-9.1596,-9.1596,-9.1596,-9.1596,-9.1596,-9.1596,-9.2291,-9.3782,-9.3396,-9.3926,-9.5408,-9.5041,-9.484,-9.484,-9.484,-9.4772,-9.474,-9.474,-9.457,-9.433,-9.433,-9.3955,-9.3267,-9.1682,-9.0852,-9.0264,-8.7265,-8.6142,-8.608,0.0,0.0,0.0,0.0,0.0,0.0,0.0,0.0,0.0,0.0,0.0,0.0,0.0,0.0,0.0,0.0,0.0,0.0,0.0,0.0,-9.0581,-9.0581,-9.0581,-9.0581,-9.0581,-9.0581,-9.0581,-9.0581,-9.0581,-9.0581,-9.0581,-9.0581,-9.0581,-9.0581,-9.0581,-9.0304,-8.9773,-8.9314,-8.8477,-8.7423,0.0,0.0,0.0,0.0,0.0,0.0,0.0,0.0,0.0,0.0,-8.7289,-8.7289,-8.7289,0.0,0.0,0.0,0.0,0.0,-8.7289,-8.7786,-8.8382,-8.8747,-8.9608,-9.0403,-9.0403,-9.0734,-9.0999,-9.0999,-9.1297,-9.1596,-9.1596,-9.1596,-9.1596,-9.1596,-9.1596,-9.1596,-9.1596,-9.1596,-9.1596,-9.1596,-9.1596,-9.1596,-9.1596,-9.1596,-9.1596,-9.1596,-9.1596,-9.1596,-9.1596,-9.1596,-9.1596,-9.1596,-9.1596,-9.2291,-9.3782,-9.3654,-9.4285,-9.5706,-9.5342,-9.5142,-9.5142,-9.5142,-9.5076,-9.4874,-9.4874,-9.484,-9.4637,-9.4466,-9.4262,-9.3955,-9.2073,-9.1393,-9.0998,-8.7732,-8.6347,-8.6221,0.0,0.0,0.0,0.0,0.0,0.0,0.0,0.0,0.0,0.0,0.0,0.0,0.0,0.0,0.0,0.0,0.0,0.0,0.0,-9.0581,-9.0581,-9.0581,-9.0581,-9.0581,-9.0581,-9.0581,-9.0581,-9.0581,-9.0581,-9.0581,-9.0581,-9.0581,-9.0581,-9.0581,-9.0344,-8.994,-8.94,-8.889,-8.8264,-8.765,0.0,0.0,0.0,0.0,0.0,0.0,0.0,0.0,0.0,0.0,0.0,0.0,0.0,0.0,0.0,-8.7289,-8.7289,-8.7289,-8.7289,-8.7654,-8.8084,-8.8084,-8.8747,-8.9409,-8.9409,-8.9873,-9.0271,-9.0271,-9.0834,-9.1331,-9.1331,-9.1463,-9.1596,-9.1596,-9.1596,-9.1596,-9.1596,-9.1596,-9.1596,-9.1596,-9.1596,-9.1596,-9.1596,-9.1596,-9.1596,-9.1596,-9.1596,-9.1596,-9.1596,-9.1596,-9.1596,-9.1596,-9.1596,-9.2291,-9.3782,-9.3782,-9.4544,-9.6001,-9.5706,-9.5541,-9.5541,-9.5541,-9.5441,-9.5175,-9.5175,-9.5108,-9.5009,-9.4705,-9.4602,-9.4366,-9.2744,-9.1538,-9.0559,-8.8041,-8.6601,-8.6042,0.0,0.0,0.0,0.0,0.0,0.0,0.0,0.0,0.0,0.0,0.0,0.0,0.0,0.0,0.0,0.0,0.0,0.0,0.0,-9.0581,-9.0581,-9.0581,-9.0581,-9.0581,-9.0581,-9.0581,-9.0581,-9.0581,-9.0581,-9.0581,-9.0581,-9.0581,-9.0581,-9.0541,-8.9612,-8.969,-9.0376,-8.8298,-8.7923,-8.8632,-8.7863,0.0,0.0,0.0,0.0,0.0,0.0,0.0,0.0,0.0,0.0,0.0,0.0,0.0,-8.7289,-8.7289,-8.7289,-8.7289,-8.7289,-8.7322,-8.7355,-8.7355,-8.8382,-8.9409,-8.9409,-8.9442,-8.9509,-8.9509,-9.0072,-9.0602,-9.0602,-9.1132,-9.1596,-9.1596,-9.1596,-9.1596,-9.1596,-9.1596,-9.1596,-9.1596,-9.1596,-9.1596,-9.1596,-9.1596,-9.1596,-9.1596,-9.1596,-9.1596,-9.1596,-9.1596,-9.1596,-9.1596,-9.1596,-9.2291,-9.3782,-9.3782,-9.4544,-9.6001,-9.6001,-9.5936,-9.5936,-9.5936,-9.5936,-9.5936,-9.5936,-9.5706,-9.5342,-9.5342,-9.5142,-9.484,-9.4366,-9.2144,-8.9141,-8.8914,-8.7616,-8.6042,0.0,0.0,0.0,0.0,0.0,0.0,0.0,0.0,0.0,0.0,0.0,0.0,0.0,0.0,0.0,0.0,0.0,0.0,0.0,-9.0581,-9.0581,-9.0581,-9.0581,-9.0581,-9.0581,-9.0581,-9.0581,-9.0581,-9.0581,-9.0581,-9.0581,-9.0581,-9.0263,-8.969,-8.9898,-8.9478,-8.8545,-8.834,-8.825,-8.8257,-8.7939,-8.7812,0.0,0.0,0.0,0.0,0.0,0.0,0.0,0.0,-8.7289,-8.7289,-8.7289,-8.7289,-8.7289,-8.7289,-8.7289,-8.7289,-8.7289,-8.7289,-8.7289,-8.7289,-8.7687,-8.8084,-8.8084,-8.8415,-8.8714,-8.8714,-8.931,-8.984,-8.984,-9.0039,-9.037,-9.0834,-9.0933,-9.1066,-9.1529,-9.1596,-9.1596,-9.1596,-9.1596,-9.1596,-9.1596,-9.1596,-9.1596,-9.1596,-9.1596,-9.1596,-9.1596,-9.1596,-9.1596,-9.1596,-9.1596,-9.2291,-9.3782,-9.3782,-9.4544,-9.6001,-9.6001,-9.6001,-9.6001,-9.6001,-9.6001,-9.6001,-9.6001,-9.5936,-9.5772,-9.5475,-9.5342,-9.5142,-9.484,-9.3272,-9.1217,-9.1366,-8.9928,-8.7922,0.0,0.0,0.0,0.0,0.0,0.0,0.0,0.0,0.0,0.0,0.0,0.0,0.0,0.0,0.0,0.0,0.0,0.0,-9.0581,-9.0581,-9.0581,-9.0581,-9.0581,-9.0581,-9.0581,-9.0581,-9.0581,-9.0581,-9.0581,-9.0581,-9.0581,-9.0263,-8.994,-8.9569,-8.9564,-8.9073,-8.8238,-8.843,-8.8536,-8.845,-8.8392,-8.8329,0.0,0.0,0.0,0.0,0.0,0.0,0.0,0.0,-8.7289,-8.7289,-8.7289,-8.7289,-8.7289,-8.7289,-8.7289,-8.7289,-8.7289,-8.7289,-8.7289,-8.7289,-8.7289,-8.7289,-8.7289,-8.7654,-8.7985,-8.7985,-8.8548,-8.9144,-8.9376,-8.9409,-8.9575,-9.0105,-9.0171,-9.0337,-9.0834,-9.1099,-9.1231,-9.1231,-9.143,-9.1596,-9.1596,-9.1596,-9.1596,-9.1596,-9.1596,-9.1596,-9.1596,-9.1596,-9.1596,-9.1596,-9.1596,-9.2291,-9.3782,-9.3782,-9.4544,-9.6001,-9.6001,-9.6001,-9.6001,-9.6001,-9.6001,-9.6001,-9.6001,-9.6001,-9.6001,-9.5706,-9.5475,-9.5342,-9.5142,-9.4031,-9.257,-9.2845,-9.1669,-8.9797,0.0,0.0,0.0,0.0,0.0,0.0,0.0,0.0,0.0,0.0,0.0,0.0,0.0,0.0,0.0,0.0,0.0,0.0,-9.0581,-9.0581,-9.0581,-9.0581,-9.0581,-9.0581,-9.0581,-9.0581,-9.0581,-9.0581,-9.0581,-9.0581,-9.0581,-8.9569,-8.9612,-9.0497,-8.8333,-8.8396,-9.009,-8.8656,-8.8579,-8.9483,-8.9177,-8.8767,-8.8194,0.0,0.0,0.0,0.0,0.0,0.0,0.0,-8.7289,-8.7289,-8.7289,-8.7289,-8.7289,-8.7289,-8.7289,-8.7289,-8.7289,-8.7289,-8.7289,-8.7289,-8.7289,-8.7289,-8.7289,-8.7289,-8.7289,-8.7289,-8.7819,-8.8515,-8.9277,-8.9409,-8.9409,-8.9409,-8.9409,-8.9409,-8.9409,-9.0039,-9.0502,-9.0502,-9.1132,-9.1562,-9.1562,-9.1596,-9.1596,-9.1596,-9.1596,-9.1596,-9.1596,-9.1596,-9.1596,-9.1596,-9.1596,-9.2291,-9.3782,-9.3782,-9.4544,-9.6001,-9.6001,-9.6001,-9.6001,-9.6001,-9.6001,-9.6001,-9.6001,-9.6001,-9.6001,-9.6001,-9.5772,-9.5408,-9.5408,-9.4235,-9.257,-9.2949,-9.2415,-9.1331,0.0,0.0,0.0,0.0,0.0,0.0,0.0,0.0,0.0,0.0,0.0,0.0,0.0,0.0,0.0,0.0,0.0,0.0,-9.0581,-9.0581,-9.0581,-9.0581,-9.0581,-9.0581,-9.0581,-9.0581,-9.0581,-9.0581,-9.0581,-9.0581,-9.0581,-9.0263,-9.0264,-9.0387,-9.043,-9.0216,-8.9792,-9.0044,-8.9829,-8.9232,-8.9138,-8.8847,-8.8506,0.0,0.0,0.0,0.0,0.0,0.0,0.0,0.0,0.0,-8.7289,-8.7289,-8.7289,-8.7289,-8.7289,-8.7289,-8.7289,-8.7289,-8.7289,-8.7289,-8.7289,-8.7289,-8.7289,-8.7289,-8.7289,-8.7289,-8.7455,-8.7654,-8.7885,-8.7919,-8.8084,-8.8548,-8.8647,-8.8813,-8.9343,-8.9608,-8.9741,-8.9741,-9.0403,-9.0834,-9.0834,-9.1297,-9.1596,-9.1596,-9.1596,-9.1596,-9.1596,-9.1596,-9.1596,-9.1596,-9.1596,-9.2291,-9.3782,-9.3782,-9.4544,-9.6001,-9.6001,-9.6001,-9.6001,-9.6001,-9.6001,-9.6001,-9.6001,-9.6001,-9.6001,-9.6001,-9.5936,-9.5772,-9.5772,-9.5475,-9.504,-9.5944,-9.5316,-9.3912,0.0,0.0,0.0,0.0,0.0,0.0,0.0,0.0,0.0,0.0,-9.0581,-9.0581,0.0,0.0,0.0,-9.0581,-9.0581,0.0,-9.0581,-9.0581,-9.0581,-9.0581,-9.0581,-9.0581,-9.0581,-9.0581,-9.0581,-9.0581,-9.0581,-9.0581,-9.0618,-9.0506,-9.0618,-9.091,-9.0918,-9.0658,-9.0186,-9.026,-8.9819,-8.9072,-8.9072,-8.8903,-8.862,0.0,0.0,0.0,0.0,0.0,0.0,0.0,0.0,0.0,-8.7289,-8.7289,-8.7289,-8.7289,-8.7289,-8.7289,-8.7289,-8.7289,-8.7289,-8.7289,-8.7289,-8.7289,-8.7289,-8.7289,-8.7289,-8.7289,-8.7289,-8.7289,-8.7289,-8.7289,-8.7422,-8.7852,-8.7885,-8.8051,-8.8515,-8.8813,-8.8979,-8.8979,-8.9641,-9.0204,-9.0502,-9.09,-9.1264,-9.1562,-9.1596,-9.1596,-9.1596,-9.1596,-9.1596,-9.1596,-9.1596,-9.2291,-9.3782,-9.3782,-9.4544,-9.6001,-9.6001,-9.6001,-9.6001,-9.6001,-9.6001,-9.6001,-9.6001,-9.6001,-9.6001,-9.6001,-9.6001,-9.6001,-9.6001,-9.6001,-9.6102,-9.7223,-9.7004,-9.5987,0.0,0.0,-9.0581,-9.0581,0.0,0.0,0.0,0.0,-9.0581,-9.0581,-9.0581,-9.0581,0.0,0.0,0.0,-9.0581,-9.0581,-9.0581,0.0,-9.0581,-9.0581,-9.0581,-9.0581,-9.0581,-9.0581,-9.0581,-9.0581,-9.0581,-9.0581,-9.0654,-9.0726,-9.043,-9.0903,-9.1944,-9.0415,-9.0288,-9.1137,-8.9796,-8.9184,-8.9072,-8.9072,-8.8903,-8.8677,-8.8677,0.0,0.0,0.0,0.0,0.0,0.0,0.0,0.0,-8.7289,-8.7289,-8.7289,-8.7289,-8.7289,-8.7289,-8.7289,-8.7289,-8.7289,-8.7289,-8.7289,-8.7289,-8.7289,-8.7289,-8.7289,-8.7289,-8.7289,-8.7289,-8.7289,-8.7289,-8.7289,-8.7289,-8.7289,-8.7289,-8.7289,-8.7819,-8.8217,-8.8217,-8.8879,-8.9575,-9.0237,-9.0436,-9.0801,-9.143,-9.1529,-9.1596,-9.1596,-9.1596,-9.1596,-9.1596,-9.1596,-9.2291,-9.3782,-9.3782,-9.4544,-9.6001,-9.6001,-9.6001,-9.6001,-9.6001,-9.6001,-9.6001,-9.6001,-9.6001,-9.6001,-9.6001,-9.6001,-9.6001,-9.6001,-9.6001,-9.6102,-9.7223,-9.7684,-9.7576,0.0,0.0,-9.0581,-9.0581,0.0,0.0,0.0,0.0,-9.0581,-9.0581,-9.0581,-9.0581,-9.0581,-9.0581,0.0,-9.0581,-9.0581,-9.0581,-9.0581,-9.0581,-9.0581,-9.0581,-9.0581,-9.0581,-9.0581,-9.0581,-9.0581,-9.0581,-9.0581,-9.0907,-9.1519,-9.0638,-9.1477,-9.3613,-9.167,-9.1264,-9.1958,-9.0815,-8.9887,-8.9072,-8.9072,-8.9072,-8.9016,-8.9016,-8.862,0.0,0.0,0.0,0.0,0.0,0.0,0.0,-8.7289,-8.7289,-8.7289,-8.7289,-8.7289,-8.7289,-8.7289,-8.7289,-8.7289,-8.7289,-8.7289,-8.7289,-8.7289,-8.7289,-8.7289,-8.7289,-8.7289,-8.7289,-8.7289,-8.7289,-8.7289,-8.7289,-8.7289,-8.7289,-8.7289,-8.7389,-8.7488,-8.7488,-8.8117,-8.8614,-8.878,-8.984,-9.0602,-9.0734,-9.1264,-9.1596,-9.1596,-9.1596,-9.1596,-9.1596,-9.1596,-9.2291,-9.3782,-9.3782,-9.4544,-9.6001,-9.6001,-9.6001,-9.6001,-9.6001,-9.6001,-9.6001,-9.6001,-9.6001,-9.6001,-9.6001,-9.6001,-9.6001,-9.6001,-9.6001,-9.6167,-9.7558,-9.8088,-9.8017,0.0,0.0,0.0,0.0,0.0,0.0,0.0,0.0,-9.0581,-9.0581,-9.0581,-9.0581,-9.0581,-9.0581,0.0,0.0,-9.0581,-9.0581,-9.0581,-9.0581,-9.0581,-9.0581,-9.0581,-9.0799,-9.1161,-9.1161,-9.1378,-9.174,-9.174,-9.1776,-9.1813,-9.2004,-9.2875,-9.4156,-9.2895,-9.2351,-9.2253,-9.1143,-9.0104,-8.9072,-8.9072,-8.9072,-8.9072,-8.9072,-8.8903,-8.8653,-8.862,0.0,0.0,0.0,0.0,0.0,0.0,0.0,-8.7289,-8.7289,-8.7289,-8.7289,-8.7289,-8.7289,-8.7289,-8.7289,-8.7289,-8.7289,-8.7289,-8.7289,-8.7289,-8.7289,-8.7289,-8.7289,-8.7289,-8.7289,-8.7289,-8.7289,-8.7289,-8.7289,-8.7289,-8.7289,-8.7289,-8.7289,-8.7587,-8.7952,-8.8283,-8.9343,-9.0138,-9.0502,-9.1165,-9.1596,-9.1596,-9.1596,-9.1596,-9.1596,-9.1596,-9.2291,-9.3782,-9.3782,-9.4544,-9.6001,-9.6001,-9.6001,-9.6001,-9.6001,-9.6001,-9.6001,-9.6001,-9.6001,-9.6001,-9.6001,-9.6001,-9.6001,-9.6001,-9.6001,-9.62,-9.7625,-9.8188,-9.8219,0.0,0.0,0.0,0.0,0.0,0.0,0.0,0.0,0.0,-9.0581,-9.0581,-9.0581,-9.0581,-9.0581,-9.0654,0.0,0.0,0.0,-9.1016,-9.1016,-9.1016,-9.1016,-9.1016,-9.1342,-9.1994,-9.203,-9.232,-9.3008,-9.3153,-9.2863,-9.2247,-9.3385,-9.4108,-9.4337,-9.3622,-9.2895,-9.2168,-9.0936,-8.9887,-8.9072,-8.9072,-8.9072,-8.9072,-8.9072,-8.9072,-8.8959,-8.8733,-8.8563,-8.8448,-8.7962,0.0,0.0,0.0,0.0,-8.7408,-8.7408,-8.7349,-8.7289,-8.7289,-8.7289,-8.7289,-8.7289,-8.7289,-8.7289,-8.7289,-8.7289,-8.7289,-8.7289,-8.7289,-8.7289,-8.7289,-8.7289,-8.7289,-8.7289,-8.7289,-8.7289,-8.7289,-8.7289,-8.7289,-8.7289,-8.7289,-8.7488,-8.8084,-8.8912,-8.9674,-9.0271,-9.1099,-9.1596,-9.1596,-9.1596,-9.1596,-9.1596,-9.1596,-9.2291,-9.3782,-9.3782,-9.4544,-9.6001,-9.6001,-9.6001,-9.6001,-9.6001,-9.6001,-9.6001,-9.6001,-9.6001,-9.6001,-9.6001,-9.6001,-9.6001,-9.6001,-9.6001,-9.62,-9.7625,-9.8188,-9.8387,0.0,0.0,0.0,0.0,0.0,0.0,0.0,0.0,0.0,0.0,-9.0581,-9.0581,-9.0581,-9.0581,-9.0871,-9.1595,-9.1632,-9.1958,-9.2646,0.0,0.0,-9.2682,-9.2682,-9.2754,-9.2863,-9.2863,-9.2899,-9.3008,-9.3696,-9.3986,-9.3836,-9.3179,-9.3689,-9.5133,-9.2343,-9.1518,-9.2084,-9.0124,-8.924,-8.9072,-8.9072,-8.9072,-8.9072,-8.9072,-8.8903,-8.8677,-8.862,-8.8448,-8.8252,-8.8136,-8.8136,0.0,0.0,0.0,-8.767,-8.767,-8.7493,-8.7289,-8.7289,-8.7289,-8.7289,-8.7289,-8.7289,-8.7289,-8.7289,-8.7289,-8.7289,-8.7289,-8.7289,-8.7289,-8.7289,-8.7289,-8.7289,-8.7289,-8.7289,-8.7289,-8.7289,-8.7289,-8.7289,-8.7289,-8.7289,-8.7322,-8.7389,-8.8647,-8.9442,-8.9542,-9.0801,-9.1596,-9.1596,-9.1596,-9.1596,-9.1596,-9.1596,-9.2291,-9.3782,-9.3782,-9.4544,-9.6001,-9.6001,-9.6001,-9.6001,-9.6001,-9.6001,-9.6001,-9.6001,-9.6001,-9.6001,-9.6001,-9.6001,-9.6001,-9.6001,-9.6001,-9.62,-9.7625,-9.8188,-9.8387,0.0,0.0,0.0,0.0,0.0,0.0,0.0,0.0,0.0,0.0,0.0,-9.0762,-9.1233,-9.1269,-9.1595,-9.2392,-9.2465,-9.261,-9.2972,-9.3008,0.0,-9.3008,-9.3008,-9.3225,-9.366,-9.3696,-9.3913,-9.4348,-9.471,-9.4855,-9.4855,-9.4359,-9.4619,-9.532,-9.332,-9.2365,-9.2168,-9.0622,-8.9648,-8.9072,-8.9072,-8.9072,-8.9072,-8.9072,-8.9016,-8.8903,-8.8903,-8.879,-8.871,-8.8506,-8.8391,-8.8391,-8.8252,0.0,0.0,0.0,-8.7493,-8.7289,-8.7289,-8.7289,-8.7289,-8.7289,-8.7289,-8.7289,-8.7289,-8.7289,-8.7289,-8.7289,-8.7289,-8.7289,-8.7289,-8.7289,-8.7289,-8.7289,-8.7289,-8.7289,-8.7289,-8.7289,-8.7289,-8.7289,-8.7289,-8.7289,-8.7289,-8.8184,-8.8979,-8.9376,-9.0403,-9.1165,-9.1562,-9.1596,-9.1596,-9.1596,-9.1596,-9.2093,-9.3153,-9.3583,-9.4544,-9.6001,-9.6001,-9.6001,-9.6001,-9.6001,-9.6001,-9.6001,-9.6001,-9.6001,-9.6001,-9.6001,-9.6001,-9.6001,-9.6001,-9.6001,-9.62,-9.7625,-9.8188,-9.8387,0.0,0.0,0.0,0.0,0.0,0.0,0.0,0.0,0.0,0.0,0.0,-9.1197,-9.203,0.0,0.0,0.0,-9.3298,-9.3406,-9.3587,0.0,0.0,0.0,-9.3624,-9.3913,-9.4493,-9.4493,-9.4783,-9.5398,-9.5398,-9.5398,-9.5398,-9.5398,-9.5235,-9.4943,-9.3862,-9.2991,-9.2168,-9.0832,-8.9833,-8.9072,-8.9072,-8.9072,-8.9072,-8.9072,-8.9072,-8.9072,-8.9072,-8.9072,-8.9072,-8.879,-8.8733,-8.8677,-8.8425,-8.8078,0.0,0.0,0.0,-8.7289,-8.7289,-8.7289,-8.7289,-8.7289,-8.7289,-8.7289,-8.7289,-8.7289,-8.7289,-8.7289,-8.7289,-8.7289,-8.7289,-8.7289,-8.7289,-8.7289,-8.7289,-8.7289,-8.7289,-8.7289,-8.7289,-8.7289,-8.7289,-8.7289,-8.7289,-8.7919,-8.8614,-8.9343,-9.0105,-9.0834,-9.1529,-9.1596,-9.1596,-9.1596,-9.1596,-9.1927,-9.2689,-9.3616,-9.4743,-9.6001,-9.6001,-9.6001,-9.6001,-9.6001,-9.6001,-9.6001,-9.6001,-9.6001,-9.6001,-9.6001,-9.6001,-9.6001,-9.6001,-9.6001,-9.62,-9.7625,-9.8188,-9.8387,0.0,0.0,0.0,0.0,0.0,0.0,0.0,0.0,0.0,0.0,0.0,-9.203,-9.2863,-9.2935,-9.3261,-9.4094,-9.4167,-9.4457,-9.5217,-9.5253,0.0,0.0,0.0,0.0,-9.5326,-9.5326,-9.5362,-9.5398,-9.5398,-9.5398,-9.5398,-9.5398,-9.4857,-9.3817,-9.28,-9.2316,-9.2049,-9.007,-8.9128,-8.9072,-8.9072,-8.9072,-8.9072,-8.9072,-8.9072,-8.9072,-8.9072,-8.9072,-8.9072,-8.9072,-8.9072,-8.9016,-8.8677,-8.8391,-8.8078,0.0,0.0,0.0,-8.7289,-8.7289,-8.7289,-8.7289,-8.7289,-8.7289,-8.7289,-8.7289,-8.7289,-8.7289,-8.7289,-8.7289,-8.7289,-8.7289,-8.7289,-8.7289,-8.7289,-8.7289,-8.7289,-8.7289,-8.7289,-8.7289,-8.7289,-8.7289,-8.7289,-8.7919,-8.8614,-8.9343,-9.0105,-9.0834,-9.1529,-9.1596,-9.1596,-9.1596,-9.1596,-9.1927,-9.2689,-9.4113,-9.524,-9.6001,-9.6001,-9.6001,-9.6001,-9.6001,-9.6001,-9.6001,-9.6001,-9.6001,-9.6001,-9.6001,-9.6001,-9.6001,-9.6001,-9.6001,-9.62,-9.7625,-9.8188,-9.8387,0.0,0.0,0.0,0.0,0.0,0.0,0.0,0.0,0.0,0.0,0.0,0.0,0.0,-9.3768,-9.4094,-9.4891,-9.4964,-9.5072,-9.5362,-9.5398,0.0,0.0,0.0,0.0,-9.5398,-9.5398,-9.5398,-9.5398,-9.5398,-9.5398,-9.5398,-9.5398,-9.5193,-9.4778,-9.3725,-9.2511,-9.1212,-9.041,-8.9724,-8.9072,-8.9072,-8.9072,-8.9072,-8.9072,-8.9072,-8.9072,-8.9072,-8.9072,-8.9072,-8.9072,-8.9072,-8.9072,-8.8959,-8.8733,-8.8391,-8.8136,-8.7787,-8.7552,-8.7552,-8.7434,-8.7289,-8.7289,-8.7289,-8.7289,-8.7289,-8.7289,-8.7289,-8.7289,-8.7289,-8.7289,-8.7289,-8.7289,-8.7289,-8.7289,-8.7289,-8.7289,-8.7289,-8.7289,-8.7289,-8.7289,-8.7289,-8.7289,-8.7289,-8.7488,-8.815,-8.931,-8.9674,-9.0337,-9.1529,-9.1596,-9.1596,-9.1596,-9.1596,-9.2159,-9.3384,-9.3914,-9.4809,-9.6001,-9.6001,-9.6001,-9.6001,-9.6001,-9.6001,-9.6001,-9.6001,-9.6001,-9.6001,-9.6001,-9.6001,-9.6001,-9.6001,-9.6001,-9.62,-9.7625,-9.8188,-9.8387,0.0,0.0,0.0,0.0,0.0,0.0,0.0,0.0,-9.2501,-9.3298,0.0,0.0,0.0,0.0,-9.4819,-9.5326,-9.5398,-9.5398,-9.5398,-9.5398,-9.5398,-9.5398,0.0,0.0,-9.5398,-9.5145,-9.5109,-9.5398,-9.5109,-9.5145,-9.5398,-9.5398,-9.5193,-9.4857,-9.4479,-9.3367,-9.167,-9.0622,-9.0177,-9.0124,-8.9779,-8.9648,-8.9648,-8.9648,-8.9428,-8.9072,-8.9072,-8.9072,-8.9072,-8.9072,-8.9072,-8.9072,-8.8959,-8.8733,-8.8391,-8.8136,-8.7846,-8.767,-8.7611,-8.7434,-8.7289,-8.7289,-8.7289,-8.7289,-8.7289,-8.7289,-8.7289,-8.7289,-8.7289,-8.7289,-8.7289,-8.7289,-8.7289,-8.7289,-8.7289,-8.7289,-8.7289,-8.7289,-8.7289,-8.7289,-8.7289,-8.7289,-8.7289,-8.7488,-8.8117,-8.931,-8.9641,-9.0304,-9.1529,-9.1596,-9.1596,-9.1596,-9.1596,-9.2291,-9.3782,-9.3782,-9.4544,-9.6001,-9.6001,-9.6001,-9.6001,-9.6001,-9.6001,-9.6001,-9.6001,-9.6001,-9.6001,-9.6001,-9.6001,-9.6001,-9.6001,-9.6167,-9.6532,-9.7724,-9.832,-9.8718,0.0,0.0,-9.0654,-9.0654,0.0,0.0,0.0,0.0,-9.3334,-9.4131,0.0,0.0,0.0,0.0,0.0,-9.5398,-9.5398,-9.5398,-9.5398,-9.5398,-9.5398,-9.5398,0.0,0.0,-9.5398,-9.4638,-9.4638,-9.5398,-9.4638,-9.4638,-9.5398,-9.5398,-9.4857,-9.3908,-9.49,-9.4778,-9.3679,-9.0569,-9.0391,-9.2154,-9.1143,-9.0727,-9.0674,-9.0674,-9.005,-8.9072,-8.9072,-8.9072,-8.9072,-8.9072,-8.9072,-8.9016,-8.8733,-8.8448,-8.8136,-8.7846,-8.7728,-8.767,0.0,0.0,0.0,-8.7349,-8.7349,-8.7349,-8.7289,-8.7289,-8.7289,-8.7289,-8.7289,-8.7289,-8.7289,-8.7289,-8.7289,-8.7289,-8.7289,-8.7289,-8.7289,-8.7289,-8.7289,-8.7289,-8.7289,-8.7289,-8.7289,-8.7919,-8.8614,-8.9343,-9.0105,-9.0834,-9.1529,-9.1596,-9.1596,-9.1596,-9.1596,-9.2291,-9.3782,-9.3782,-9.4544,-9.6001,-9.6001,-9.6001,-9.6001,-9.6001,-9.6001,-9.6001,-9.6001,-9.6001,-9.6001,-9.6001,-9.6001,-9.6001,-9.6001,-9.6465,-9.7194,-9.7923,-9.8652,-9.938,0.0,0.0,-9.1487,-9.1487,-9.2139,-9.2863,-9.3479,-9.3732,-9.4167,0.0,0.0,0.0,-9.5362,-9.5398,-9.5398,-9.5398,-9.5398,-9.5398,-9.5398,-9.5398,-9.5398,-9.5398,-9.5398,-9.5398,-9.5398,-9.5181,-9.5181,-9.5398,-9.5181,-9.5181,-9.5398,-9.5398,-9.5235,-9.4943,-9.4471,-9.4515,-9.4857,-9.3226,-9.1935,-9.1195,-9.1654,-9.14,-9.0674,-9.0674,-9.005,-8.9072,-8.9072,-8.9072,-8.9072,-8.9072,-8.9072,-8.9072,-8.9016,-8.8903,-8.879,-8.8733,-8.8563,-8.8334,-8.8276,0.0,0.0,0.0,0.0,0.0,-8.7315,-8.7289,-8.7289,-8.7289,-8.7289,-8.7289,-8.7289,-8.7289,-8.7289,-8.7289,-8.7289,-8.7289,-8.7289,-8.7289,-8.7289,-8.7289,-8.7289,-8.7289,-8.7289,-8.7919,-8.8614,-8.9343,-9.0105,-9.0834,-9.1529,-9.1596,-9.1596,-9.1596,-9.1596,-9.2291,-9.3782,-9.3782,-9.4544,-9.6001,-9.6001,-9.6001,-9.6001,-9.6001,-9.6001,-9.6001,-9.6001,-9.6001,-9.6001,-9.6001,-9.6001,-9.6001,-9.6001,-9.6465,-9.7194,-9.7923,-9.8652,-9.938,-9.1016,-9.1487,-9.1921,-9.2247,-9.2972,-9.366,-9.4131,-9.4493,-9.4855,0.0,0.0,0.0,-9.5398,-9.5398,-9.5398,-9.5398,-9.5398,-9.5398,-9.5398,-9.5398,-9.5398,-9.5398,-9.5398,-9.5398,-9.5398,-9.5072,-9.5036,-9.5398,-9.5036,-9.5072,-9.5398,-9.5398,-9.5398,-9.5362,-9.4734,-9.4559,-9.4734,-9.4559,-9.3771,-9.2656,-9.2365,-9.2168,-9.197,-9.1518,-9.0988,-9.0391,-8.9942,-8.9779,-8.9669,-8.924,-8.9072,-8.9072,-8.9072,-8.9072,-8.9072,-8.8903,-8.8733,-8.8563,-8.8448,-8.831,-8.8136,-8.7787,0.0,0.0,-8.7375,-8.7289,-8.7289,-8.7289,-8.7289,-8.7289,-8.7289,-8.7289,-8.7289,-8.7289,-8.7289,-8.7289,-8.7289,-8.7289,-8.7289,-8.7289,-8.7289,-8.7289,-8.7289,-8.8184,-8.8945,-8.9376,-9.037,-9.1132,-9.1562,-9.1596,-9.1596,-9.1596,-9.1596,-9.2291,-9.3782,-9.3782,-9.4544,-9.6001,-9.6001,-9.6001,-9.6001,-9.6001,-9.6001,-9.6001,-9.6001,-9.6001,-9.6001,-9.6001,-9.6001,-9.6001,-9.6001,-9.6631,-9.7592,-9.8022,-9.8817,-9.9778,0.0,-9.203,-9.2284,-9.3008,-9.3805,-9.4348,-9.4348,-9.4927,-9.5398,0.0,-9.5398,-9.5398,-9.5398,-9.5398,-9.5398,-9.5398,-9.5398,-9.5398,-9.5398,-9.5398,-9.5398,-9.5398,-9.5398,-9.5398,-9.5398,-9.471,-9.4674,-9.5398,-9.4674,-9.471,-9.5398,-9.5398,-9.5398,-9.5398,-9.5398,-9.49,-9.4043,-9.4986,-9.5398,-9.5235,-9.3402,-9.3121,-9.3725,-9.2835,-9.24,-9.2154,-9.1092,-9.0674,-9.0551,-8.9428,-8.9072,-8.9072,-8.9072,-8.9072,-8.9016,-8.8733,-8.8677,-8.862,-8.8367,-8.8252,-8.8194,-8.7846,-8.7728,0.0,-8.7375,-8.7289,-8.7289,-8.7289,-8.7289,-8.7289,-8.7289,-8.7289,-8.7289,-8.7289,-8.7289,-8.7289,-8.7289,-8.7289,-8.7289,-8.7289,-8.7289,-8.7322,-8.7389,-8.8614,-8.9442,-8.9542,-9.0801,-9.1596,-9.1596,-9.1596,-9.1596,-9.1596,-9.1596,-9.2291,-9.3782,-9.3782,-9.4544,-9.6001,-9.6001,-9.6001,-9.6001,-9.6001,-9.6001,-9.6001,-9.6001,-9.6001,-9.6001,-9.6001,-9.6001,-9.6001,-9.6001,-9.6896,-9.8188,-9.8188,-9.9082,-10.0308,-9.261,-9.3298,-9.3805,-9.395,-9.4638,-9.5145,-9.5145,-9.529,-9.5398,-9.5398,-9.5398,-9.5398,-9.5398,-9.5398,-9.5398,-9.5398,-9.5398,-9.5398,-9.5398,-9.5398,-9.5398,-9.5398,-9.5398,-9.5398,-9.5398,-9.5253,-9.5217,-9.5398,-9.5217,-9.5253,-9.5398,-9.5398,-9.5398,-9.5398,-9.5398,-9.5278,-9.5072,-9.532,-9.5398,-9.5362,-9.4943,-9.4391,-9.3771,-9.3587,-9.2991,-9.2154,-9.1092,-9.0674,-9.0551,-8.9428,-8.9072,-8.9072,-8.9072,-8.9072,-8.9072,-8.9016,-8.9016,-8.8959,-8.8903,-8.8733,-8.8448,-8.8194,-8.7904,0.0,-8.7375,-8.7289,-8.7289,-8.7289,-8.7289,-8.7289,-8.7289,-8.7289,-8.7289,-8.7289,-8.7289,-8.7289,-8.7289,-8.7289,-8.7289,-8.7289,-8.7289,-8.7488,-8.8051,-8.8912,-8.9674,-9.0271,-9.1099,-9.1596,-9.1596,-9.1596,-9.1596,-9.1596,-9.1596,-9.2291,-9.3782,-9.3782,-9.4544,-9.6001,-9.6001,-9.6001,-9.6001,-9.6001,-9.6001,-9.6001,-9.6001,-9.6001,-9.6001,-9.6001,-9.6001,-9.6001,-9.6001,-9.6896,-9.8188,-9.8188,-9.9082,-10.0308,-9.3443,-9.395,-9.4348,-9.4746,-9.5109,-9.5398,-9.5398,-9.5398,-9.5398,-9.5398,-9.5398,-9.5398,-9.5398,-9.5398,-9.5398,-9.5398,-9.5398,-9.5398,-9.5398,-9.5398,-9.5398,-9.5398,-9.5398,-9.5398,-9.5398,-9.5398,-9.5398,-9.5398,-9.5398,-9.5398,-9.5398,-9.5398,-9.5398,-9.5398,-9.5398,-9.5398,-9.5398,-9.5398,-9.5398,-9.532,-9.4857,-9.4603,-9.4559,-9.3998,-9.3817,-9.3679,-9.2656,-9.192,-9.1349,-9.0231,-8.9887,-8.9779,-8.9295,-8.9072,-8.9072,-8.9072,-8.9072,-8.9072,-8.9072,-8.8847,-8.8563,-8.8252,-8.7962,0.0,0.0,-8.7289,-8.7289,-8.7289,-8.7289,-8.7289,-8.7289,-8.7289,-8.7289,-8.7289,-8.7289,-8.7289,-8.7289,-8.7289,-8.7289,-8.7289,-8.7587,-8.7919,-8.8283,-8.931,-9.0271,-9.0999,-9.1397,-9.1596,-9.1596,-9.1596,-9.1596,-9.1596,-9.1596,-9.2291,-9.3782,-9.3782,-9.4544,-9.6001,-9.6001,-9.6001,-9.6001,-9.6001,-9.6001,-9.6001,-9.6001,-9.6001,-9.6001,-9.6001,-9.6001,-9.6035,-9.6399,-9.7227,-9.8221,-9.8585,-9.9414,-10.0308,-9.4312,-9.4457,-9.4638,-9.529,-9.5398,-9.5398,-9.5398,-9.5398,-9.5398,-9.5398,-9.5398,-9.5398,-9.5398,-9.5398,-9.5398,-9.5398,-9.5398,-9.5398,-9.5398,-9.5398,-9.5398,-9.5398,-9.5398,-9.5398,-9.5398,-9.5398,-9.5398,-9.5398,-9.5398,-9.5398,-9.5398,-9.5398,-9.5398,-9.5398,-9.5398,-9.5398,-9.5398,-9.5398,-9.5398,-9.532,-9.4471,-9.4647,-9.5278,-9.4435,-9.4647,-9.5278,-9.4213,-9.3132,-9.2203,-9.1298,-9.0988,-9.0832,-8.9724,-8.9373,-8.9373,-8.9184,-8.9072,-8.9072,-8.9072,-8.8847,-8.8563,-8.8367,-8.7962,-8.767,0.0,0.0,0.0,-8.7289,-8.7289,-8.7289,-8.7289,-8.7289,-8.7223,-8.709,-8.719,-8.7223,-8.709,-8.7289,-8.7422,-8.7289,-8.7885,-8.8382,-8.8515,-8.9873,-9.0966,-9.1529,-9.1596,-9.1596,-9.1596,-9.1596,-9.1596,-9.1596,-9.1596,-9.2291,-9.3782,-9.3782,-9.4544,-9.6001,-9.6001,-9.6001,-9.6001,-9.6001,-9.6001,-9.6001,-9.6001,-9.6001,-9.6001,-9.6001,-9.6001,-9.6068,-9.683,-9.7558,-9.8254,-9.9016,-9.9712,-10.0308,-9.5253,-9.5253,-9.529,-9.5362,-9.5398,-9.5398,-9.5398,-9.5398,-9.5398,-9.5398,-9.5398,-9.5398,-9.5398,-9.5398,-9.5398,-9.5398,-9.5398,-9.5398,-9.5398,-9.5398,-9.5398,-9.5398,-9.5398,-9.5398,-9.5398,-9.5398,-9.5398,-9.5398,-9.5398,-9.5398,-9.5398,-9.5398,-9.5398,-9.5398,-9.5398,-9.5398,-9.5398,-9.5398,-9.5398,-9.5398,-9.5278,-9.5278,-9.5398,-9.5278,-9.5278,-9.5278,-9.4213,-9.3132,-9.2302,-9.2154,-9.2154,-9.1955,-9.0832,-9.0551,-9.0338,-8.9373,-8.9072,-8.9072,-8.9072,-8.8847,-8.8586,-8.8563,-8.8103,-8.767,-8.767,0.0,-8.7289,-8.7289,0.0,-8.7289,-8.7289,0.0,0.0,-8.6395,-8.6858,-8.7057,-8.6395,-8.7389,-8.7985,-8.7355,-8.7885,-8.8581,-8.921,-9.0602,-9.1496,-9.1562,-9.1596,-9.1596,-9.1596,-9.1596,-9.1596,-9.1596,-9.1596,-9.2291,-9.3782,-9.3782,-9.4544,-9.6001,-9.6001,-9.6001,-9.6001,-9.6001,-9.6001,-9.6001,-9.6001,-9.6001,-9.6001,-9.6001,-9.6001,-9.6068,-9.683,-9.7558,-9.8254,-9.9016,-9.9712,-10.0308,-9.5398,-9.5398,-9.5398,-9.5398,-9.5398,-9.5398,-9.5398,-9.5398,-9.5398,-9.5398,-9.5398,-9.5398,-9.5398,-9.5398,-9.5398,-9.5398,-9.5398,-9.5398,-9.5398,-9.5398,-9.5398,-9.5398,-9.5398,-9.5398,-9.5398,-9.5398,-9.5398,-9.5398,-9.5398,-9.5398,-9.5398,-9.5398,-9.5398,-9.5398,-9.5398,-9.5398,-9.5398,-9.5398,-9.5398,-9.5398,-9.5398,-9.5398,-9.5398,-9.5398,-9.5398,-9.532,-9.49,-9.4471,-9.4034,-9.3402,-9.3132,-9.2895,-9.1246,-9.0674,-9.0498,-8.9428,-8.9072,-8.9072,-8.9072,-8.8847,-8.862,-8.862,-8.8276,-8.7962,-8.7728,-8.7611,-8.7493,-8.7315,0.0,0.0,0.0,0.0,0.0,0.0,-8.709,-8.7322,-8.7389,-8.7919,-8.8217,-8.7919,-8.8879,-8.9873,-9.0602,-9.1231,-9.1596,-9.1596,-9.1596,-9.1596,-9.1596,-9.1596,-9.1596,-9.1596,-9.1596,-9.2291,-9.3782,-9.3782,-9.4544,-9.6001,-9.6001,-9.6001,-9.6001,-9.6001,-9.6001,-9.6001,-9.6001,-9.6001,-9.6001,-9.6001,-9.6266,-9.673,-9.7459,-9.7923,-9.832,-9.9447,-10.0076,-10.0308,-9.5398,-9.5398,-9.5398,-9.5398,-9.5398,-9.5398,-9.5398,-9.5398,-9.5398,-9.5398,-9.5398,-9.5398,-9.5398,-9.5398,-9.5398,-9.5398,-9.5398,-9.5398,-9.5398,-9.5398,-9.5398,-9.5398,-9.5398,-9.5398,-9.5398,-9.5398,-9.5398,-9.5398,-9.5398,-9.5398,-9.5398,-9.5398,-9.5398,-9.5398,-9.5398,-9.5398,-9.5398,-9.5398,-9.5398,-9.5398,-9.5398,-9.5398,-9.5398,-9.5398,-9.5398,-9.5398,-9.5398,-9.5398,-9.5278,-9.4515,-9.4258,-9.3862,-9.177,-9.1143,-9.0884,0.0,0.0,0.0,-8.9072,-8.8903,-8.8733,-8.8733,-8.8506,-8.8252,-8.7987,-8.7846,-8.767,-8.7434,-8.7315,0.0,0.0,0.0,-8.7223,-8.6991,0.0,-8.7687,-8.7985,-8.8548,-8.8846,-8.8647,-8.9741,-9.0801,-9.1529,-9.1596,-9.1596,-9.1596,-9.1596,-9.1596,-9.1596,-9.1596,-9.1596,-9.1596,-9.1596,-9.2291,-9.3782,-9.3782,-9.4544,-9.6001,-9.6001,-9.6001,-9.6001,-9.6001,-9.6001,-9.6001,-9.6001,-9.6001,-9.6001,-9.6001,-9.6432,-9.7194,-9.789,-9.8287,-9.8618,-9.9844,-10.0308,-10.0308,-9.5398,-9.5398,-9.5398,-9.5398,-9.5398,-9.5398,-9.5398,-9.5398,-9.5398,-9.5398,-9.5398,-9.5398,-9.5398,-9.5398,-9.5398,-9.5398,-9.5398,-9.5398,-9.5398,-9.5398,-9.5398,-9.5398,-9.5398,-9.5398,-9.5398,-9.5398,-9.5398,-9.5398,-9.5398,-9.5398,-9.5398,-9.5398,-9.5398,-9.5398,-9.5398,-9.5398,-9.5398,-9.5398,-9.5398,-9.5398,-9.5398,-9.5398,-9.5398,-9.5398,-9.5398,-9.5398,-9.5398,-9.5398,-9.5362,-9.5362,-9.532,0.0,0.0,0.0,0.0,0.0,0.0,0.0,0.0,0.0,0.0,-8.9072,0.0,0.0,0.0,0.0,-8.7728,0.0,0.0,0.0,0.0,0.0,-8.7057,-8.6328,-8.7355,0.0,0.0,-8.9111,-9.0171,-8.9475,-9.0072,-9.0801,-9.1529,-9.1596,-9.1596,-9.1596,-9.1596,-9.1596,-9.1596,-9.1596,-9.1596,-9.1596,-9.1596,-9.2291,-9.3782,-9.3782,-9.4544,-9.6001,-9.6001,-9.6001,-9.6001,-9.6001,-9.6001,-9.6001,-9.6001,-9.6001,-9.6001,-9.6001,-9.6432,-9.7194,-9.789,-9.8618,-9.9347,-10.001,-10.0308,-10.0308,-9.5398,-9.5398,-9.5398,-9.5398,-9.5398,-9.5398,-9.5398,-9.5398,-9.5398,-9.5398,-9.5398,-9.5398,-9.5398,-9.5398,-9.5398,-9.5398,-9.5398,-9.5398,-9.5398,-9.5398,-9.5398,-9.5398,-9.5398,-9.5398,-9.5398,-9.5398,-9.5398,-9.5398,-9.5398,-9.5398,-9.5398,-9.5398,-9.5398,-9.5398,-9.5398,-9.5398,-9.5398,-9.5398,-9.5398,-9.5398,-9.5398,-9.5398,-9.5398,-9.5398,-9.5398,-9.5398,-9.5398,-9.5398,0.0,-9.5398,-9.5398,-9.5151,-9.3725,-9.2835,-9.2055,-9.0603,-8.9648,-8.9072,0.0,0.0,-8.9072,-8.9072,0.0,0.0,0.0,0.0,0.0,0.0,0.0,0.0,0.0,0.0,-8.719,-8.6958,-8.7687,-8.8382,0.0,-9.0138,-9.1132,-9.0867,-9.1066,-9.1331,-9.1562,-9.1596,-9.1596,0.0,-9.1596,0.0,-9.1596,-9.1596,-9.1596,-9.1596,-9.1596,-9.2291,-9.3782,-9.3782,-9.4544,-9.6001,-9.6001,-9.6001,-9.6001,-9.6001,-9.6001,-9.6001,-9.6001,-9.6001,-9.6035,-9.6532,-9.7161,-9.789,-9.8618,-9.9347,-9.9977,-10.0209,-10.0308,-10.0308,-9.5398,-9.5398,-9.5398,-9.5398,-9.5398,-9.5398,-9.5398,-9.5398,-9.5398,-9.5398,-9.5398,-9.5398,-9.5398,-9.5398,-9.5398,-9.5398,-9.5398,-9.5398,-9.5398,-9.5398,-9.5398,-9.5398,-9.5398,-9.5398,-9.5398,-9.5398,-9.5398,-9.5398,-9.5398,-9.5398,-9.5398,-9.5398,-9.5398,-9.5398,-9.5398,-9.5398,-9.5398,-9.5398,-9.5398,-9.5398,-9.5398,-9.5398,-9.5398,-9.5398,-9.5398,-9.5398,0.0,-9.5398,-9.5398,-9.5398,-9.5398,-9.5235,-9.4169,-9.3355,-9.2608,-9.1603,-9.0498,-8.9703,-8.9703,-8.9373,0.0,-8.9072,-8.9072,0.0,-8.8677,0.0,-8.8334,0.0,0.0,0.0,0.0,0.0,0.0,0.0,0.0,0.0,0.0,-9.0999,-9.1596,-9.1596,-9.1596,-9.1596,0.0,0.0,0.0,0.0,0.0,0.0,0.0,-9.1596,-9.1596,-9.1596,-9.1596,-9.2291,-9.3782,-9.3782,-9.4544,-9.6001,-9.6001,-9.6001,-9.6001,-9.6001,-9.6001,-9.6001,-9.6001,-9.6001,-9.6068,-9.6797,-9.7525,-9.8254,-9.8983,-9.9712,-10.0308,-10.0308,-10.0308,-10.0308,-9.5398,-9.5398,-9.5398,-9.5398,-9.5398,-9.5398,-9.5398,-9.5398,-9.5398,-9.5398,-9.5398,-9.5398,-9.5398,-9.5398,-9.5398,-9.5398,-9.5398,-9.5398,-9.5398,-9.5398,-9.5398,-9.5398,-9.5398,-9.5398,-9.5398,-9.5398,-9.5398,-9.5398,-9.5398,-9.5398,-9.5398,-9.5398,-9.5398,-9.5398,-9.5398,-9.5398,-9.5398,-9.5398,-9.5398,-9.5398,-9.5398,-9.5398,-9.5398,-9.5398,-9.5398,-9.5398,-9.5398,-9.5398,-9.5398,-9.5398,-9.5398,-9.5235,-9.4213,-9.3862,-9.3633,-9.2656,-9.1654,-9.0779,-9.0674,-8.9942,-8.9184,-8.9128,-8.9072,0.0,0.0,0.0,-8.8136,0.0,0.0,0.0,0.0,0.0,0.0,0.0,0.0,0.0,0.0,0.0,-9.1596,-9.1596,-9.1596,0.0,0.0,0.0,0.0,0.0,0.0,0.0,0.0,-9.1596,-9.1596,-9.1596,-9.1596,-9.2291,-9.3782,-9.3782,-9.4544,-9.6001,-9.6001,-9.6001,-9.6001,-9.6001,-9.6001,-9.6001,-9.6001,-9.6035,-9.6101,-9.6863,-9.7592,-9.8287,-9.9049,-9.9745,-10.0308,-10.0308,-10.0308,-10.0308,-9.5398,-9.5398,-9.5398,-9.5398,-9.5398,-9.5398,-9.5398,-9.5398,-9.5398,-9.5398,-9.5398,-9.5398,-9.5398,-9.5398,-9.5398,-9.5398,-9.5398,-9.5398,-9.5398,-9.5398,-9.5398,-9.5398,-9.5398,-9.5398,-9.5398,-9.5398,-9.5398,-9.5398,-9.5398,-9.5398,-9.5398,-9.5398,-9.5398,-9.5398,-9.5398,-9.5398,-9.5398,-9.5398,-9.5398,-9.5398,-9.5398,-9.5398,-9.5398,0.0,-9.5398,-9.5398,-9.5398,-9.5398,-9.5398,-9.5398,-9.5398,-9.532,-9.5108,-9.4435,-9.3771,-9.3495,-9.2704,-9.1705,-9.0936,-9.0498,-9.0104,-8.9295,-8.9072,-8.9016,0.0,0.0,0.0,0.0,0.0,0.0,0.0,0.0,0.0,0.0,0.0,0.0,0.0,0.0,0.0,-9.1596,-9.1596,0.0,0.0,0.0,0.0,0.0,0.0,0.0,-9.1596,-9.1596,-9.1596,-9.1596,-9.1596,-9.2291,-9.3782,-9.3782,-9.4544,-9.6001,-9.6001,-9.6001,-9.6001,-9.6001,-9.6001,-9.6001,-9.6001,-9.6333,-9.6863,-9.7592,-9.832,-9.9082,-9.9778,-10.0109,-10.0308,-10.0308,-10.0308,-10.0308,-9.5398,-9.5398,-9.5398,-9.5398,-9.5398,-9.5398,-9.5398,-9.5398,-9.5398,-9.5398,-9.5398,-9.5398,-9.5398,-9.5398,-9.5398,-9.5398,-9.5398,-9.5398,-9.5398,-9.5398,-9.5398,-9.5398,-9.5398,-9.5398,-9.5398,-9.5398,-9.5398,-9.5398,-9.5398,-9.5398,-9.5398,-9.5398,-9.5398,-9.5398,-9.5398,-9.5398,-9.5398,-9.5398,-9.5398,-9.5398,-9.5398,-9.5398,0.0,-9.5398,-9.5398,-9.5398,-9.5398,-9.5398,-9.5398,-9.5398,-9.5398,-9.5398,-9.5398,-9.4986,-9.4515,-9.4515,-9.3771,-9.2704,-9.167,-9.1005,-9.0444,-8.9373,-8.9072,-8.9016,-8.8677,-8.862,-8.8448,0.0,-8.7728,-8.7611,0.0,0.0,0.0,0.0,0.0,0.0,0.0,0.0,0.0,0.0,-9.1596,0.0,0.0,-9.1596,0.0,0.0,0.0,0.0,0.0,-9.1596,-9.1596,-9.1596,-9.1894,-9.2623,-9.3782,-9.4113,-9.4842,-9.6001,-9.6001,-9.6001,-9.6001,-9.6001,-9.6001,-9.6001,-9.6001,-9.6432,-9.7161,-9.789,-9.8618,-9.9347,-10.001,-10.0308,-10.0308,-10.0308,-10.0308,-10.0308,-9.5398,-9.5398,-9.5398,-9.5398,-9.5398,-9.5398,-9.5398,-9.5398,-9.5398,-9.5398,-9.5398,-9.5398,-9.5398,-9.5398,-9.5398,-9.5398,-9.5398,-9.5398,-9.5398,-9.5398,-9.5398,-9.5398,-9.5398,-9.5398,-9.5398,-9.5398,-9.5398,-9.5398,-9.5398,-9.5398,-9.5398,-9.5398,-9.5398,-9.5398,-9.5398,-9.5398,-9.5398,-9.5398,-9.5398,-9.5398,-9.5398,-9.5398,-9.5398,-9.5398,-9.5398,-9.5398,-9.5398,-9.5398,-9.5398,-9.5398,-9.5398,-9.5398,-9.5398,-9.5398,-9.5398,-9.5398,-9.4734,-9.3771,-9.2524,-9.1569,-9.0656,-8.9373,-8.9072,-8.9016,-8.8677,-8.862,-8.8448,-8.7846,-8.7728,-8.7611,-8.7315,0.0,0.0,0.0,0.0,0.0,0.0,0.0,0.0,0.0,0.0,0.0,-9.1596,-9.1596,-9.1596,0.0,0.0,0.0,0.0,0.0,-9.1596,-9.1596,-9.2291,-9.3053,-9.3782,-9.4544,-9.5273,-9.6001,-9.6001,-9.6001,-9.6001,-9.6001,-9.6001,-9.6001,-9.6001,-9.6465,-9.7293,-9.7923,-9.8652,-9.948,-10.0109,-10.0308,-10.0308,-10.0308,-10.0308,-10.0308,-9.5398,-9.5398,-9.5398,-9.5398,-9.5398,-9.5398,-9.5398,-9.5398,-9.5398,-9.5398,-9.5398,-9.5398,-9.5398,-9.5398,-9.5398,-9.5398,-9.5398,-9.5398,-9.5398,-9.5398,-9.5398,-9.5398,-9.5398,-9.5398,-9.5398,-9.5398,-9.5398,-9.5398,-9.5398,-9.5398,-9.5398,-9.5398,-9.5398,-9.5398,-9.5398,-9.5398,-9.5398,-9.5398,-9.5398,-9.5398,-9.5398,-9.5398,-9.5398,-9.5398,-9.5398,-9.5398,-9.5398,-9.5398,-9.5398,-9.5398,-9.5398,-9.5398,-9.5398,-9.5398,-9.5398,-9.5398,-9.5278,-9.4691,-9.28,-9.2119,-9.1553,-8.9593,-8.9072,-8.9016,-8.8677,-8.862,-8.8448,-8.7846,-8.7728,-8.7611,-8.7315,0.0,0.0,0.0,0.0,0.0,0.0,0.0,0.0,0.0,0.0,-9.1596,0.0,0.0,-9.1596,-9.1596,0.0,0.0,0.0,0.0,-9.1596,0.0,-9.2291,-9.3053,0.0,-9.4544,-9.5273,-9.6001,-9.6001,-9.6001,-9.6001,-9.6001,-9.6001,-9.6001,-9.6001,-9.6763,-9.7989,-9.8122,-9.895,-10.0109,-10.0308,-10.0308,-10.0308,-10.0308,-10.0308,-10.0308,-9.5398,-9.5398,-9.5398,-9.5398,-9.5398,-9.5398,-9.5398,-9.5398,-9.5398,-9.5398,-9.5398,-9.5398,-9.5398,-9.5398,-9.5398,-9.5398,-9.5398,-9.5398,-9.5398,-9.5398,-9.5398,-9.5398,-9.5398,-9.5398,-9.5398,-9.5398,-9.5398,-9.5398,-9.5398,-9.5398,-9.5398,-9.5398,-9.5398,-9.5398,-9.5398,-9.5398,-9.5398,-9.5398,-9.5398,-9.5398,-9.5398,-9.5398,-9.5398,-9.5398,-9.5398,-9.5398,-9.5398,-9.5398,-9.5398,-9.5398,-9.5398,-9.5398,-9.5398,-9.5398,-9.5398,-9.5398,-9.5398,-9.5029,-9.3495,-9.2739,-9.1955,-9.0338,-8.9483,-8.9072,-8.8903,-8.8847,-8.8733,-8.8276,-8.8078,-8.7846,-8.7375,-8.7554,0.0,0.0,0.0,0.0,0.0,0.0,-9.1596,0.0,0.0,0.0,0.0,0.0,0.0,-9.1596,-9.1596,0.0,0.0,0.0,-9.1761,0.0,0.0,0.0,-9.4345,0.0,-9.567,-9.6001,-9.6001,-9.6001,-9.6001,-9.6001,-9.6001,-9.6035,-9.6399,-9.7194,-9.8221,-9.8983,-9.9679,-10.0308,-10.0308,-10.0308,-10.0308,-10.0308,-10.0308,-10.0308,-9.5398,-9.5398,-9.5398,-9.5398,-9.5398,-9.5398,-9.5398,-9.5398,-9.5398,-9.5398,-9.5398,-9.5398,-9.5398,-9.5398,-9.5398,-9.5398,-9.5398,-9.5398,-9.5398,-9.5398,-9.5398,-9.5398,-9.5398,-9.5398,-9.5398,-9.5398,-9.5398,-9.5398,0.0,-9.529,-9.5145,-9.529,-9.5398,-9.5398,-9.5398,-9.5398,0.0,0.0,-9.5398,-9.5398,-9.5398,-9.5398,-9.5398,-9.5398,-9.5398,-9.5398,-9.5398,-9.5398,-9.5398,-9.5398,-9.5398,-9.5398,-9.5398,-9.5398,-9.5398,-9.5398,-9.5398,-9.5193,-9.4124,-9.3073,-9.2055,-9.0988,-8.9887,-8.9072,-8.9072,-8.9072,-8.9016,-8.8677,-8.8334,-8.7904,-8.7408,-8.7389,0.0,0.0,0.0,0.0,0.0,0.0,0.0,0.0,0.0,0.0,-9.1596,0.0,0.0,0.0,0.0,0.0,-9.1596,0.0,0.0,0.0,0.0,-9.4312,-9.4908,0.0,-9.6001,-9.6001,-9.6001,-9.6001,-9.6001,-9.6001,-9.6001,-9.6035,-9.6797,-9.7592,-9.8519,-9.9778,-10.0308,-10.0308,-10.0308,-10.0308,-10.0308,-10.0308,-10.0308,-10.0308,-9.5398,-9.5398,-9.5398,-9.5398,-9.5398,-9.5398,-9.5398,-9.5398,-9.5398,-9.5398,-9.5398,-9.5398,-9.5398,-9.5398,-9.5398,-9.5398,-9.5398,-9.5398,-9.5398,-9.5398,-9.5398,-9.5398,-9.5398,-9.5398,-9.5398,-9.5398,-9.5398,0.0,0.0,-9.5036,0.0,0.0,0.0,0.0,0.0,0.0,0.0,-9.5398,-9.5398,-9.5398,-9.5398,-9.5398,-9.5398,-9.5398,-9.5398,-9.5398,-9.5398,-9.5398,-9.5398,-9.5398,-9.5398,-9.5398,-9.5398,-9.5398,-9.5398,-9.5398,-9.5398,-9.5193,-9.4124,-9.3073,-9.2055,-9.0988,-8.9887,-8.9072,-8.9072,-8.9072,-8.9016,-8.8677,-8.8161,-8.767,-8.7349,-8.7786,-8.8482,0.0,0.0,0.0,0.0,0.0,-9.1596,-9.1596,0.0,0.0,-9.1596,-9.1596,-9.1596,0.0,-9.1596,0.0,0.0,0.0,0.0,-9.2689,-9.4047,-9.4842,-9.4908,-9.5637,-9.6001,-9.6001,-9.6001,-9.6001,-9.6001,-9.6001,-9.6001,-9.6035,-9.6797,-9.789,-9.9215,-10.001,-10.0308,-10.0308,-10.0308,-10.0308,-10.0308,-10.0308,-10.0308,-10.0308,-9.5398,-9.5398,-9.5398,-9.5398,-9.5398,-9.5398,-9.5398,-9.5398,-9.5398,-9.5398,-9.5398,-9.5398,-9.5398,-9.5398,-9.5398,-9.5398,-9.5398,-9.5398,-9.5398,-9.5398,-9.5398,-9.5398,-9.5398,-9.5398,-9.5398,-9.5398,-9.5398,0.0,0.0,0.0,0.0,0.0,0.0,0.0,0.0,-9.5398,-9.5398,-9.5398,-9.5398,-9.5398,-9.5398,-9.5398,-9.5398,-9.5398,-9.5398,-9.5398,-9.5398,-9.5398,-9.5398,-9.5398,-9.5398,-9.5398,-9.5398,-9.5398,-9.5398,-9.5398,-9.5398,-9.5278,-9.49,-9.3541,-9.2203,-9.172,-9.0304,-8.9072,-8.9072,-8.9072,-8.9072,-8.8903,-8.8391,-8.7846,-8.7408,-8.7852,-8.8548,-8.931,0.0,0.0,0.0,0.0,0.0,-9.1596,0.0,-9.1596,0.0,-9.1596,-9.1596,0.0,0.0,-9.1596,0.0,0.0,0.0,-9.3351,0.0,-9.5107,-9.5571,-9.5869,-9.6001,-9.6001,-9.6001,-9.6001,-9.6001,-9.6001,-9.6465,-9.7327,-9.7625,-9.8552,-9.991,-10.0209,-10.0308,-10.0308,-10.0308,-10.0308,-10.0308,-10.0308,-10.0308,-10.0308,-9.5398,-9.5398,-9.5398,-9.5398,-9.5398,-9.5398,-9.5398,-9.5398,-9.5398,-9.5398,-9.5398,-9.5398,-9.5398,-9.5398,-9.5398,-9.5398,-9.5398,-9.5398,-9.5398,-9.5398,-9.5398,-9.5398,-9.5398,0.0,-9.5398,-9.5398,-9.5398,-9.5398,-9.5398,0.0,0.0,0.0,0.0,0.0,-9.5398,-9.5398,-9.5398,-9.5398,-9.5398,-9.5398,-9.5398,-9.5398,-9.5398,-9.5398,-9.5398,-9.5398,-9.5398,-9.5398,-9.5398,-9.5398,-9.5398,-9.5398,-9.5398,-9.5398,-9.5398,-9.5398,-9.5398,-9.5398,-9.5398,-9.3898,-9.2302,-9.2232,-9.0674,-8.9072,-8.9072,-8.9072,-8.9072,-8.8959,-8.862,-8.8136,-8.7493,-8.8138,-8.8934,-8.9343,0.0,0.0,0.0,-9.1596,0.0,0.0,-9.1596,-9.1596,-9.1596,-9.1596,-9.1596,-9.1596,-9.1596,-9.1596,-9.1596,0.0,0.0,0.0,0.0,0.0,-9.6001,-9.6001,-9.6001,-9.6001,-9.6001,-9.6001,-9.6001,-9.6233,-9.6995,-9.8188,-9.842,-9.9182,-10.0308,-10.0308,-10.0308,-10.0308,-10.0308,-10.0308,-10.0308,-10.0308,-10.0308,-10.0308,-9.5398,-9.5398,-9.5398,-9.5398,-9.5398,-9.5398,-9.5398,-9.5398,-9.5398,-9.5398,-9.5398,-9.5398,-9.5398,-9.5398,-9.5398,-9.5398,-9.5398,-9.5398,-9.5398,-9.5398,-9.5398,0.0,0.0,-9.5398,-9.5398,-9.5398,-9.5398,-9.5398,0.0,0.0,-9.4239,0.0,-9.4638,-9.5398,-9.5398,-9.5398,-9.5398,-9.5398,-9.5398,-9.5398,-9.5398,-9.5398,-9.5398,-9.5398,-9.5398,-9.5398,-9.5398,-9.5398,-9.5398,-9.5398,-9.5398,-9.5398,-9.5398,-9.5398,-9.5398,-9.5398,-9.5398,-9.5398,-9.5398,-9.3898,-9.2302,-9.2302,-9.0709,-8.9072,-8.9072,-8.9072,-8.9016,-8.8677,-8.862,-8.8391,-8.7846,-8.8928,-8.9773,-8.947,0.0,0.0,0.0,-9.1596,0.0,-9.1596,-9.1596,-9.1596,-9.1596,-9.1596,0.0,-9.1596,-9.1596,-9.1596,-9.1596,-9.2987,0.0,-9.3782,-9.524,0.0,-9.6001,-9.6001,-9.6001,-9.6001,-9.6001,-9.6001,-9.6035,-9.6763,-9.7492,-9.8221,-9.895,-9.9645,-10.0308,-10.0308,-10.0308,-10.0308,-10.0308,-10.0308,-10.0308,-10.0308,-10.0308,-10.0308,-9.5398,-9.5398,-9.5398,-9.5398,-9.5398,-9.5398,-9.5398,-9.5398,-9.5398,-9.5398,-9.5398,-9.5398,-9.5398,-9.5398,-9.5398,0.0,-9.5398,-9.5398,0.0,-9.5398,-9.5398,-9.5398,-9.5398,-9.5398,-9.5398,-9.5398,-9.5398,-9.5398,0.0,0.0,0.0,-9.5,-9.5145,-9.5398,-9.5398,-9.5398,-9.5398,-9.5398,-9.5398,-9.5398,-9.5398,-9.5398,-9.5398,-9.5398,-9.5398,-9.5398,-9.5398,-9.5398,-9.5398,-9.5398,-9.5398,-9.5398,-9.5398,-9.5398,-9.5398,-9.5398,-9.5398,-9.5398,-9.5398,-9.3898,-9.2302,-9.2302,-9.0709,-8.9072,-8.9072,-8.9072,-8.9016,-8.8677,-8.8448,-8.8194,-8.7787,-8.8749,-8.9531,-8.9409,-9.0635,0.0,-9.1596,0.0,-9.1596,-9.1596,-9.1596,-9.1596,-9.1596,-9.1596,0.0,0.0,0.0,0.0,0.0,0.0,0.0,0.0,-9.524,0.0,-9.6001,-9.6001,-9.6001,-9.6001,-9.6001,-9.6001,-9.6035,-9.6763,-9.7492,-9.8221,-9.895,-9.9679,-10.0308,-10.0308,-10.0308,-10.0308,-10.0308,-10.0308,-10.0308,-10.0308,-10.0308,-10.0308,-9.5398,-9.5398,-9.5398,-9.5398,-9.5398,-9.5398,-9.5398,-9.5398,-9.5398,-9.5398,-9.5398,-9.5398,-9.5398,-9.5398,0.0,-9.5398,-9.5398,-9.5398,-9.5398,-9.5398,-9.5398,-9.5398,-9.5398,-9.5398,-9.5398,-9.5398,0.0,-9.5398,-9.5398,-9.5398,-9.5398,-9.5398,-9.5398,-9.5398,-9.5398,-9.5398,-9.5398,-9.5398,-9.5398,-9.5398,-9.5398,-9.5398,-9.5398,-9.5398,-9.5398,-9.5398,-9.5398,-9.5398,-9.5398,-9.5398,-9.5398,-9.5398,-9.5398,-9.5398,-9.5398,-9.5398,-9.5398,-9.5398,-9.5398,-9.4169,-9.2752,-9.2365,-9.1263,-9.0177,-8.9779,-8.9373,-8.9016,-8.8847,-8.862,-8.8425,-8.8103,-8.8954,-8.9713,-8.9592,-9.0697,-9.1596,-9.1596,0.0,-9.1596,0.0,0.0,-9.1596,-9.1596,-9.1596,-9.1596,0.0,0.0,0.0,0.0,0.0,-9.3914,-9.4213,-9.5372,-9.6001,-9.6001,-9.6001,-9.6001,-9.6001,-9.6001,-9.6001,-9.6035,-9.7062,-9.7757,-9.8221,-9.9248,-9.991,-10.0308,-10.0308,-10.0308,-10.0308,-10.0308,-10.0308,-10.0308,-10.0308,-10.0308,-10.0308,-9.5398,-9.5398,-9.5398,-9.5398,-9.5398,-9.5398,-9.5398,-9.5398,-9.5398,-9.5398,-9.5398,-9.5398,-9.5398,-9.5398,-9.5398,-9.5398,0.0,0.0,-9.5398,-9.5398,-9.5398,-9.5398,-9.5398,-9.5398,-9.5398,-9.5398,-9.5398,-9.5398,-9.5398,-9.5398,-9.5398,-9.5398,-9.5398,-9.5398,-9.5398,-9.5398,-9.5398,-9.5398,-9.5398,-9.5398,-9.5398,-9.5398,-9.5398,-9.5398,-9.5398,-9.5398,-9.5398,-9.5398,-9.5398,-9.5398,-9.5398,-9.5398,-9.5398,-9.5398,-9.5398,-9.5398,-9.5398,-9.5398,-9.5398,-9.4603,-9.3552,-9.2572,-9.2267,-9.1955,-9.0936,-8.9887,-8.9072,-8.9072,-8.9072,-8.8993,-8.8744,-8.9575,-9.0285,-9.002,-9.0914,-9.1596,-9.1596,-9.1596,0.0,0.0,0.0,0.0,-9.1596,-9.1596,-9.1596,0.0,0.0,0.0,0.0,0.0,-9.4146,-9.4875,-9.5637,-9.6001,-9.6001,-9.6001,-9.6001,-9.6001,-9.6001,-9.6035,-9.6134,-9.7525,-9.8188,-9.832,-9.9712,-10.0308,-10.0308,-10.0308,-10.0308,-10.0308,-10.0308,-10.0308,-10.0308,-10.0308,-10.0308,-10.0308,0.0,0.0,-9.5398,-9.5398,-9.5398,-9.5398,-9.5398,-9.5398,-9.5398,-9.5398,-9.5398,-9.5398,-9.5398,-9.5398,-9.5398,-9.5398,-9.5398,-9.5398,-9.5398,-9.5398,-9.5398,-9.5398,-9.5398,-9.5398,-9.5398,-9.5398,-9.5398,-9.5398,-9.5398,-9.5398,-9.5398,-9.5398,-9.5398,-9.5398,-9.5398,-9.5398,-9.5398,-9.5398,-9.5398,-9.5398,-9.5398,-9.5398,-9.5398,-9.5398,-9.5398,-9.5398,-9.5398,-9.5398,-9.5398,-9.5398,-9.5398,-9.5398,-9.5398,-9.5398,-9.5398,-9.5398,-9.5398,-9.5398,-9.5398,-9.4603,-9.3725,-9.3459,-9.2267,-9.0988,-9.0727,-8.9887,-8.9072,-8.9072,-8.8903,-8.8845,-8.9394,-8.9768,-9.0153,-9.0659,-9.1185,-9.1596,-9.1596,-9.1596,-9.1596,0.0,-9.1596,-9.1596,-9.1596,-9.1596,-9.1596,0.0,0.0,-9.2159,-9.3451,-9.3716,-9.4146,-9.4875,-9.5637,-9.6001,-9.6001,-9.6001,-9.6001,-9.6001,-9.6001,-9.63,-9.6863,-9.7757,-9.8486,-9.9082,-9.9944,-10.0308,-10.0308,-10.0308,-10.0308,-10.0308,-10.0308,-10.0308,-10.0308,-10.0308,-10.0308,-10.0308,-9.5398,-9.5398,-9.5398,-9.5398,-9.5398,-9.5398,-9.5398,-9.5398,-9.5398,-9.5398,-9.5398,-9.5398,-9.5398,-9.5398,-9.5398,-9.5398,-9.5398,-9.5398,-9.5398,-9.5398,-9.5398,-9.5398,-9.5398,-9.5398,-9.5398,-9.5398,-9.5398,-9.5398,-9.5398,-9.5398,-9.5398,-9.5398,-9.5398,-9.5398,-9.5398,-9.5398,-9.5398,-9.5398,-9.5398,-9.5398,-9.5398,-9.5398,-9.5398,-9.5398,-9.5398,-9.5398,-9.5398,-9.5398,-9.5398,-9.5398,-9.5398,-9.5398,-9.5398,-9.5398,-9.5398,-9.5398,-9.5398,-9.5398,-9.5398,-9.4986,-9.4391,-9.3908,-9.2267,-9.0674,-9.0674,-8.9887,-8.9072,-8.9072,-8.8959,-8.9083,-8.9859,-9.0078,-9.04,-9.1074,-9.1441,-9.1596,-9.1596,-9.1596,-9.1596,-9.1596,-9.1596,-9.1596,-9.1596,-9.1596,-9.1596,-9.1596,-9.1894,0.0,-9.3749,-9.4113,-9.4643,-9.5372,-9.5803,-9.6001,-9.6001,-9.6001,-9.6001,-9.6001,-9.6001,-9.6399,-9.7128,-9.7857,-9.8585,-9.9314,-10.001,-10.0308,-10.0308,-10.0308,-10.0308,-10.0308,-10.0308,-10.0308,-10.0308,-10.0308,-10.0308,-10.0308,-9.5398,-9.5398,-9.5398,-9.5398,-9.5398,-9.5398,-9.5398,-9.5398,-9.5398,-9.5398,-9.5398,-9.5398,-9.5398,-9.5398,-9.5398,-9.5398,-9.5398,-9.5398,-9.5398,-9.5398,-9.5398,-9.5398,-9.5398,-9.5398,-9.5398,-9.5398,-9.5398,-9.5398,-9.5398,-9.5398,-9.5398,-9.5398,-9.5398,-9.5398,-9.5398,-9.5398,-9.5398,-9.5398,-9.5398,-9.5398,-9.5398,-9.5398,-9.5398,-9.5398,-9.5398,-9.5398,-9.5398,-9.5398,-9.5398,-9.5398,-9.5398,-9.5398,-9.5398,-9.5398,-9.5398,-9.5398,-9.5398,-9.5398,-9.5398,-9.5398,-9.5151,-9.4079,-9.2365,-9.0884,-9.0727,-8.9887,-8.9072,-8.9072,-8.9072,-8.9342,-9.0222,-9.0437,-9.0731,-9.1603,-9.1692,-9.1658,-9.1658,0.0,-9.1596,-9.1596,-9.1596,-9.1596,-9.1596,-9.1596,-9.1629,-9.1728,-9.2324,-9.3053,-9.3914,-9.4544,-9.524,-9.6001,-9.6001,-9.6001,-9.6001,-9.6001,-9.6001,-9.6001,-9.6001,-9.6432,-9.7293,-9.789,-9.8618,-9.948,-10.0076,-10.0308,-10.0308,-10.0308,-10.0308,-10.0308,-10.0308,-10.0308,-10.0308,-10.0308,-10.0308,-10.0308,-9.5398,-9.5398,-9.5398,-9.5398,-9.5398,-9.5398,-9.5398,-9.5398,-9.5398,-9.5398,-9.5398,-9.5398,-9.5398,-9.5398,-9.5398,-9.5398,-9.5398,-9.5398,-9.5398,-9.5398,-9.5398,-9.5398,-9.5398,-9.5398,-9.5398,-9.5398,-9.5398,-9.5398,-9.5398,-9.5398,-9.5398,-9.5398,-9.5398,-9.5398,-9.5398,-9.5398,-9.5398,-9.5398,-9.5398,-9.5398,-9.5398,-9.5398,-9.5398,-9.5398,-9.5398,-9.5398,-9.5398,-9.5398,-9.5398,-9.5398,-9.5398,-9.5398,-9.5398,-9.5398,-9.5398,-9.5398,-9.5398,-9.5398,-9.5398,-9.5398,-9.5151,-9.4079,-9.2895,-9.1805,-9.0884,-8.9887,-8.9072,-8.9072,-8.9072,-8.9512,-9.0865,-9.0915,-9.122,-9.2633,-9.2392,-9.203,-9.203,0.0,-9.1596,-9.1596,-9.1596,-9.1596,-9.1596,-9.1596,-9.1828,-9.2457,-9.2623,-9.3285,-9.4643,-9.4842,-9.524,-9.6001,-9.6001,-9.6001,-9.6001,-9.6001,-9.6001,-9.6001,-9.6001,-9.6697,-9.8022,-9.8122,-9.8883,-10.0209,-10.0308,-10.0308,-10.0308,-10.0308,-10.0308,-10.0308,-10.0308,-10.0308,-10.0308,-10.0308,-10.0308,-10.0308,-9.5398,-9.5398,-9.5398,-9.5398,-9.5398,-9.5398,-9.5398,-9.5398,-9.5398,-9.5398,-9.5398,-9.5398,-9.5398,-9.5398,-9.5398,-9.5398,-9.5398,-9.5398,-9.5398,-9.5398,-9.5398,-9.5398,-9.5398,-9.5398,-9.5398,-9.5398,-9.5398,-9.5398,-9.5398,-9.5398,-9.5398,-9.5398,-9.5398,-9.5398,-9.5398,-9.5398,-9.5398,-9.5398,-9.5398,-9.5398,-9.5398,-9.5398,-9.5398,-9.5398,-9.5398,-9.5398,-9.5398,-9.5398,-9.5398,-9.5398,-9.5398,-9.5398,-9.5398,-9.5398,-9.5398,-9.5398,-9.5398,-9.5398,-9.5398,-9.5398,-9.4986,-9.3402,-9.2608,-9.1785,-9.0231,-8.9428,-8.9072,-8.9072,-8.941,-9.0019,-9.1102,-9.1411,-9.1817,-9.2894,-9.252,-9.2092,-9.2092,-9.1844,-9.1596,-9.1596,-9.1596,-9.1596,-9.1596,-9.1596,-9.1894,-9.2623,-9.3053,-9.3749,-9.4842,-9.5273,-9.567,-9.6001,-9.6001,-9.6001,-9.6001,-9.6001,-9.6001,-9.6001,-9.6399,-9.7161,-9.8188,-9.8585,-9.9314,-10.0308,-10.0308,-10.0308,-10.0308,-10.0308,-10.0308,-10.0308,-10.0308,-10.0308,-10.0308,-10.0308,-10.0308,-10.0308,-9.5398,-9.5398,-9.5398,-9.5398,-9.5398,-9.5398,-9.5398,-9.5398,-9.5398,-9.5398,-9.5398,-9.5398,-9.5398,-9.5398,-9.5398,-9.5398,-9.5398,-9.5398,-9.5398,-9.5398,-9.5398,-9.5398,-9.5398,-9.5398,-9.5398,-9.5398,-9.5398,-9.5398,-9.5398,-9.5398,-9.5398,-9.5398,-9.5398,-9.5398,-9.5398,-9.5398,-9.5398,-9.5398,-9.5398,-9.5398,-9.5398,-9.5398,-9.5398,-9.5398,-9.5398,-9.5398,-9.5398,-9.5398,-9.5398,-9.5398,-9.5398,-9.5398,-9.5398,-9.5398,-9.5398,-9.5398,-9.5398,-9.5398,-9.5398,-9.5398,-9.49,-9.2835,-9.2267,-9.1685,-8.9593,-8.9072,-8.914,-8.9309,-8.9816,-9.0493,-9.1406,-9.1874,-9.2339,-9.3081,0.0,-9.2214,-9.2214,-9.1844,-9.1596,-9.1596,-9.1596,-9.1596,-9.1596,-9.1728,-9.2159,-9.2888,-9.3649,-9.4378,-9.5107,-9.5703,-9.6001,-9.6001,-9.6001,-9.6001,-9.6001,-9.6001,-9.6001,-9.6001,-9.6763,-9.7492,-9.8188,-9.895,-9.9645,-10.0308,-10.0308,-10.0308,-10.0308,-10.0308,-10.0308,-10.0308,-10.0308,-10.0308,-10.0308,-10.0308,-10.0308,-10.0308,-9.5398,-9.5398,-9.5398,-9.5398,-9.5398,-9.5398,-9.5398,-9.5398,-9.5398,-9.5398,-9.5398,-9.5398,-9.5398,-9.5398,-9.5398,-9.5398,-9.5398,-9.5398,-9.5398,-9.5398,-9.5398,-9.5398,-9.5398,-9.5398,-9.5398,-9.5398,-9.5398,-9.5398,-9.5398,-9.5398,-9.5398,-9.5398,-9.5398,-9.5398,-9.5398,-9.5398,-9.5398,-9.5398,-9.5398,-9.5398,-9.5398,-9.5398,-9.5398,-9.5398,-9.5398,-9.5398,-9.5398,-9.5398,-9.5398,-9.5398,-9.5398,-9.5398,-9.5398,-9.5398,-9.5398,-9.5398,-9.5398,-9.5398,-9.5398,-9.5398,-9.49,-9.2835,-9.2302,-9.172,-8.9593,-8.9072,-8.9275,-8.9985,-9.0154,-9.0628,-9.2083,-9.2329,-9.2633,-9.3436,0.0,0.0,-9.2581,-9.203,-9.1596,-9.1596,-9.1596,-9.1596,-9.1596,-9.2192,-9.2921,-9.3649,-9.4411,-9.514,-9.5869,-9.5968,-9.6001,-9.6001,-9.6001,-9.6001,-9.6001,-9.6001,-9.6001,-9.6001,-9.6763,-9.7492,-9.8188,-9.895,-9.9645,-10.0308,-10.0308,-10.0308,-10.0308,-10.0308,-10.0308,-10.0308,-10.0308,-10.0308,-10.0308,-10.0308,-10.0308,-10.0308,-9.5398,-9.5398,-9.5398,-9.5398,-9.5398,-9.5398,-9.5398,-9.5398,-9.5398,-9.5398,-9.5398,-9.5398,-9.5398,-9.5398,-9.5398,-9.5398,-9.5398,-9.5398,-9.5398,-9.5398,-9.5398,-9.5398,-9.5398,-9.5398,-9.5398,-9.5398,-9.5398,-9.5398,-9.5398,-9.5398,-9.5398,-9.5398,-9.5398,-9.5398,-9.5398,-9.5398,-9.5398,-9.5398,-9.5398,-9.5398,-9.5398,-9.5398,-9.5398,-9.5398,-9.5398,-9.5398,-9.5398,-9.5398,-9.5398,-9.5398,-9.5398,-9.5398,-9.5398,-9.5398,-9.5398,-9.5398,-9.5398,-9.5398,-9.5398,-9.49,-9.4043,-9.2572,-9.2267,-9.1755,-8.9593,-8.9968,-9.0673,-9.029,-9.0932,-9.1744,-9.2319,-9.2827,-9.3233,-9.3537,0.0,-9.2581,-9.2581,-9.203,-9.1596,-9.1596,-9.1596,-9.1761,-9.2225,-9.2523,-9.3186,-9.4378,-9.4743,-9.5206,-9.5968,-9.6001,-9.6001,-9.6001,-9.6001,-9.6001,-9.6001,-9.6001,-9.6001,-9.6001,-9.7194,-9.7923,-9.8221,-9.938,-10.0076,-10.0308,-10.0308,-10.0308,-10.0308,-10.0308,-10.0308,-10.0308,-10.0308,-10.0308,-10.0308,-10.0308,-10.0308,-10.0308,-9.5398,-9.5398,-9.5398,-9.5398,-9.5398,-9.5398,-9.5398,-9.5398,-9.5398,-9.5398,-9.5398,-9.5398,-9.5398,-9.5398,-9.5398,-9.5398,-9.5398,-9.5398,-9.5398,-9.5398,-9.5398,-9.5398,-9.5398,-9.5398,-9.5398,-9.5398,-9.5398,-9.5398,-9.5398,-9.5398,-9.5398,-9.5398,-9.5398,-9.5398,-9.5398,-9.5398,-9.5398,-9.5398,-9.5398,-9.5398,-9.5398,-9.5398,-9.5398,-9.5398,-9.5398,-9.5398,-9.5398,-9.5398,-9.5398,-9.5398,-9.5398,-9.5398,-9.5398,-9.5398,-9.5398,-9.5398,-9.5398,-9.5398,-9.5398,-9.4603,-9.3552,-9.2475,-9.2475,-9.2119,-8.9669,-9.0523,-9.154,-9.072,-9.1541,-9.2489,-9.2759,-9.3233,-9.3571,-9.3571,-9.3156,-9.2762,-9.2762,-9.2214,-9.1782,-9.1782,-9.1658,-9.1861,-9.2623,-9.2888,-9.355,-9.4809,-9.5107,-9.5471,-9.5968,-9.6001,-9.6001,-9.6001,-9.6001,-9.6001,-9.6001,-9.6001,-9.6134,-9.6366,-9.7592,-9.8287,-9.8552,-9.9745,-10.0308,-10.0308,-10.0308,-10.0308,-10.0308,-10.0308,-10.0308,-10.0308,-10.0308,-10.0308,-10.0308,-10.0308,-10.0308,-10.0308,-9.5398,-9.5398,-9.5398,-9.5398,-9.5398,-9.5398,-9.5398,-9.5398,-9.5398,-9.5398,-9.5398,-9.5398,-9.5398,-9.5398,-9.5398,-9.5398,-9.5398,-9.5398,-9.5398,-9.5398,-9.5398,-9.5398,-9.5398,-9.5398,-9.5398,-9.5398,-9.5398,-9.5398,-9.5398,-9.5398,-9.5398,-9.5398,-9.5398,-9.5398,-9.5398,-9.5398,-9.5398,-9.5398,-9.5398,-9.5398,-9.5398,-9.5398,-9.5398,-9.5398,-9.5398,-9.5398,-9.5398,-9.5398,-9.5398,-9.5398,-9.5398,-9.5398,-9.5398,-9.5398,-9.5398,-9.5398,-9.5398,-9.5398,-9.5398,-9.4603,-9.3552,-9.2475,-9.3003,-9.2991,-8.9833,-9.0523,-9.1678,-9.1364,-9.1913,-9.2658,-9.3436,-9.3571,-9.3571,-9.3571,-9.3335,-9.3096,-9.3096,-9.252,-9.2092,-9.2092,-9.1844,-9.1894,-9.2623,-9.3384,-9.4113,-9.4842,-9.5604,-9.6001,-9.6001,-9.6001,-9.6001,-9.6001,-9.6001,-9.6001,-9.6001,-9.6001,-9.6366,-9.7128,-9.7823,-9.8552,-9.9314,-10.001,-10.0308,-10.0308,-10.0308,-10.0308,-10.0308,-10.0308,-10.0308,-10.0308,-10.0308,-10.0308,-10.0308,-10.0308,-10.0308,-10.0308,-9.5398,-9.5398,-9.5398,-9.5398,-9.5398,-9.5398,-9.5398,-9.5398,-9.5398,-9.5398,-9.5398,-9.5398,-9.5398,-9.5398,-9.5398,-9.5398,-9.5398,-9.5398,-9.5398,-9.5398,-9.5398,-9.5398,-9.5398,-9.5398,-9.5398,-9.5398,-9.5398,-9.5398,-9.5398,-9.5398,-9.5398,-9.5398,-9.5398,-9.5398,-9.5398,-9.5398,-9.5398,-9.5398,-9.5398,-9.5398,-9.5398,-9.5398,-9.5398,-9.5398,-9.5398,-9.5398,-9.5398,-9.5398,-9.5398,-9.5398,-9.5398,-9.5398,-9.5398,-9.5398,-9.5398,-9.5398,-9.5398,-9.5235,-9.4479,-9.4603,-9.4647,-9.3598,-9.3552,-9.3321,-9.1417,-9.2372,-9.3398,-9.2282,-9.2692,-9.33,-9.3537,-9.3571,-9.3571,-9.3571,-9.3335,-9.3096,-9.3096,-9.252,-9.2092,-9.2092,-9.2276,-9.2656,-9.3384,-9.4146,-9.4875,-9.5637,-9.5869,-9.6001,-9.6001,-9.6001,-9.6001,-9.6001,-9.6001,-9.6001,-9.6001,-9.6001,-9.6366,-9.7128,-9.7823,-9.8552,-9.9314,-10.001,-10.0308,-10.0308,-10.0308,-10.0308,-10.0308,-10.0308,-10.0308,-10.0308,-10.0308,-10.0308,-10.0308,-10.0308,-10.0308,-10.0308,-9.5398,-9.5398,-9.5398,-9.5398,-9.5398,-9.5398,-9.5398,-9.5398,-9.5398,-9.5398,-9.5398,-9.5398,-9.5398,-9.5398,-9.5398,-9.5398,-9.5398,-9.5398,-9.5398,-9.5398,-9.5398,-9.5398,-9.5398,-9.5398,-9.5398,-9.5398,-9.5398,-9.5398,-9.5398,-9.5398,-9.5398,-9.5398,-9.5398,-9.5398,-9.5398,-9.5398,-9.5398,-9.5398,-9.5398,-9.5398,-9.5398,-9.5398,-9.5398,-9.5398,-9.5398,-9.5398,-9.5398,-9.5398,-9.5398,-9.5398,-9.5398,-9.5398,-9.5398,-9.5398,-9.5398,-9.5398,-9.5398,-9.5193,-9.4124,-9.4603,-9.5151,-9.4079,-9.4339,-9.4342,-9.2288,-9.3451,-9.4513,-9.2747,-9.303,-9.3571,-9.3571,-9.3571,-9.3571,-9.3571,-9.3453,-9.3275,-9.3275,-9.2702,-9.2376,-9.2676,-9.2737,-9.3086,-9.4146,-9.4643,-9.5206,-9.5935,-9.6001,-9.6001,-9.6001,-9.6001,-9.6001,-9.6001,-9.6001,-9.6001,-9.6001,-9.63,-9.6797,-9.7525,-9.7956,-9.8718,-9.9712,-10.0109,-10.0308,-10.0308,-10.0308,-10.0308,-10.0308,-10.0308,-10.0308,-10.0308,-10.0308,-10.0308,-10.0308,-10.0308,-10.0308,-10.0308,-9.5398,-9.5398,-9.5398,-9.5398,-9.5398,-9.5398,-9.5398,-9.5398,-9.5398,-9.5398,-9.5398,-9.5398,-9.5398,-9.5398,-9.5398,-9.5398,-9.5398,-9.5398,-9.5398,-9.5398,-9.5398,-9.5398,-9.5398,-9.5398,-9.5398,-9.5398,-9.5398,-9.5398,-9.5398,-9.5398,-9.5398,-9.5398,-9.5398,-9.5398,-9.5398,-9.5398,-9.5398,-9.5398,-9.5398,-9.5398,-9.5398,-9.5398,-9.5398,-9.5398,-9.5398,-9.5398,-9.5398,-9.5398,-9.5398,-9.5398,-9.5398,-9.5398,-9.5398,-9.5398,-9.5398,-9.5398,-9.5398,-9.5193,-9.4124,-9.4603,-9.5151,-9.415,-9.5242,-9.5764,-9.272,-9.3921,-9.5105,-9.2917,-9.3098,-9.3571,-9.3571,-9.3571,-9.3571,-9.3571,-9.3571,-9.3571,-9.3571,-9.3036,-9.2909,-9.368,-9.3195,-9.3415,-9.4807,-9.4975,-9.5273,-9.5968,-9.6001,-9.6001,-9.6001,-9.6001,-9.6001,-9.6001,-9.6001,-9.6001,-9.6001,-9.673,-9.7459,-9.8188,-9.8254,-9.8983,-10.0308,-10.0308,-10.0308,-10.0308,-10.0308,-10.0308,-10.0308,-10.0308,-10.0308,-10.0308,-10.0308,-10.0308,-10.0308,-10.0308,-10.0308,-10.0308,-9.5398,-9.5398,-9.5398,-9.5398,-9.5398,-9.5398,-9.5398,-9.5398,-9.5398,-9.5398,-9.5398,-9.5398,-9.5398,-9.5398,-9.5398,-9.5398,-9.5398,-9.5398,-9.5398,-9.5398,-9.5398,-9.5398,-9.5398,-9.5398,-9.5398,-9.5398,-9.5398,-9.5398,-9.5398,-9.5398,-9.5398,-9.5398,-9.5398,-9.5398,-9.5398,-9.5398,-9.5398,-9.5398,-9.5398,-9.5398,-9.5398,-9.5398,-9.5398,-9.5398,-9.5398,-9.5398,-9.5398,-9.5398,-9.5398,-9.5398,-9.5398,-9.5398,-9.5398,-9.5398,-9.5398,-9.5398,-9.5398,-9.5193,-9.4124,-9.4603,-9.5295,-9.483,-9.549,-9.5793,-9.4288,-9.4872,-9.5245,-9.3689,-9.347,-9.3571,-9.3571,-9.3571,-9.3571,-9.3571,-9.3571,-9.3571,-9.3571,-9.3275,-9.3245,-9.3985,-9.4035,-9.4297,-9.5225,-9.56,-9.5836,-9.6001,-9.6001,-9.6001,-9.6001,-9.6001,-9.6001,-9.6001,-9.6001,-9.6001,-9.6001,-9.673,-9.7459,-9.8188,-9.8751,-9.948,-10.0308,-10.0308,-10.0308,-10.0308,-10.0308,-10.0308,-10.0308,-10.0308,-10.0308,-10.0308,-10.0308,-10.0308,-10.0308,-10.0308,-10.0308,-10.0308,-9.5398,-9.5398,-9.5398,-9.5398,-9.5398,-9.5398,-9.5398,-9.5398,-9.5398,-9.5398,-9.5398,-9.5398,-9.5398,-9.5398,-9.5398,-9.5398,-9.5398,-9.5398,-9.5398,-9.5398,-9.5398,-9.5398,-9.5398,-9.5398,-9.5398,-9.5398,-9.5398,-9.5398,-9.5398,-9.5398,-9.5398,-9.5398,-9.5398,-9.5398,-9.5398,-9.5398,-9.5398,-9.5398,-9.5398,-9.5398,-9.5398,-9.5398,-9.5398,-9.5398,-9.5398,-9.5398,-9.5398,-9.5398,-9.5398,-9.5398,-9.5398,-9.5398,-9.5398,-9.5398,-9.5398,-9.5398,-9.5398,-9.5193,-9.4124,-9.4855,-9.5801,-9.5152,-9.5851,-9.6376,-9.5347,-9.5279,-9.5091,-9.3879,-9.3571,-9.3571,-9.3571,-9.3571,-9.3571,-9.3571,-9.3571,-9.3571,-9.3571,-9.3638,-9.3904,-9.4644,-9.4795,-9.5026,-9.5662,-9.59,-9.6001,-9.6001,-9.6001,-9.6001,-9.6001,-9.6001,-9.6001,-9.6001,-9.6001,-9.6167,-9.6532,-9.726,-9.7989,-9.8718,-9.9082,-9.9645,-10.0308,-10.0308,-10.0308,-10.0308,-10.0308,-10.0308,-10.0308,-10.0308,-10.0308,-10.0308,-10.0308,-10.0308,-10.0308,-10.0308,-10.0308,-10.0308,-9.5398,-9.5398,-9.5398,-9.5398,-9.5398,-9.5398,-9.5398,-9.5398,-9.5398,-9.5398,-9.5398,-9.5398,-9.5398,-9.5398,-9.5398,-9.5398,-9.5398,-9.5398,-9.5398,-9.5398,-9.5398,-9.5398,-9.5398,-9.5398,-9.5398,-9.5398,-9.5398,-9.5398,-9.5398,-9.5398,-9.5398,-9.5398,-9.5398,-9.5398,-9.5398,-9.5398,-9.5398,-9.5398,-9.5398,-9.5398,-9.5398,-9.5398,-9.5398,-9.5398,-9.5398,-9.5398,-9.5398,-9.5398,-9.5398,-9.5398,-9.5398,-9.5398,-9.5398,-9.5398,-9.5398,-9.5398,-9.5398,-9.5229,-9.4482,-9.5418,-9.6415,-9.5581,-9.6245,-9.6774,-9.5867,-9.5361,-9.4894,-9.383,-9.3571,-9.3571,-9.3571,-9.3571,-9.3571,-9.3571,-9.3571,-9.3639,-9.3774,-9.4077,-9.4604,-9.5507,-9.5627,-9.5758,-9.6001,-9.6001,-9.6001,-9.6001,-9.6001,-9.6001,-9.6001,-9.6001,-9.6001,-9.6001,-9.6001,-9.6366,-9.7095,-9.7823,-9.8552,-9.9281,-9.9414,-9.9745,-10.0308,-10.0308,-10.0308,-10.0308,-10.0308,-10.0308,-10.0308,-10.0308,-10.0308,-10.0308,-10.0308,-10.0308,-10.0308,-10.0308,-10.0308,-10.0308,-9.5398,-9.5398,-9.5398,-9.5398,-9.5398,-9.5398,-9.5398,-9.5398,-9.5398,-9.5398,-9.5398,-9.5398,-9.5398,-9.5398,-9.5398,-9.5398,-9.5398,-9.5398,-9.5398,-9.5398,-9.5398,-9.5398,-9.5398,-9.5398,-9.5398,-9.5398,-9.5398,-9.5398,-9.5398,-9.5398,-9.5398,-9.5398,-9.5398,-9.5398,-9.5398,-9.5398,-9.5398,-9.5398,-9.5398,-9.5398,-9.5398,-9.5398,-9.5398,-9.5398,-9.5398,-9.5398,-9.5398,-9.5398,-9.5398,-9.5398,-9.5398,-9.5398,-9.5398,-9.5398,-9.5398,-9.5398,-9.5398,-9.5543,-9.6067,-9.64,-9.6668,-9.6941,-9.645,-9.5816,-9.5373,-9.5234,-9.4894,-9.383,-9.3571,-9.3571,-9.3571,-9.3571,-9.3571,-9.3571,-9.3571,-9.3808,-9.4451,-9.4594,-9.5135,-9.6521,-9.6775,-9.6581,-9.6067,-9.6001,-9.6001,-9.6001,-9.6001,-9.6001,-9.6001,-9.6001,-9.6001,-9.6001,-9.6001,-9.6366,-9.7095,-9.7823,-9.8552,-9.9281,-9.9877,-10.0209,-10.0308,-10.0308,-10.0308,-10.0308,-10.0308,-10.0308,-10.0308,-10.0308,-10.0308,-10.0308,-10.0308,-10.0308,-10.0308,-10.0308,-10.0308,-10.0308,-9.5398,-9.5398,-9.5398,-9.5398,-9.5398,-9.5398,-9.5398,-9.5398,-9.5398,-9.5398,-9.5398,-9.5398,-9.5398,-9.5398,-9.5398,-9.5398,-9.5398,-9.5398,-9.5398,-9.5398,-9.5398,-9.5398,-9.5398,-9.5398,-9.5398,-9.5398,-9.5398,-9.5398,-9.5398,-9.5398,-9.5398,-9.5398,-9.5398,-9.5398,-9.5398,-9.5398,-9.5398,-9.5398,-9.5398,-9.5398,-9.5398,-9.5398,-9.5398,-9.5398,-9.5398,-9.5398,-9.5398,-9.5398,-9.5398,-9.5398,-9.5398,-9.5398,-9.5398,-9.5398,-9.5398,-9.5398,-9.5688,-9.6123,-9.6485,-9.7245,-9.7861,-9.7406,-9.6812,-9.6135,-9.5363,-9.476,-9.4202,-9.3689,-9.3571,-9.3571,-9.3571,-9.3571,-9.3571,-9.3571,-9.3571,-9.3842,-9.462,-9.506,-9.5751,-9.6832,-9.6989,-9.6745,-9.6067,-9.6001,-9.6001,-9.6001,-9.6001,-9.6001,-9.6001,-9.6001,-9.6001,-9.6001,-9.6001,-9.6565,-9.7691,-9.8022,-9.8751,-9.9844,-10.0209,-10.0308,-10.0308,-10.0308,-10.0308,-10.0308,-10.0308,-10.0308,-10.0308,-10.0308,-10.0308,-10.0308,-10.0308,-10.0308,-10.0308,-10.0308,-10.0308,-10.0308]},{"header":{"parameterUnit":"m.s-1","parameterCategory":1,"la1":30.6,"la2":28.766,"lo1":-90.7593,"lo2":-88.6598,"dy":0.0162,"dx":0.0183,"nx":116,"ny":114,"refTime":"2024-03-21T06:00:00:Z","depth":0,"parameterNumber":3,"parameterNumberName":"V-component_of_WINDS"},"data":[0.0,0.0,0.0,0.0,0.0,0.0,0.0,0.0,0.0,0.0,0.0,0.0,0.0,0.0,0.0,0.0,0.0,0.0,0.0,0.0,0.0,0.0,0.0,0.0,0.0,0.0,0.0,0.0,0.0,0.0,0.0,0.0,0.0,0.0,0.0,0.0,0.0,0.0,0.0,0.0,0.0,0.0,0.0,0.0,0.0,0.0,0.0,0.0,0.0,0.0,0.0,0.0,0.0,0.0,0.0,0.0,0.0,0.0,0.0,0.0,0.0,0.0,0.0,0.0,0.0,0.0,0.0,0.0,0.0,0.0,0.0,0.0,0.0,0.0,0.0,0.0,0.0,0.0,0.0,0.0,0.0,0.0,0.0,0.0,0.0,0.0,0.0,0.0,0.0,0.0,0.0,0.0,0.0,0.0,0.0,0.0,0.0,0.0,0.0,0.0,0.0,0.0,0.0,0.0,0.0,0.0,0.0,0.0,0.0,0.0,0.0,0.0,0.0,0.0,0.0,0.0,0.0,0.0,0.0,0.0,0.0,0.0,0.0,0.0,0.0,0.0,0.0,0.0,0.0,0.0,0.0,0.0,0.0,0.0,0.0,0.0,0.0,0.0,0.0,0.0,0.0,0.0,0.0,0.0,0.0,0.0,0.0,0.0,0.0,0.0,0.0,0.0,0.0,0.0,0.0,0.0,0.0,0.0,0.0,0.0,0.0,0.0,0.0,0.0,0.0,0.0,0.0,0.0,0.0,0.0,0.0,0.0,0.0,0.0,0.0,0.0,0.0,0.0,0.0,0.0,0.0,0.0,0.0,0.0,0.0,0.0,0.0,0.0,0.0,0.0,0.0,0.0,0.0,0.0,0.0,0.0,0.0,0.0,0.0,0.0,0.0,0.0,0.0,0.0,0.0,0.0,0.0,0.0,0.0,0.0,0.0,0.0,0.0,0.0,0.0,0.0,0.0,0.0,0.0,0.0,0.0,0.0,0.0,0.0,0.0,0.0,0.0,0.0,0.0,0.0,0.0,0.0,0.0,0.0,0.0,0.0,0.0,0.0,0.0,0.0,0.0,0.0,0.0,0.0,0.0,0.0,0.0,0.0,0.0,0.0,0.0,0.0,0.0,0.0,0.0,0.0,0.0,0.0,0.0,0.0,0.0,0.0,0.0,0.0,0.0,0.0,0.0,0.0,0.0,0.0,0.0,0.0,0.0,0.0,0.0,0.0,0.0,0.0,0.0,0.0,0.0,0.0,0.0,0.0,0.0,0.0,0.0,0.0,0.0,0.0,0.0,0.0,0.0,0.0,0.0,0.0,0.0,0.0,0.0,0.0,0.0,0.0,0.0,0.0,0.0,0.0,0.0,0.0,0.0,0.0,0.0,0.0,0.0,0.0,0.0,0.0,0.0,0.0,0.0,0.0,0.0,0.0,0.0,0.0,0.0,0.0,0.0,0.0,0.0,0.0,0.0,0.0,0.0,0.0,0.0,0.0,0.0,0.0,0.0,0.0,0.0,0.0,0.0,0.0,0.0,0.0,0.0,0.0,0.0,0.0,0.0,0.0,0.0,0.0,0.0,0.0,0.0,0.0,0.0,0.0,0.0,0.0,0.0,0.0,0.0,0.0,0.0,0.0,0.0,0.0,0.0,0.0,0.0,0.0,0.0,0.0,0.0,0.0,0.0,0.0,0.0,0.0,0.0,0.0,0.0,0.0,0.0,0.0,0.0,0.0,0.0,0.0,0.0,0.0,0.0,0.0,0.0,0.0,0.0,0.0,0.0,0.0,0.0,0.0,0.0,0.0,0.0,0.0,0.0,0.0,0.0,0.0,0.0,0.0,0.0,0.0,0.0,0.0,0.0,0.0,0.0,0.0,0.0,0.0,0.0,0.0,0.0,0.0,0.0,0.0,0.0,0.0,0.0,0.0,0.0,0.0,0.0,0.0,0.0,0.0,0.0,0.0,0.0,0.0,0.0,0.0,0.0,0.0,0.0,0.0,0.0,0.0,0.0,0.0,0.0,0.0,0.0,0.0,0.0,0.0,0.0,0.0,0.0,0.0,0.0,0.0,0.0,0.0,0.0,0.0,0.0,0.0,0.0,0.0,0.0,0.0,0.0,0.0,0.0,0.0,0.0,0.0,0.0,0.0,0.0,0.0,0.0,0.0,0.0,0.0,0.0,0.0,0.0,0.0,0.0,0.0,0.0,0.0,0.0,0.0,0.0,0.0,0.0,0.0,0.0,0.0,0.0,0.0,0.0,0.0,0.0,0.0,0.0,0.0,0.0,0.0,0.0,0.0,0.0,0.0,0.0,0.0,0.0,0.0,0.0,0.0,0.0,0.0,0.0,0.0,0.0,0.0,0.0,0.0,0.0,0.0,0.0,0.0,0.0,0.0,0.0,0.0,0.0,0.0,0.0,0.0,0.0,0.0,0.0,0.0,0.0,0.0,0.0,0.0,0.0,0.0,0.0,0.0,0.0,0.0,0.0,0.0,0.0,0.0,0.0,0.0,0.0,0.0,0.0,0.0,0.0,0.0,0.0,0.0,0.0,0.0,0.0,0.0,0.0,0.0,0.0,0.0,0.0,0.0,0.0,0.0,0.0,0.0,0.0,0.0,0.0,0.0,0.0,0.0,0.0,0.0,0.0,0.0,0.0,0.0,0.0,0.0,0.0,0.0,0.0,0.0,0.0,0.0,0.0,0.0,0.0,0.0,0.0,0.0,0.0,0.0,0.0,0.0,0.0,0.0,0.0,0.0,0.0,0.0,0.0,0.0,0.0,0.0,0.0,0.0,0.0,0.0,0.0,0.0,0.0,0.0,0.0,0.0,0.0,0.0,0.0,0.0,0.0,0.0,0.0,0.0,0.0,0.0,0.0,0.0,0.0,0.0,0.0,0.0,0.0,0.0,0.0,0.0,0.0,0.0,0.0,0.0,0.0,0.0,0.0,0.0,0.0,0.0,0.0,0.0,0.0,0.0,0.0,0.0,0.0,0.0,0.0,0.0,0.0,0.0,0.0,0.0,0.0,0.0,0.0,0.0,0.0,0.0,0.0,0.0,0.0,0.0,0.0,0.0,0.0,0.0,0.0,0.0,0.0,0.0,0.0,0.0,0.0,0.0,0.0,0.0,0.0,0.0,0.0,0.0,0.0,0.0,0.0,0.0,0.0,0.0,0.0,0.0,0.0,0.0,0.0,0.0,0.0,0.0,0.0,0.0,0.0,0.0,0.0,0.0,0.0,0.0,0.0,0.0,0.0,0.0,0.0,0.0,0.0,0.0,0.0,0.0,0.0,0.0,0.0,0.0,0.0,0.0,0.0,0.0,0.0,0.0,0.0,0.0,0.0,0.0,0.0,0.0,0.0,0.0,0.0,0.0,0.0,0.0,0.0,0.0,0.0,0.0,0.0,0.0,0.0,0.0,0.0,0.0,0.0,0.0,0.0,0.0,0.0,0.0,0.0,0.0,0.0,0.0,0.0,0.0,0.0,0.0,0.0,0.0,0.0,0.0,0.0,0.0,0.0,0.0,0.0,0.0,0.0,0.0,0.0,0.0,0.0,0.0,0.0,0.0,0.0,0.0,0.0,0.0,0.0,0.0,0.0,0.0,0.0,0.0,0.0,0.0,0.0,0.0,0.0,0.0,0.0,0.0,0.0,0.0,0.0,0.0,0.0,0.0,0.0,0.0,0.0,0.0,0.0,0.0,0.0,0.0,0.0,0.0,0.0,0.0,0.0,0.0,0.0,0.0,0.0,0.0,0.0,0.0,0.0,0.0,0.0,0.0,0.0,0.0,0.0,0.0,0.0,0.0,0.0,0.0,0.0,0.0,0.0,0.0,0.0,0.0,0.0,0.0,0.0,0.0,0.0,0.0,0.0,0.0,0.0,0.0,0.0,0.0,0.0,0.0,0.0,0.0,0.0,0.0,0.0,0.0,0.0,0.0,0.0,0.0,0.0,0.0,0.0,0.0,0.0,0.0,0.0,0.0,0.0,0.0,0.0,0.0,0.0,0.0,0.0,0.0,0.0,0.0,0.0,0.0,0.0,0.0,0.0,0.0,0.0,0.0,0.0,0.0,0.0,0.0,0.0,0.0,0.0,0.0,0.0,0.0,0.0,0.0,0.0,0.0,0.0,0.0,0.0,0.0,0.0,0.0,0.0,0.0,0.0,0.0,0.0,0.0,0.0,0.0,0.0,0.0,0.0,0.0,0.0,0.0,0.0,0.0,0.0,0.0,0.0,0.0,0.0,0.0,0.0,0.0,0.0,0.0,0.0,0.0,0.0,0.0,0.0,0.0,0.0,0.0,0.0,0.0,0.0,0.0,0.0,0.0,0.0,0.0,0.0,0.0,0.0,0.0,0.0,0.0,0.0,0.0,0.0,0.0,0.0,0.0,0.0,0.0,0.0,0.0,0.0,0.0,0.0,0.0,0.0,0.0,0.0,0.0,0.0,0.0,0.0,0.0,0.0,0.0,0.0,0.0,0.0,0.0,0.0,0.0,0.0,0.0,0.0,0.0,0.0,0.0,0.0,0.0,0.0,0.0,0.0,0.0,0.0,0.0,0.0,0.0,0.0,0.0,0.0,0.0,0.0,0.0,0.0,0.0,0.0,0.0,0.0,0.0,0.0,0.0,0.0,0.0,0.0,0.0,0.0,0.0,0.0,0.0,0.0,0.0,0.0,0.0,0.0,0.0,0.0,0.0,0.0,0.0,0.0,0.0,0.0,0.0,0.0,0.0,0.0,0.0,0.0,0.0,0.0,0.0,0.0,0.0,0.0,0.0,0.0,0.0,0.0,0.0,0.0,0.0,0.0,0.0,0.0,0.0,0.0,0.0,0.0,0.0,0.0,0.0,0.0,0.0,0.0,0.0,0.0,0.0,0.0,0.0,0.0,0.0,0.0,0.0,0.0,0.0,0.0,0.0,0.0,0.0,0.0,0.0,0.0,0.0,0.0,0.0,0.0,0.0,0.0,0.0,0.0,0.0,0.0,0.0,0.0,0.0,0.0,0.0,0.0,0.0,0.0,0.0,0.0,0.0,0.0,0.0,0.0,0.0,0.0,0.0,0.0,0.0,0.0,0.0,0.0,0.0,0.0,0.0,0.0,0.0,0.0,0.0,0.0,0.0,0.0,0.0,0.0,0.0,0.0,0.0,0.0,0.0,0.0,0.0,0.0,0.0,0.0,0.0,0.0,0.0,0.0,0.0,0.0,0.0,0.0,0.0,0.0,0.0,0.0,0.0,0.0,0.0,0.0,0.0,0.0,0.0,0.0,0.0,0.0,0.0,0.0,0.0,0.0,0.0,0.0,0.0,0.0,0.0,0.0,0.0,0.0,0.0,0.0,0.0,0.0,0.0,0.0,0.0,0.0,0.0,0.0,0.0,0.0,0.0,0.0,0.0,0.0,0.0,0.0,0.0,0.0,0.0,0.0,0.0,0.0,0.0,0.0,0.0,0.0,0.0,0.0,0.0,0.0,0.0,0.0,0.0,0.0,0.0,0.0,0.0,0.0,0.0,0.0,0.0,0.0,0.0,0.0,0.0,0.0,0.0,0.0,0.0,0.0,0.0,0.0,0.0,0.0,0.0,0.0,0.0,0.0,0.0,0.0,0.0,0.0,0.0,0.0,0.0,0.0,0.0,0.0,0.0,0.0,0.0,0.0,0.0,0.0,0.0,0.0,0.0,0.0,0.0,0.0,0.0,0.0,0.0,0.0,0.0,0.0,0.0,0.0,0.0,0.0,0.0,0.0,0.0,0.0,0.0,0.0,0.0,0.0,0.0,0.0,0.0,0.0,0.0,0.0,0.0,0.0,0.0,0.0,0.0,0.0,0.0,0.0,0.0,0.0,0.0,0.0,0.0,0.0,0.0,0.0,0.0,0.0,0.0,0.0,0.0,0.0,0.0,0.0,0.0,0.0,0.0,0.0,0.0,0.0,0.0,0.0,0.0,0.0,0.0,0.0,0.0,0.0,0.0,0.0,0.0,0.0,0.0,0.0,0.0,0.0,0.0,0.0,0.0,0.0,0.0,0.0,0.0,0.0,0.0,0.0,0.0,0.0,0.0,0.0,0.0,0.0,0.0,0.0,0.0,0.0,0.0,0.0,0.0,6.8764,6.8764,0.0,0.0,0.0,0.0,0.0,0.0,0.0,0.0,0.0,0.0,0.0,0.0,0.0,0.0,0.0,0.0,0.0,0.0,0.0,0.0,0.0,0.0,0.0,0.0,0.0,0.0,3.6597,3.6597,3.6597,3.6597,0.0,0.0,0.0,0.0,0.0,0.0,4.9433,5.1429,5.1701,5.1791,5.1791,5.1791,5.1791,5.1791,0.0,0.0,0.0,0.0,0.0,0.0,0.0,0.0,0.0,0.0,0.0,0.0,0.0,0.0,0.0,0.0,0.0,0.0,0.0,0.0,0.0,0.0,0.0,0.0,0.0,0.0,0.0,0.0,0.0,0.0,0.0,0.0,0.0,0.0,0.0,0.0,0.0,0.0,0.0,0.0,0.0,0.0,0.0,0.0,0.0,0.0,0.0,0.0,0.0,0.0,0.0,0.0,0.0,0.0,0.0,0.0,0.0,0.0,0.0,0.0,0.0,0.0,0.0,0.0,0.0,0.0,0.0,0.0,0.0,0.0,6.8764,6.8764,0.0,0.0,0.0,0.0,0.0,0.0,0.0,0.0,0.0,0.0,0.0,0.0,0.0,0.0,0.0,0.0,0.0,0.0,0.0,0.0,0.0,0.0,0.0,3.6597,3.6597,3.6597,3.6597,3.6597,3.6597,3.6597,3.6597,3.6711,3.9964,4.2533,4.4323,4.764,5.0114,5.1791,5.1791,5.1791,5.1791,5.1791,5.1791,5.1791,5.1791,0.0,0.0,0.0,0.0,0.0,0.0,0.0,0.0,0.0,0.0,0.0,0.0,0.0,0.0,0.0,0.0,0.0,0.0,0.0,0.0,0.0,0.0,0.0,0.0,0.0,0.0,0.0,0.0,0.0,0.0,0.0,0.0,0.0,0.0,0.0,0.0,0.0,0.0,0.0,0.0,0.0,0.0,0.0,0.0,0.0,0.0,0.0,0.0,0.0,0.0,0.0,0.0,0.0,0.0,0.0,0.0,0.0,0.0,0.0,0.0,0.0,0.0,0.0,6.8764,6.8764,6.8764,6.8952,6.9004,6.9004,6.9108,6.9082,6.903,6.9501,0.0,0.0,0.0,0.0,0.0,0.0,0.0,0.0,0.0,0.0,0.0,0.0,0.0,0.0,0.0,0.0,0.0,0.0,0.0,3.6597,3.6597,3.6597,3.6597,3.6597,3.6597,3.6597,3.6597,3.6597,3.6809,3.7303,4.1478,4.4134,4.489,4.9138,5.152,5.1791,5.1791,5.1791,5.1791,5.1791,5.1791,5.1791,5.1791,5.1791,5.1791,0.0,0.0,0.0,0.0,0.0,0.0,0.0,0.0,0.0,0.0,0.0,0.0,0.0,0.0,0.0,0.0,0.0,0.0,0.0,0.0,0.0,0.0,0.0,0.0,0.0,0.0,0.0,0.0,0.0,0.0,0.0,0.0,0.0,0.0,0.0,0.0,0.0,0.0,0.0,0.0,0.0,6.8769,6.8764,0.0,0.0,0.0,0.0,0.0,0.0,0.0,0.0,0.0,0.0,0.0,0.0,0.0,6.8764,6.8764,6.8764,6.8764,6.8764,6.8764,6.8764,6.879,6.9344,6.9579,6.9605,7.0128,0.0,6.9579,6.9657,0.0,0.0,0.0,0.0,0.0,0.0,0.0,0.0,0.0,0.0,0.0,0.0,0.0,0.0,0.0,0.0,0.0,0.0,0.0,0.0,0.0,3.6597,3.6597,3.6597,3.6908,3.7007,3.7007,3.7007,3.7106,3.7401,4.1766,4.4323,4.4512,4.9341,5.1791,5.1791,5.1791,5.1791,5.1791,5.1791,5.1791,5.1791,5.1791,5.1791,5.1791,5.1791,0.0,0.0,0.0,0.0,0.0,0.0,0.0,0.0,0.0,0.0,0.0,0.0,0.0,0.0,0.0,0.0,0.0,0.0,0.0,0.0,0.0,0.0,0.0,0.0,0.0,0.0,0.0,0.0,0.0,0.0,0.0,0.0,0.0,0.0,0.0,0.0,0.0,0.0,0.0,6.8764,6.8764,6.8764,6.8764,6.8764,0.0,0.0,0.0,0.0,0.0,0.0,0.0,0.0,0.0,6.8764,6.8764,6.8764,6.8764,6.8764,6.8764,6.8764,6.9161,6.9318,6.9344,6.9945,7.0206,7.0206,7.0494,7.0624,7.0651,7.0651,7.0807,7.1069,0.0,0.0,0.0,0.0,7.1565,7.1565,0.0,0.0,0.0,0.0,0.0,0.0,0.0,0.0,0.0,0.0,0.0,0.0,3.6597,3.6597,3.6711,3.6809,3.7204,3.75,3.7598,3.75,3.778,3.8549,4.215,4.4607,4.5361,4.9616,5.1791,5.1791,5.1791,5.1791,5.1791,5.1791,5.1791,5.1791,5.1791,5.1791,5.1791,5.1791,5.1791,5.1791,0.0,0.0,0.0,0.0,0.0,0.0,0.0,0.0,0.0,0.0,0.0,0.0,0.0,0.0,0.0,0.0,0.0,0.0,0.0,0.0,0.0,0.0,0.0,0.0,0.0,0.0,0.0,0.0,0.0,0.0,0.0,0.0,0.0,0.0,0.0,0.0,0.0,6.8764,6.8764,6.8764,6.8764,6.8764,0.0,0.0,0.0,0.0,0.0,0.0,6.8764,6.8764,6.8764,6.8764,6.8764,6.8764,6.8764,6.8764,6.8926,6.9082,6.9501,6.9788,6.9945,7.0546,7.0807,7.0807,7.0964,7.1252,7.1618,7.1461,7.1487,7.167,7.2114,7.2297,7.2297,7.2297,7.2297,7.2297,0.0,0.0,0.0,0.0,0.0,0.0,0.0,0.0,0.0,0.0,0.0,3.6597,3.6597,3.6597,3.6809,3.7303,3.7401,3.7598,3.8105,3.7697,3.8745,4.159,4.3279,4.5549,4.8512,5.0661,5.1791,5.1791,5.1791,5.1791,5.1791,5.1791,5.1791,5.1791,5.1791,5.1791,5.1791,5.1791,5.1791,5.1791,5.1791,0.0,0.0,0.0,0.0,0.0,0.0,0.0,0.0,0.0,0.0,0.0,0.0,0.0,0.0,0.0,0.0,0.0,0.0,0.0,0.0,0.0,0.0,0.0,0.0,0.0,0.0,0.0,0.0,0.0,0.0,0.0,0.0,0.0,0.0,0.0,0.0,0.0,0.0,6.8764,6.8764,0.0,0.0,0.0,0.0,6.8764,6.8764,6.8764,6.8764,6.8764,6.8764,6.8764,6.8764,6.8764,6.8764,6.8764,6.9108,6.9657,6.9684,6.9997,7.0572,7.1121,7.1356,7.1382,7.1958,7.2219,7.2219,7.1644,7.1748,7.2271,7.2297,7.2297,7.2297,7.2297,7.2297,7.2297,0.0,0.0,0.0,0.0,0.0,0.0,0.0,0.0,3.6597,3.6597,3.6597,3.6597,3.6597,3.6908,3.7007,3.6908,3.7795,3.8384,3.8203,3.951,4.0836,4.1975,4.4984,4.7899,5.0661,5.1429,5.1791,5.1791,5.1791,5.1791,5.1791,5.1791,5.1791,5.1791,5.1791,5.1791,5.1791,5.1791,5.1791,5.1791,5.1791,5.1791,0.0,0.0,0.0,0.0,0.0,0.0,0.0,0.0,0.0,0.0,0.0,0.0,0.0,0.0,0.0,0.0,0.0,0.0,0.0,0.0,0.0,0.0,0.0,0.0,0.0,0.0,0.0,0.0,0.0,0.0,0.0,0.0,0.0,0.0,0.0,0.0,0.0,6.8764,6.8764,0.0,6.8764,6.8764,6.8764,6.8764,6.8764,6.8764,6.8764,6.8764,6.8764,6.8764,6.8764,6.8764,6.8764,6.9213,6.9501,6.971,7.0442,7.0912,7.1121,7.1722,7.1984,7.1984,7.2219,7.2297,7.2271,7.2062,7.2114,7.2297,7.2297,7.2297,7.2297,7.2297,7.2297,7.2297,0.0,0.0,0.0,0.0,0.0,0.0,0.0,3.6597,3.6597,3.6597,3.6597,3.6597,3.6597,3.6908,3.7106,3.6908,3.7991,3.8678,3.8482,4.0659,4.2358,4.3218,4.7157,5.0074,5.1791,5.1791,5.1791,5.1791,5.1791,5.1791,5.1791,5.1791,5.1791,5.1791,5.1791,5.1791,5.1791,5.1791,5.1791,5.1791,5.1791,5.1791,5.1895,0.0,0.0,0.0,0.0,0.0,0.0,0.0,0.0,0.0,0.0,0.0,0.0,0.0,0.0,0.0,0.0,0.0,0.0,0.0,0.0,0.0,0.0,0.0,0.0,0.0,0.0,0.0,0.0,0.0,0.0,0.0,0.0,0.0,0.0,6.8764,6.8764,6.8764,6.8764,6.8764,6.8764,6.8764,6.8764,6.8764,6.8764,6.8764,6.8764,6.8764,6.8764,6.8764,6.8764,6.8952,6.9135,6.9501,6.9893,7.0285,7.1043,7.1513,7.1722,7.2114,7.2297,7.2297,7.2297,7.2297,7.2297,7.2297,7.2297,7.2297,7.2297,7.2297,7.2297,7.2297,7.2297,7.2297,0.0,0.0,0.0,0.0,0.0,0.0,3.6597,3.6597,3.6597,3.6597,3.6597,3.6597,3.6597,3.6597,3.6809,3.7303,3.7908,3.8497,3.8971,4.0949,4.3218,4.5792,4.9728,5.1791,5.1791,5.1791,5.1791,5.1791,5.1791,5.1791,5.1791,5.1791,5.1791,5.1791,5.1791,5.1791,5.1791,5.1791,5.1791,5.1791,5.1791,5.1812,5.1915,0.0,0.0,0.0,0.0,0.0,0.0,0.0,0.0,0.0,0.0,0.0,0.0,0.0,0.0,0.0,0.0,0.0,0.0,0.0,0.0,0.0,0.0,0.0,0.0,0.0,0.0,0.0,0.0,0.0,0.0,0.0,0.0,0.0,6.8764,6.8764,6.8764,6.8764,6.8764,6.8764,6.8764,6.8764,6.8764,6.8764,6.8764,6.8764,6.8764,6.8764,6.8764,6.8764,6.879,6.9135,6.9684,6.9736,7.0311,7.1409,7.1409,7.1722,7.2297,7.2297,7.2297,7.2297,7.2297,7.2297,7.2297,7.2297,7.2297,7.2297,7.2297,7.2297,7.2297,7.2297,7.2297,7.2297,0.0,0.0,0.0,0.0,0.0,0.0,3.6597,3.6597,3.6597,3.6597,3.6597,3.6597,3.6597,3.6908,3.7204,3.7401,3.8286,3.8874,3.8971,4.1255,4.4169,4.7845,5.0388,5.1791,5.1791,5.1791,5.1791,5.1791,5.1791,5.1791,5.1791,5.1791,5.1791,5.1791,5.1791,5.1791,5.1791,5.1791,5.1791,5.1791,5.1791,5.1998,5.2371,0.0,0.0,0.0,0.0,0.0,0.0,0.0,0.0,0.0,0.0,0.0,0.0,0.0,0.0,0.0,0.0,0.0,0.0,0.0,0.0,0.0,0.0,0.0,0.0,0.0,0.0,0.0,0.0,0.0,0.0,0.0,6.672,6.7256,6.8597,6.8764,6.8764,6.8764,6.8764,6.8764,6.8764,6.8764,6.8764,6.8764,6.8764,6.8764,6.8764,6.8764,6.8764,6.8764,6.9239,6.9527,6.9684,7.052,7.1095,7.1409,7.1853,7.214,7.2297,7.2297,7.2297,7.2297,7.2297,7.2297,7.2297,7.2297,7.2297,7.2297,7.2297,7.2297,7.2297,7.2297,7.2297,7.2297,0.0,0.0,0.0,0.0,0.0,0.0,3.6597,3.6597,3.6597,3.6597,3.6597,3.6597,3.6597,3.6908,3.7106,3.7106,3.7893,3.8384,3.8384,4.1703,4.5585,4.9819,5.1136,5.1791,5.1791,5.1791,5.1791,5.1791,5.1791,5.1791,5.1791,5.1791,5.1791,5.1791,5.1791,5.1791,5.1791,5.1791,5.1791,5.1791,5.1791,5.2081,5.2536,5.3013,5.3468,5.3808,5.4379,5.4544,5.4544,5.4544,0.0,0.0,0.0,0.0,0.0,0.0,0.0,0.0,0.0,0.0,0.0,0.0,0.0,0.0,0.0,0.0,0.0,0.0,0.0,0.0,0.0,0.0,0.0,0.0,6.7171,6.751,6.868,6.8764,6.8764,6.8764,6.8764,6.8764,6.8764,6.8764,6.8764,6.8764,6.8764,6.8764,6.8764,6.8764,6.8952,6.9187,6.9527,6.9919,7.0415,7.1069,7.1539,7.1775,7.214,7.2297,7.2297,7.2297,7.2297,7.2297,7.2297,7.2297,7.2297,7.2297,7.2297,7.2297,0.0,0.0,0.0,0.0,7.2297,7.2297,0.0,0.0,0.0,0.0,0.0,0.0,3.6597,3.6597,3.6597,3.6597,3.6597,3.6597,3.6597,3.6597,3.6597,3.6711,3.7106,3.7401,3.7598,4.2246,4.6878,5.0955,5.152,5.1791,5.1791,5.1791,5.1791,5.1791,5.1791,5.1791,5.1791,5.1791,5.1791,5.1791,5.1791,5.1791,5.1791,5.1791,5.1791,5.1791,5.1791,5.2102,5.2619,5.3033,5.3489,5.3985,5.4399,5.4544,5.4544,5.4544,0.0,0.0,0.0,0.0,0.0,0.0,0.0,0.0,0.0,0.0,0.0,0.0,0.0,0.0,0.0,0.0,0.0,0.0,0.0,0.0,0.0,0.0,0.0,0.0,6.8403,6.8764,6.8487,6.868,6.8764,6.8764,6.8764,6.8764,6.8764,6.8764,6.8764,6.8764,6.8764,6.8764,6.8764,6.8899,0.0,0.0,0.0,7.0389,7.1382,7.1461,7.1775,7.2297,7.2297,7.2297,7.2297,7.2297,7.2297,7.2297,7.2297,7.2297,7.2297,7.2297,7.2297,7.2297,7.2297,7.2297,7.2297,7.2297,7.2297,7.2297,0.0,0.0,0.0,0.0,0.0,0.0,3.6597,3.6597,3.6597,3.6597,3.6597,3.6597,3.6597,3.6597,3.6795,3.7204,3.7303,3.7795,3.8678,4.3028,4.6055,4.6915,5.0094,5.1791,5.1791,5.1791,5.1791,5.1791,5.1791,5.1791,5.1791,5.1791,5.1791,5.1791,5.1791,5.1791,5.1791,5.1791,5.1791,5.1791,5.1791,5.2309,5.3054,5.3157,5.3696,5.442,5.4503,5.4544,5.4544,5.4544,5.4544,5.4544,5.4544,5.4544,0.0,0.0,0.0,0.0,0.0,0.0,0.0,0.0,0.0,0.0,0.0,0.0,0.0,0.0,0.0,0.0,0.0,0.0,0.0,6.2404,6.5839,6.8235,6.672,6.7873,6.8764,6.8764,6.8764,6.8764,6.8764,6.8764,6.8764,6.8764,6.8764,6.8764,6.8764,6.9291,6.9579,6.9684,7.0598,7.1173,7.1409,7.1879,7.2193,7.2297,7.2297,0.0,7.2297,7.2297,7.2297,7.2297,7.2297,7.2297,7.2297,7.2297,7.2297,7.2297,7.2297,7.2297,7.2297,7.2297,7.2297,7.2297,0.0,0.0,0.0,0.0,0.0,0.0,3.6597,3.6597,3.6597,3.6597,3.6597,3.6597,3.6597,3.6597,3.6711,3.7007,3.7007,3.778,3.9591,4.1879,4.3772,4.5285,4.8289,4.9982,5.0297,5.1318,5.1791,5.1791,5.1791,5.1791,5.1791,5.1791,5.1791,5.1791,5.1791,5.1791,5.1791,5.1791,5.1791,5.1791,5.1791,5.235,5.3178,5.3178,5.3758,5.4544,5.4544,5.4544,5.4544,5.4544,5.4544,5.4544,5.4544,5.4544,5.4544,0.0,0.0,0.0,0.0,0.0,0.0,0.0,0.0,0.0,0.0,0.0,0.0,0.0,0.0,5.6911,5.7749,0.0,6.2291,6.1869,6.4951,6.672,6.4864,6.7001,6.8764,6.8764,6.8764,6.8764,6.8764,6.8764,6.8764,6.8764,6.9108,6.9265,6.9265,6.9814,7.0259,7.0546,7.1095,7.1539,7.1853,7.214,7.2297,7.2297,7.2297,7.2297,7.2297,7.2297,7.2297,7.2297,7.2297,7.2297,7.2297,7.2297,7.2297,7.2297,7.2297,7.2297,7.2297,7.2297,7.2297,7.2297,0.0,0.0,0.0,0.0,0.0,0.0,3.6597,3.6597,3.6597,3.6597,3.6597,3.6597,3.6597,3.6597,3.6597,3.6597,3.6696,3.7666,3.9657,4.0239,4.167,4.4134,4.6299,4.7621,4.803,4.9728,5.0864,5.1227,5.1227,5.1429,5.1791,5.1791,5.1791,5.1791,5.1791,5.1791,5.1791,5.1791,5.1791,5.1791,5.1791,5.235,5.3178,5.3178,5.3758,5.4544,5.4544,5.4544,5.4544,5.4544,5.4544,5.4544,5.4544,5.4544,5.4544,5.4544,5.4544,0.0,0.0,0.0,0.0,0.0,0.0,0.0,0.0,5.4544,5.4544,5.4639,5.4702,5.5599,5.8044,5.8943,5.9999,6.1882,6.4221,6.5098,6.3159,6.5905,6.8124,6.8546,6.8805,6.9004,6.9004,6.9108,6.9187,6.9187,6.9605,6.9866,6.9866,7.0442,7.0938,7.1382,7.1513,7.1801,7.2297,7.2297,7.2297,7.2297,7.2297,7.2297,7.2297,7.2297,7.2297,7.2297,7.2297,7.2297,7.2297,7.2297,7.2297,7.2297,7.2297,7.2297,7.2297,7.2297,7.2297,7.2297,0.0,0.0,0.0,0.0,0.0,0.0,0.0,0.0,3.6597,3.6597,3.6597,3.6597,3.6597,3.6597,3.6597,3.6597,3.7007,3.7401,3.7681,3.9883,4.1205,4.159,4.4039,4.5361,4.5455,4.6149,4.7381,4.9157,4.9157,5.0002,5.1791,5.1791,5.1791,5.1791,5.1791,5.1791,5.1791,5.1791,5.1791,5.1791,5.1791,5.235,5.3178,5.3178,5.3758,5.4544,5.4544,5.4544,5.4544,5.4544,5.4544,5.4544,5.4544,5.4544,5.4544,5.4544,5.4544,5.4544,5.4544,5.4544,5.4544,5.4544,5.4544,5.4544,0.0,5.4544,5.4639,5.5114,5.5544,5.6104,5.6845,5.9091,6.0274,5.8927,6.2133,6.412,6.2249,6.3781,6.5762,6.7493,6.8845,6.9605,6.9605,7.0076,7.0389,7.0389,7.0468,7.0494,7.0494,7.1017,7.133,7.1409,7.1931,7.2219,7.2297,7.2297,7.2297,7.2297,7.2297,7.2297,7.2297,7.2297,7.2297,7.2297,7.2297,7.2297,7.2297,7.2297,7.2297,7.2297,7.2297,7.2297,7.2297,7.2297,7.2297,7.2297,0.0,0.0,0.0,0.0,0.0,0.0,0.0,0.0,3.6597,3.6597,3.6597,3.6597,3.6597,3.6597,3.6597,3.6597,3.6809,3.6908,3.6908,3.7961,3.8632,3.8925,4.1092,4.2611,4.3201,4.4625,4.5867,4.7008,4.8235,4.9249,5.0114,5.1227,5.1791,5.1791,5.1791,5.1791,5.1791,5.1791,5.1791,5.1791,5.1791,5.235,5.3178,5.3178,5.3758,5.4544,5.4544,5.4544,0.0,5.4544,5.4544,5.4544,5.4544,5.4544,5.4544,5.4544,5.4544,5.4544,5.4544,5.4544,5.4544,5.4544,5.4544,5.4544,5.4544,5.4544,5.4606,5.5142,5.535,5.575,5.6504,5.7613,5.8317,5.7806,6.0454,6.1832,5.9933,6.2572,6.4493,6.4221,6.6031,6.8045,7.0062,6.936,6.9316,7.0513,7.0886,7.1069,7.1069,7.1618,7.1931,7.1931,7.2167,7.2297,7.2297,7.2297,7.2297,7.2297,7.2297,7.2297,7.2297,7.2297,7.2297,7.2297,7.2297,7.2297,7.2297,7.2297,7.2297,7.2297,7.2297,7.2297,7.2297,7.2297,7.2297,7.2297,0.0,0.0,0.0,0.0,0.0,0.0,0.0,0.0,0.0,0.0,3.6597,3.6597,3.6597,3.6597,3.6597,3.6597,3.6597,3.6597,3.6597,3.6597,3.6795,3.7204,3.8729,3.9964,4.0739,4.2437,4.3772,4.4737,4.6336,4.7474,4.803,4.9453,5.0479,5.0955,5.0955,5.1248,5.1791,5.1791,5.1791,5.1791,5.1791,5.235,5.3178,5.3178,5.3758,5.4544,5.4544,5.4544,5.4544,5.4544,5.4544,5.4544,5.4544,5.4544,5.4544,5.4544,5.4544,5.4544,5.4544,5.4544,5.4544,5.4544,5.4544,5.4544,5.4544,5.4627,5.4793,5.5124,5.5393,5.5759,5.6481,5.6823,5.7123,5.7534,5.9209,5.993,5.8771,6.1258,6.3014,6.2268,6.3362,6.5471,6.9103,6.8587,6.8939,7.0896,7.1435,7.1644,7.1644,7.2062,7.2297,7.2297,7.214,7.214,7.2297,7.214,7.214,7.2297,7.2297,7.2297,7.2297,7.2297,7.2297,7.2297,7.2297,7.2297,7.2297,7.2297,7.2297,7.2297,7.2297,7.2297,7.2297,7.2297,7.2297,7.2297,0.0,0.0,0.0,0.0,0.0,0.0,0.0,0.0,0.0,0.0,0.0,3.6597,3.6597,3.6597,3.6597,3.6597,3.6597,3.6597,3.6597,3.6597,3.6612,3.6597,3.7204,3.75,3.75,3.8662,4.019,4.2071,4.2663,4.3997,4.5886,4.5979,4.7008,4.8881,4.8881,5.0002,5.1791,5.1791,5.1791,5.1791,5.1791,5.235,5.3178,5.3178,5.3758,5.4544,5.4544,5.4544,5.4544,5.4544,5.4544,5.4544,5.4544,5.4544,5.4544,5.4544,5.4544,5.4544,5.4544,5.4544,5.4544,5.4544,5.4544,5.4544,5.4544,5.4855,5.5165,5.5186,5.589,5.6531,5.663,5.7301,5.799,5.799,5.8486,5.9078,5.9472,5.9668,6.0602,6.3039,6.169,6.215,6.6118,6.8139,7.0082,7.207,7.2271,7.2271,7.2271,7.2297,7.2297,7.2297,7.1722,7.1696,7.2297,7.1722,7.1722,7.2297,7.2297,7.2297,7.2297,7.2297,7.2297,7.2297,7.2297,7.2297,7.2297,7.2297,7.2297,7.2297,7.2297,7.2297,7.2297,7.2297,7.2297,7.2297,0.0,0.0,0.0,0.0,0.0,0.0,0.0,0.0,0.0,0.0,0.0,0.0,0.0,0.0,0.0,0.0,3.6597,3.6597,3.6597,3.6597,3.6597,3.6597,3.6809,3.7007,3.7401,3.7795,3.8467,3.9428,4.1045,4.2279,4.3314,4.4625,4.5849,4.6915,4.8216,4.9157,4.9911,5.1227,5.1791,5.1791,5.1791,5.235,5.3178,5.3178,5.3758,5.4544,0.0,5.4544,5.4544,5.4544,5.4544,5.4544,5.4544,5.4544,5.4544,5.4544,5.4544,5.4544,5.4544,5.4544,5.4544,5.4544,5.4544,5.4606,5.4896,5.5082,5.5352,5.5973,5.6345,5.6656,5.6945,5.7231,5.7435,5.7435,5.7933,5.833,5.8528,5.8825,5.9515,6.0743,6.0299,6.1035,6.4106,6.5047,6.6722,7.0044,6.912,6.948,7.2122,7.0986,7.0159,6.9866,7.1242,7.1267,6.9866,7.1267,7.2114,7.2297,7.2297,7.2297,7.2297,7.2297,7.2297,7.2297,7.2297,7.2297,7.2297,7.2297,7.2297,7.2297,7.2297,7.2297,7.235,7.2716,7.2846,7.2794,0.0,0.0,0.0,0.0,0.0,0.0,0.0,0.0,0.0,0.0,0.0,0.0,0.0,0.0,0.0,0.0,0.0,3.6597,3.6597,3.6597,3.6597,3.6597,3.6597,3.6809,3.7106,3.7303,3.7598,3.7908,3.9428,4.0271,4.0659,4.1975,4.3201,4.4548,4.5773,4.6896,4.7845,4.9819,5.0773,5.0773,5.152,5.235,5.3178,5.3178,5.3758,0.0,5.4544,5.4544,5.4544,5.4544,5.4544,5.4544,5.4544,5.4544,5.4544,5.4544,5.4544,5.4544,5.4544,5.4544,5.4544,5.4544,5.4544,5.4648,5.5082,5.531,5.5641,5.6407,5.6697,5.6883,5.7173,5.7235,5.7235,5.7235,5.7535,5.7834,5.7933,5.833,5.8726,5.922,5.9515,6.0278,6.1883,6.2268,6.394,6.7915,6.7066,6.7433,7.0044,6.8765,6.7933,6.785,6.9663,7.0042,6.8862,7.0978,7.2088,7.2297,7.2297,7.2297,7.2297,7.2297,7.2297,7.2297,7.2297,7.2297,7.2297,7.2297,7.2428,7.2585,7.2585,7.2716,7.2951,7.3291,7.3421,7.3369,0.0,0.0,0.0,0.0,0.0,0.0,0.0,0.0,0.0,0.0,0.0,0.0,0.0,0.0,0.0,0.0,0.0,0.0,3.6597,3.6597,3.6597,3.6597,3.6597,3.6597,3.6597,3.7106,3.7401,3.7401,3.7893,3.8105,3.8203,3.8203,3.9428,4.1783,4.1879,4.3409,4.5886,4.7938,4.8789,4.9157,5.1046,5.235,5.3178,5.3178,5.3758,5.4544,5.4544,5.4544,5.4544,5.4544,5.4544,5.4544,5.4544,5.4544,5.4544,5.4544,5.4544,5.4544,5.4544,5.4544,5.4544,5.4544,5.4544,5.4668,5.5103,5.5559,5.6014,5.649,5.6925,5.7235,5.7235,5.7235,5.7235,5.7235,5.7235,5.7435,5.7933,5.7933,5.8132,5.8726,5.922,5.9515,5.9537,6.0027,6.1906,6.5678,6.6074,6.6142,6.628,6.5755,6.5731,6.6163,6.7086,6.8132,6.907,7.0684,7.1635,7.2122,7.221,7.2297,7.2297,7.2297,7.2297,7.2297,7.2323,7.235,7.235,7.2376,7.2689,7.316,7.316,7.35,7.3996,7.4049,7.4049,7.4049,0.0,0.0,0.0,0.0,0.0,0.0,0.0,0.0,0.0,0.0,0.0,0.0,0.0,0.0,0.0,0.0,0.0,0.0,3.6597,3.6597,3.6597,3.6597,3.6597,3.6597,3.6597,3.6711,3.6795,3.6795,3.6908,3.7204,3.7598,3.7598,3.8188,3.9249,4.0755,4.2819,4.5361,4.7343,4.9321,5.1046,5.161,5.235,5.3178,5.3178,5.3758,5.4544,5.4544,5.4544,5.4544,5.4544,5.4544,5.4544,5.4544,5.4544,5.4544,5.4544,5.4544,5.4544,5.4544,5.4544,5.4544,5.4544,5.4544,5.4731,5.5517,5.5786,5.6097,5.6883,5.7152,5.7235,5.7235,5.7235,5.7235,5.7235,5.7235,5.7235,5.7414,5.7435,5.7634,5.8132,5.833,5.8528,5.8924,5.9515,6.0202,6.1207,6.1713,6.3043,6.5591,6.4624,6.3735,6.3083,6.5379,6.6604,6.6507,7.0184,7.1413,7.0044,7.1542,7.2297,7.2297,7.2297,7.2297,7.2323,7.2716,7.2898,7.2925,7.3395,7.3656,7.3787,7.3787,7.3866,7.4049,7.4519,7.4676,7.4728,0.0,0.0,0.0,0.0,0.0,0.0,0.0,0.0,0.0,0.0,0.0,0.0,0.0,0.0,0.0,0.0,0.0,0.0,0.0,3.6597,3.6597,3.6597,3.6597,3.6597,3.6597,3.6597,3.6597,3.6597,3.6597,3.6696,3.7007,3.7007,3.7303,3.7908,3.9038,4.0545,4.255,4.4512,4.6878,0.0,0.0,5.1474,5.2909,5.3116,5.3613,5.4255,5.4461,5.4544,5.4544,5.4544,5.4544,5.4544,5.4544,5.4544,5.4544,5.4544,5.4544,5.4544,5.4544,5.4544,5.4544,5.4544,5.4668,5.5,5.5703,5.6035,5.6387,5.709,5.7235,5.7235,5.7235,5.7235,5.7235,5.7235,5.7235,5.7235,5.7235,5.7235,5.7335,5.7634,5.7834,5.8132,5.8429,5.8924,5.9318,5.9613,5.993,6.0993,6.3146,6.2157,6.1379,6.1244,6.3501,6.5135,6.5895,6.924,7.0426,6.93,7.1366,7.2297,7.2297,7.2297,7.2428,7.2663,7.2977,7.3264,7.3526,7.3866,7.4153,7.4388,7.4388,7.4545,7.4807,7.5146,7.5251,7.5303,0.0,0.0,0.0,0.0,0.0,0.0,0.0,0.0,0.0,0.0,0.0,0.0,0.0,0.0,0.0,0.0,0.0,0.0,0.0,0.0,3.6597,3.6597,3.6597,3.6597,3.6597,3.6597,3.6597,3.6597,3.6597,3.6597,3.6597,3.6597,3.6809,3.7303,3.7303,3.7976,3.9331,4.1125,4.3504,4.6242,4.7752,5.0098,5.2536,0.0,5.3167,5.3808,5.4379,5.4544,5.4544,5.4544,5.4544,5.4544,5.4544,5.4544,5.4544,5.4544,5.4544,5.4544,5.4544,5.4544,5.4544,5.4544,5.4855,5.531,5.5766,5.6221,5.6697,5.7132,5.7235,5.7235,5.7235,5.7235,5.7235,5.7235,5.7235,5.7235,5.7235,5.7235,5.7235,5.7235,5.7634,5.7933,5.7933,5.8429,5.8903,5.9331,5.955,5.9776,6.031,5.9589,5.9545,6.0397,6.1958,6.3688,6.5491,6.7824,6.8758,6.8552,7.0808,7.192,7.192,7.2288,7.2663,7.3108,7.3291,7.3656,7.4127,7.4205,7.4545,7.5016,7.5016,7.5303,7.5721,7.5721,7.5721,7.5721,0.0,0.0,0.0,0.0,0.0,0.0,0.0,0.0,0.0,0.0,3.6597,3.6597,0.0,0.0,0.0,0.0,0.0,0.0,0.0,0.0,0.0,3.6597,3.6597,3.6597,3.6597,3.6597,3.6597,3.6597,3.6597,3.6597,3.6597,3.6597,3.6597,3.6711,3.6711,3.8044,4.0239,4.1012,4.3754,4.7529,4.671,4.8765,5.2353,5.1163,0.0,0.0,5.4379,5.4544,5.4544,5.4544,5.4544,5.4544,5.4544,5.4544,5.4544,5.4544,5.4544,5.4544,5.4544,5.4544,5.4544,5.4544,5.4855,5.531,5.5766,5.6221,5.6697,5.7132,5.7235,5.7235,5.7235,5.7235,5.7235,5.7235,5.7235,5.7235,5.7235,5.7235,5.7235,5.7235,5.7335,5.7335,5.7335,5.7834,5.8161,5.837,5.8751,5.9236,5.9807,6.0048,6.0244,6.0419,6.2274,6.2634,6.1445,6.5047,6.605,6.4483,6.8098,6.9865,6.989,7.2008,7.3029,7.316,7.4153,7.465,7.478,7.5225,7.5486,7.5565,7.5565,7.5643,7.5721,7.5721,7.5721,7.5721,0.0,0.0,0.0,0.0,0.0,0.0,0.0,3.6597,3.6597,3.6597,3.6597,3.6597,3.6597,3.6597,3.6597,0.0,0.0,0.0,0.0,0.0,0.0,3.6597,3.6597,3.6597,3.6597,3.6597,3.6597,3.6597,0.0,3.6597,3.6597,3.6597,3.6597,3.6597,3.6597,3.747,3.8827,3.912,4.1398,4.489,4.5285,4.7476,5.0699,5.1456,0.0,0.0,5.4461,5.4544,5.4544,5.4544,5.4544,5.4544,5.4544,5.4544,5.4544,5.4544,5.4544,5.4544,5.4544,5.4544,5.4544,5.4544,5.5041,5.56,5.5828,5.6407,5.6966,5.7194,5.7235,5.7235,5.7235,5.7235,5.7235,5.7235,5.7235,5.7235,5.7235,5.7235,5.7235,5.7235,5.7235,5.7235,5.7235,5.7414,5.7729,5.7993,5.8288,5.877,5.9601,6.0157,6.0419,6.0419,6.1348,6.1348,6.0419,6.3275,6.4295,6.3466,6.6328,6.8428,6.9777,7.105,7.2527,7.4075,7.465,7.5068,7.5355,7.5617,7.5721,7.5721,7.5721,7.5721,7.5721,7.5721,7.5721,7.5721,0.0,0.0,0.0,0.0,0.0,0.0,0.0,3.6597,3.6597,3.6597,3.6597,3.6597,3.6597,3.6597,3.6597,0.0,0.0,0.0,0.0,0.0,0.0,0.0,0.0,0.0,3.6597,0.0,0.0,3.6597,3.6597,0.0,0.0,0.0,0.0,0.0,3.6597,3.6809,3.7204,3.7303,3.9022,0.0,0.0,4.6036,4.8959,0.0,0.0,0.0,0.0,5.4544,5.4544,5.4544,5.4544,5.4544,5.4544,5.4544,5.4544,5.4544,5.4544,5.4544,5.4544,5.4544,5.4565,5.4648,5.5269,5.589,5.5993,5.6656,5.7235,5.7235,5.7235,5.7235,5.7235,5.7235,5.7235,5.7235,5.7235,5.7235,5.7235,5.7235,5.7235,5.7235,5.7235,5.7235,5.7235,5.7235,5.7393,5.7786,5.7985,5.8549,5.9657,6.0125,6.0419,6.0419,6.0419,6.0419,6.0419,6.2002,6.2725,6.2821,6.4859,6.6923,6.8937,7.0038,7.1861,7.4248,7.4834,7.5329,7.5721,7.5721,7.5721,7.5721,7.5721,7.5721,7.5721,7.5721,7.5721,7.5721,0.0,0.0,0.0,0.0,0.0,0.0,0.0,3.6597,3.6597,3.6597,3.6597,3.6597,3.6597,3.6597,3.6597,0.0,0.0,0.0,0.0,0.0,0.0,0.0,0.0,0.0,0.0,0.0,0.0,3.6597,3.6597,0.0,0.0,0.0,0.0,0.0,0.0,3.6612,3.6711,3.7204,0.0,0.0,0.0,0.0,0.0,0.0,0.0,0.0,0.0,5.4544,5.4544,5.4544,5.4544,5.4544,5.4544,5.4544,5.4544,5.4544,5.4544,5.4544,5.4544,5.4544,5.4627,5.502,5.5496,5.5993,5.6407,5.6883,5.7235,5.7235,5.7235,5.7235,5.7235,5.7235,5.7235,5.7235,5.7235,5.7235,5.7235,5.7235,5.7235,5.7235,5.7235,5.7235,5.7235,5.7235,5.7248,5.7325,5.7795,5.8553,5.9527,6.0104,6.0419,6.0419,6.0419,6.0419,6.0419,6.0614,6.0712,6.0712,6.3106,6.4466,6.4823,6.948,7.1804,7.2234,7.4648,7.5669,7.5721,7.5721,7.5721,7.5721,7.5721,7.5721,7.5721,7.5721,7.5721,7.5721,0.0,0.0,0.0,0.0,0.0,0.0,3.6597,3.6597,3.6597,3.6597,3.6597,3.6597,3.6597,3.6597,3.6597,3.6597,0.0,0.0,0.0,0.0,0.0,0.0,0.0,0.0,0.0,0.0,3.6597,3.6597,3.6597,0.0,0.0,0.0,0.0,0.0,0.0,3.6597,3.6597,3.6809,0.0,0.0,0.0,0.0,0.0,0.0,0.0,0.0,0.0,0.0,5.4544,5.4544,5.4544,5.4544,5.4544,5.4544,5.4544,5.4544,5.4544,5.4544,5.4544,5.4544,5.4648,5.5082,5.5538,5.5993,5.6449,5.6904,5.7235,5.7235,5.7235,5.7235,5.7235,5.7235,5.7235,5.7235,5.7235,5.7235,5.7235,5.7235,5.7235,5.7235,5.7235,5.7235,5.7235,5.7235,5.7252,5.7264,5.7739,5.8218,5.8606,5.9417,5.9929,5.9929,6.0223,6.0419,6.0419,6.0419,6.0572,6.0834,6.1774,6.3305,6.5144,6.7193,6.8997,7.0583,7.2797,7.386,7.3953,7.521,7.5721,7.5721,7.5721,7.5721,7.5721,7.5721,7.5721,7.5721,0.0,0.0,0.0,0.0,0.0,3.6597,3.6597,3.6597,3.6597,3.6597,3.6597,3.6597,3.6597,3.6597,3.6597,3.6597,3.6597,0.0,0.0,0.0,0.0,0.0,0.0,0.0,0.0,0.0,3.6597,3.6597,3.6597,3.6597,0.0,0.0,3.6597,3.6597,0.0,0.0,0.0,0.0,0.0,0.0,0.0,0.0,0.0,0.0,0.0,0.0,0.0,0.0,0.0,0.0,0.0,5.4544,5.4544,5.4544,5.4544,5.4544,5.4544,5.4544,5.4544,5.4544,5.4668,5.5248,5.5641,5.6035,5.6635,5.7008,5.7235,5.7235,5.7235,5.7235,5.7235,5.7235,5.7235,5.7235,5.7235,5.7235,5.7235,5.7235,5.7235,5.7235,5.7235,5.7235,5.7235,5.7235,5.7235,5.7235,5.7535,5.7734,5.7734,5.8627,5.922,5.9635,6.0125,6.0419,6.0419,6.0572,6.079,6.1118,6.1402,6.2681,6.4799,6.5606,6.6946,6.8747,7.0757,7.2022,7.2684,7.4165,7.5117,7.5721,7.5721,7.5721,7.5721,7.5721,7.5721,7.5721,0.0,0.0,0.0,0.0,0.0,0.0,3.6597,3.6597,3.6597,3.6597,3.6597,3.6597,3.6597,3.6597,3.6597,3.6597,3.6597,0.0,0.0,0.0,0.0,0.0,0.0,0.0,0.0,0.0,3.6597,3.6597,3.6597,3.6597,3.6597,3.6597,3.6597,3.6597,0.0,0.0,0.0,0.0,0.0,0.0,0.0,0.0,5.0362,0.0,0.0,0.0,0.0,0.0,0.0,0.0,0.0,0.0,0.0,5.4544,5.4544,5.4544,5.4544,5.4544,5.4544,5.4544,5.4751,5.5641,5.5869,5.6117,5.7008,5.7215,5.7235,5.7235,5.7235,5.7235,5.7235,5.7235,5.7235,5.7235,5.7235,5.7235,5.7235,5.7235,5.7235,5.7235,5.7235,5.7235,5.7235,5.7235,5.7235,5.7235,5.7235,5.7235,5.7235,5.7734,5.8528,5.9537,6.0125,6.0419,6.0419,6.0878,6.1096,6.1118,6.2101,6.2581,6.2704,6.5197,6.6401,6.6501,6.8649,7.0661,7.259,7.259,7.386,7.5721,7.5721,7.5721,7.5721,7.5721,7.5721,7.5721,0.0,0.0,0.0,0.0,0.0,0.0,0.0,3.6597,3.6597,3.6597,3.6597,3.6597,3.6597,3.6597,3.6597,3.6597,3.6597,0.0,0.0,0.0,0.0,0.0,0.0,0.0,0.0,3.6597,3.6597,3.6597,3.6597,3.6597,3.6597,3.6597,3.6597,3.6597,3.6597,3.6597,0.0,0.0,0.0,0.0,0.0,4.6421,4.9889,0.0,0.0,0.0,0.0,0.0,0.0,0.0,0.0,0.0,0.0,0.0,0.0,5.4544,5.4544,5.4544,5.4544,5.4751,5.5124,5.5724,5.6117,5.6511,5.709,5.7235,5.7235,5.7235,5.7235,5.7235,5.7235,5.7235,5.7235,5.7235,5.7235,5.7235,5.7235,5.7235,5.7235,5.7235,5.7235,5.7235,5.7235,5.7235,5.7235,5.7235,5.7235,5.7235,5.7235,5.7734,5.833,5.9023,5.9537,6.0027,6.0419,6.0878,6.1271,6.162,6.2276,6.2756,6.3062,6.3907,6.4256,6.4357,6.6501,6.7766,6.8626,7.1426,7.2992,7.3767,7.5117,7.5721,7.5721,7.5721,7.5721,7.5721,0.0,0.0,0.0,0.0,0.0,0.0,0.0,3.6597,3.6597,3.6597,3.6597,3.6597,3.6597,3.6597,3.6597,3.6597,0.0,0.0,0.0,0.0,0.0,0.0,0.0,0.0,3.6597,3.6597,3.6597,3.6597,3.6597,3.6597,3.6597,3.6597,3.6597,3.6597,3.6597,3.6597,0.0,0.0,0.0,0.0,4.2724,4.5662,4.8614,0.0,0.0,0.0,0.0,0.0,0.0,0.0,0.0,0.0,0.0,0.0,0.0,0.0,5.4544,5.4544,5.4544,5.4855,5.5289,5.5766,5.6221,5.6676,5.7132,5.7235,5.7235,5.7235,5.7235,5.7235,5.7235,5.7235,5.7235,5.7235,5.7235,5.7235,5.7235,5.7235,5.7235,5.7235,5.7235,5.7235,5.7235,5.7235,5.7235,5.7235,5.7235,5.7235,5.7235,5.7535,5.7933,5.8528,5.9023,5.9503,6.0091,6.0765,6.1321,6.1799,6.2524,6.2996,6.328,6.328,6.328,6.3383,6.4639,6.5724,0.0,6.9211,7.114,7.2684,7.4047,7.5025,7.5721,7.5721,7.5721,7.5721,0.0,0.0,0.0,0.0,0.0,0.0,0.0,3.6597,3.6597,3.6597,3.6597,3.6597,3.6597,3.6597,3.6597,3.6597,0.0,0.0,0.0,0.0,0.0,0.0,0.0,0.0,3.6597,3.6597,3.6597,3.6597,3.6597,3.6597,3.6597,3.6597,3.6597,3.6597,3.6597,3.6597,3.6597,3.6597,3.7091,3.8173,4.1958,4.4803,0.0,0.0,0.0,0.0,0.0,0.0,0.0,0.0,0.0,0.0,0.0,0.0,0.0,0.0,0.0,0.0,0.0,5.4875,5.5331,5.5766,5.6242,5.6718,5.7132,5.7235,0.0,5.7235,5.7235,5.7235,5.7235,5.7235,5.7235,5.7235,5.7235,5.7235,5.7235,5.7235,5.7235,5.7235,5.7235,5.7235,5.7235,5.7235,5.7235,5.7235,5.7235,5.7235,5.7235,5.7235,5.7435,5.7933,5.8429,5.896,5.9527,6.0599,6.1273,6.1748,6.2734,6.328,6.328,6.328,6.328,6.328,6.328,6.4357,6.6202,6.6301,6.8723,7.2211,7.2495,7.3767,7.5512,7.563,7.5721,7.5721,0.0,0.0,0.0,0.0,0.0,0.0,0.0,0.0,0.0,0.0,3.6597,3.6597,3.6597,3.6597,3.6597,0.0,0.0,0.0,0.0,0.0,0.0,0.0,0.0,0.0,3.6597,3.6597,3.6597,3.6597,3.6597,3.6597,3.6597,3.6597,3.6597,3.6597,3.6597,3.6597,3.6597,3.6597,3.8518,4.159,4.3374,4.6629,0.0,0.0,0.0,0.0,5.4544,5.4544,0.0,0.0,0.0,0.0,0.0,0.0,0.0,0.0,5.4544,5.4544,5.4544,0.0,5.5745,5.5848,5.6469,5.709,0.0,5.7235,5.7235,5.7235,5.7235,5.7235,5.7235,5.7235,5.7235,5.7235,5.7235,5.7235,5.7235,5.7235,5.7235,5.7235,5.7235,5.7235,5.7235,5.7235,5.7235,5.7235,5.7235,5.7235,5.7235,5.7235,5.7235,5.7414,5.7535,5.8143,5.9527,6.0599,6.1273,6.1748,6.2734,6.328,6.328,6.328,6.328,6.328,6.328,6.3565,6.4154,6.5724,6.6998,6.8136,7.1331,7.2872,7.3554,7.5117,7.5721,7.5721,0.0,0.0,0.0,0.0,0.0,0.0,0.0,0.0,0.0,0.0,0.0,0.0,0.0,0.0,0.0,0.0,0.0,0.0,0.0,0.0,0.0,0.0,0.0,3.6597,3.6597,3.6597,3.6597,3.6597,3.6597,3.6597,3.6597,3.6597,3.6597,3.6597,3.6597,3.6597,3.6597,3.6597,3.842,4.1494,4.3374,0.0,0.0,0.0,0.0,0.0,5.4544,5.4544,0.0,5.4544,5.4544,5.4544,0.0,0.0,0.0,0.0,5.4544,5.4544,5.4544,5.5186,5.5869,5.5869,5.6552,5.7235,5.7235,5.7235,5.7235,5.7235,5.7235,5.7235,5.7235,5.7235,5.7235,5.7235,5.7235,5.7235,5.7235,5.7235,5.7235,5.7235,5.7235,5.7235,5.7235,5.7235,5.7235,5.7235,5.7235,5.7235,5.7235,5.7235,5.7235,5.7235,5.7235,5.7847,5.904,6.0203,6.0875,6.1332,6.2433,6.2892,6.2892,6.2892,6.3076,6.328,6.328,6.328,6.3383,6.456,6.5523,6.67,6.989,7.1737,7.2872,7.4933,7.5721,7.5748,0.0,0.0,0.0,0.0,0.0,0.0,0.0,0.0,0.0,0.0,0.0,0.0,0.0,0.0,0.0,0.0,0.0,0.0,0.0,0.0,0.0,0.0,3.6597,3.6597,3.6597,3.6597,3.6597,3.6597,3.6597,3.6597,3.6597,3.6597,3.6597,3.6597,3.6597,3.6597,3.6597,3.6893,3.824,4.0465,4.352,0.0,0.0,0.0,0.0,0.0,0.0,0.0,0.0,5.4544,5.4544,5.4544,5.4544,0.0,0.0,0.0,0.0,0.0,5.4544,5.5145,5.5786,5.5848,5.6552,5.7235,5.7235,5.7235,5.7235,5.7235,5.7235,5.7235,5.7235,5.7235,5.7235,5.7235,5.7235,5.7235,5.7235,5.7235,5.7235,5.7235,5.7235,5.7235,5.7235,5.7235,5.7235,5.7235,5.7235,5.7235,5.7235,5.7235,5.7235,5.7235,5.7235,5.767,5.8601,5.9621,6.0391,6.0782,6.184,6.2378,6.2378,6.2378,6.2584,6.3076,6.3076,6.3076,6.3178,6.3178,6.4256,6.6102,6.8257,7.0083,7.1902,7.4351,7.5236,7.5314,0.0,0.0,0.0,0.0,0.0,0.0,0.0,0.0,0.0,0.0,0.0,0.0,0.0,0.0,0.0,0.0,0.0,0.0,0.0,0.0,0.0,3.6597,3.6597,3.6597,3.6597,3.6597,3.6597,3.6597,3.6597,3.6597,3.6597,3.6597,3.6597,3.6597,3.6597,3.6597,3.6696,3.8518,4.0432,4.2567,4.6024,0.0,0.0,0.0,0.0,0.0,0.0,0.0,0.0,5.4544,5.4544,5.4544,5.4544,0.0,0.0,0.0,0.0,0.0,5.4544,5.4896,5.5372,5.5766,5.6552,5.7235,5.7235,5.7235,5.7235,5.7235,5.7235,5.7235,5.7235,5.7235,5.7235,5.7235,5.7235,5.7235,5.7235,5.7235,5.7235,5.7235,5.7235,5.7235,5.7235,5.7235,5.7235,5.7235,5.7235,5.7235,5.7235,5.7235,5.7235,5.7235,5.7235,5.767,5.8601,5.9214,5.9982,6.0782,6.1426,6.1737,6.1737,6.1737,6.184,6.1819,6.1819,6.215,6.2584,6.2584,6.3076,6.3951,6.6002,6.7074,6.7864,7.1617,7.3086,7.3519,0.0,0.0,0.0,0.0,0.0,0.0,0.0,0.0,0.0,0.0,0.0,0.0,0.0,0.0,0.0,0.0,0.0,0.0,0.0,0.0,3.6597,3.6597,3.6597,3.6597,3.6597,3.6597,3.6597,3.6597,3.6597,3.6597,3.6597,3.6597,3.6597,3.6597,3.6597,3.7174,3.8338,3.9299,4.1611,4.4905,0.0,0.0,0.0,0.0,0.0,0.0,0.0,0.0,0.0,0.0,5.4544,5.4544,5.4544,0.0,0.0,0.0,0.0,0.0,5.4544,5.4855,5.5227,5.5455,5.5993,5.649,5.649,5.6697,5.6863,5.6863,5.7049,5.7235,5.7235,5.7235,5.7235,5.7235,5.7235,5.7235,5.7235,5.7235,5.7235,5.7235,5.7235,5.7235,5.7235,5.7235,5.7235,5.7235,5.7235,5.7235,5.7235,5.7235,5.7235,5.7235,5.7235,5.767,5.8601,5.8806,5.949,6.0386,6.0886,6.1198,6.1198,6.1198,6.1301,6.1612,6.1612,6.1737,6.2047,6.2378,6.2687,6.3076,6.5523,6.6401,6.6876,7.1044,7.3748,7.5447,0.0,0.0,0.0,0.0,0.0,0.0,0.0,0.0,0.0,0.0,0.0,0.0,0.0,0.0,0.0,0.0,0.0,0.0,0.0,3.6597,3.6597,3.6597,3.6597,3.6597,3.6597,3.6597,3.6597,3.6597,3.6597,3.6597,3.6597,3.6597,3.6597,3.6597,3.7076,3.7946,3.9104,4.0627,4.3049,4.5993,0.0,0.0,0.0,0.0,0.0,0.0,0.0,0.0,0.0,0.0,0.0,0.0,0.0,0.0,0.0,5.4544,5.4544,5.4544,5.4544,5.4772,5.5041,5.5041,5.5455,5.5869,5.5869,5.6159,5.6407,5.6407,5.6759,5.707,5.707,5.7152,5.7235,5.7235,5.7235,5.7235,5.7235,5.7235,5.7235,5.7235,5.7235,5.7235,5.7235,5.7235,5.7235,5.7235,5.7235,5.7235,5.7235,5.7235,5.7235,5.7235,5.7235,5.767,5.8601,5.8601,5.9078,5.9988,6.0386,6.0574,6.0574,6.0574,6.0803,6.1219,6.1219,6.1323,6.1405,6.1944,6.2172,6.2459,6.4639,6.6202,6.747,7.0661,7.4292,7.7473,0.0,0.0,0.0,0.0,0.0,0.0,0.0,0.0,0.0,0.0,0.0,0.0,0.0,0.0,0.0,0.0,0.0,0.0,0.0,3.6597,3.6597,3.6597,3.6597,3.6597,3.6597,3.6597,3.6597,3.6597,3.6597,3.6597,3.6597,3.6597,3.6597,3.6696,3.8616,3.8534,3.7204,4.3424,4.5041,4.407,4.9206,0.0,0.0,0.0,0.0,0.0,0.0,0.0,0.0,0.0,0.0,0.0,0.0,0.0,5.4544,5.4544,5.4544,5.4544,5.4544,5.4565,5.4586,5.4586,5.5227,5.5869,5.5869,5.589,5.5931,5.5931,5.6283,5.6614,5.6614,5.6945,5.7235,5.7235,5.7235,5.7235,5.7235,5.7235,5.7235,5.7235,5.7235,5.7235,5.7235,5.7235,5.7235,5.7235,5.7235,5.7235,5.7235,5.7235,5.7235,5.7235,5.7235,5.767,5.8601,5.8601,5.9078,5.9988,5.9988,6.0093,6.0093,6.0093,6.0093,6.0093,6.0093,6.0386,6.0886,6.0886,6.1198,6.1737,6.2459,6.5423,6.9332,6.9623,7.3031,7.7473,0.0,0.0,0.0,0.0,0.0,0.0,0.0,0.0,0.0,0.0,0.0,0.0,0.0,0.0,0.0,0.0,0.0,0.0,0.0,3.6597,3.6597,3.6597,3.6597,3.6597,3.6597,3.6597,3.6597,3.6597,3.6597,3.6597,3.6597,3.6597,3.7273,3.8534,3.8044,3.9605,4.2828,4.4045,4.594,4.8169,5.0261,5.1725,0.0,0.0,0.0,0.0,0.0,0.0,0.0,0.0,5.4544,5.4544,5.4544,5.4544,5.4544,5.4544,5.4544,5.4544,5.4544,5.4544,5.4544,5.4544,5.4793,5.5041,5.5041,5.5248,5.5434,5.5434,5.5807,5.6138,5.6138,5.6262,5.6469,5.6759,5.6821,5.6904,5.7194,5.7235,5.7235,5.7235,5.7235,5.7235,5.7235,5.7235,5.7235,5.7235,5.7235,5.7235,5.7235,5.7235,5.7235,5.7235,5.7235,5.767,5.8601,5.8601,5.9078,5.9988,5.9988,5.9988,5.9988,5.9988,5.9988,5.9988,5.9988,6.0093,6.0281,6.0678,6.0886,6.1198,6.1737,6.3805,6.6577,6.7299,7.0735,7.5092,0.0,0.0,0.0,0.0,0.0,0.0,0.0,0.0,0.0,0.0,0.0,0.0,0.0,0.0,0.0,0.0,0.0,0.0,3.6597,3.6597,3.6597,3.6597,3.6597,3.6597,3.6597,3.6597,3.6597,3.6597,3.6597,3.6597,3.6597,3.7273,3.7946,3.8714,3.9409,4.1535,4.4596,4.5423,4.7324,4.9915,5.0648,5.1771,0.0,0.0,0.0,0.0,0.0,0.0,0.0,0.0,5.4544,5.4544,5.4544,5.4544,5.4544,5.4544,5.4544,5.4544,5.4544,5.4544,5.4544,5.4544,5.4544,5.4544,5.4544,5.4772,5.4979,5.4979,5.5331,5.5703,5.5848,5.5869,5.5973,5.6304,5.6345,5.6449,5.6759,5.6925,5.7008,5.7008,5.7132,5.7235,5.7235,5.7235,5.7235,5.7235,5.7235,5.7235,5.7235,5.7235,5.7235,5.7235,5.7235,5.767,5.8601,5.8601,5.9078,5.9988,5.9988,5.9988,5.9988,5.9988,5.9988,5.9988,5.9988,5.9988,5.9988,6.0386,6.0678,6.0886,6.1198,6.2681,6.4818,6.592,6.8921,7.2716,0.0,0.0,0.0,0.0,0.0,0.0,0.0,0.0,0.0,0.0,0.0,0.0,0.0,0.0,0.0,0.0,0.0,0.0,3.6597,3.6597,3.6597,3.6597,3.6597,3.6597,3.6597,3.6597,3.6597,3.6597,3.6597,3.6597,3.6597,3.8714,3.8616,3.6908,4.3441,4.4193,4.0819,4.7761,4.9606,4.7955,5.0454,5.2027,5.2992,0.0,0.0,0.0,0.0,0.0,0.0,0.0,5.4544,5.4544,5.4544,5.4544,5.4544,5.4544,5.4544,5.4544,5.4544,5.4544,5.4544,5.4544,5.4544,5.4544,5.4544,5.4544,5.4544,5.4544,5.4875,5.531,5.5786,5.5869,5.5869,5.5869,5.5869,5.5869,5.5869,5.6262,5.6552,5.6552,5.6945,5.7215,5.7215,5.7235,5.7235,5.7235,5.7235,5.7235,5.7235,5.7235,5.7235,5.7235,5.7235,5.767,5.8601,5.8601,5.9078,5.9988,5.9988,5.9988,5.9988,5.9988,5.9988,5.9988,5.9988,5.9988,5.9988,5.9988,6.0281,6.0782,6.0782,6.2373,6.4818,6.5842,6.7917,7.0716,0.0,0.0,0.0,0.0,0.0,0.0,0.0,0.0,0.0,0.0,0.0,0.0,0.0,0.0,0.0,0.0,0.0,0.0,3.6597,3.6597,3.6597,3.6597,3.6597,3.6597,3.6597,3.6597,3.6597,3.6597,3.6597,3.6597,3.6597,3.7273,3.8083,3.9184,3.9673,4.1949,4.5505,4.6128,4.7889,5.0357,5.1076,5.1814,5.2394,0.0,0.0,0.0,0.0,0.0,0.0,0.0,0.0,0.0,5.4544,5.4544,5.4544,5.4544,5.4544,5.4544,5.4544,5.4544,5.4544,5.4544,5.4544,5.4544,5.4544,5.4544,5.4544,5.4544,5.4648,5.4772,5.4917,5.4938,5.5041,5.5331,5.5393,5.5496,5.5828,5.5993,5.6076,5.6076,5.649,5.6759,5.6759,5.7049,5.7235,5.7235,5.7235,5.7235,5.7235,5.7235,5.7235,5.7235,5.7235,5.767,5.8601,5.8601,5.9078,5.9988,5.9988,5.9988,5.9988,5.9988,5.9988,5.9988,5.9988,5.9988,5.9988,5.9988,6.0093,6.0281,6.0281,6.0678,6.1572,6.2904,6.4898,6.7451,0.0,0.0,0.0,0.0,0.0,0.0,0.0,0.0,0.0,0.0,3.6597,3.6597,0.0,0.0,0.0,3.6597,3.6597,0.0,3.6597,3.6597,3.6597,3.6597,3.6597,3.6597,3.6597,3.6597,3.6597,3.6597,3.6597,3.6597,3.6612,3.7605,3.8348,3.9058,4.0598,4.312,4.6449,4.6986,4.8895,5.1426,5.1426,5.1717,5.2201,0.0,0.0,0.0,0.0,0.0,0.0,0.0,0.0,0.0,5.4544,5.4544,5.4544,5.4544,5.4544,5.4544,5.4544,5.4544,5.4544,5.4544,5.4544,5.4544,5.4544,5.4544,5.4544,5.4544,5.4544,5.4544,5.4544,5.4544,5.4627,5.4896,5.4917,5.502,5.531,5.5496,5.56,5.56,5.6014,5.6366,5.6552,5.6801,5.7028,5.7215,5.7235,5.7235,5.7235,5.7235,5.7235,5.7235,5.7235,5.767,5.8601,5.8601,5.9078,5.9988,5.9988,5.9988,5.9988,5.9988,5.9988,5.9988,5.9988,5.9988,5.9988,5.9988,5.9988,5.9988,5.9988,5.9988,6.0197,6.164,6.2995,6.4744,0.0,0.0,3.6597,3.6597,0.0,0.0,0.0,0.0,3.6597,3.6597,3.6597,3.6597,0.0,0.0,0.0,3.6597,3.6597,3.6597,0.0,3.6597,3.6597,3.6597,3.6597,3.6597,3.6597,3.6597,3.6597,3.6597,3.6597,3.6626,3.6656,3.9086,3.9173,3.7498,4.4343,4.6252,4.482,4.9264,5.1231,5.1426,5.1426,5.1717,5.2104,5.2104,0.0,0.0,0.0,0.0,0.0,0.0,0.0,0.0,5.4544,5.4544,5.4544,5.4544,5.4544,5.4544,5.4544,5.4544,5.4544,5.4544,5.4544,5.4544,5.4544,5.4544,5.4544,5.4544,5.4544,5.4544,5.4544,5.4544,5.4544,5.4544,5.4544,5.4544,5.4544,5.4875,5.5124,5.5124,5.5538,5.5973,5.6387,5.6511,5.6738,5.7132,5.7194,5.7235,5.7235,5.7235,5.7235,5.7235,5.7235,5.767,5.8601,5.8601,5.9078,5.9988,5.9988,5.9988,5.9988,5.9988,5.9988,5.9988,5.9988,5.9988,5.9988,5.9988,5.9988,5.9988,5.9988,5.9988,6.0197,6.164,6.2082,6.2613,0.0,0.0,3.6597,3.6597,0.0,0.0,0.0,0.0,3.6597,3.6597,3.6597,3.6597,3.6597,3.6597,0.0,3.6597,3.6597,3.6597,3.6597,3.6597,3.6597,3.6597,3.6597,3.6597,3.6597,3.6597,3.6597,3.6597,3.6597,3.6729,3.7092,3.9293,3.942,3.806,4.299,4.5006,4.5099,4.778,4.9825,5.1426,5.1426,5.1426,5.1523,5.1523,5.2201,0.0,0.0,0.0,0.0,0.0,0.0,0.0,5.4544,5.4544,5.4544,5.4544,5.4544,5.4544,5.4544,5.4544,5.4544,5.4544,5.4544,5.4544,5.4544,5.4544,5.4544,5.4544,5.4544,5.4544,5.4544,5.4544,5.4544,5.4544,5.4544,5.4544,5.4544,5.4606,5.4668,5.4668,5.5062,5.5372,5.5476,5.6138,5.6614,5.6697,5.7028,5.7235,5.7235,5.7235,5.7235,5.7235,5.7235,5.767,5.8601,5.8601,5.9078,5.9988,5.9988,5.9988,5.9988,5.9988,5.9988,5.9988,5.9988,5.9988,5.9988,5.9988,5.9988,5.9988,5.9988,5.9988,6.0092,6.1109,6.1441,6.1994,0.0,0.0,0.0,0.0,0.0,0.0,0.0,0.0,3.6597,3.6597,3.6597,3.6597,3.6597,3.6597,0.0,0.0,3.6597,3.6597,3.6597,3.6597,3.6597,3.6597,3.6597,3.6685,3.6831,3.6831,3.6919,3.7065,3.7065,3.708,3.7095,3.858,3.8827,3.8281,4.1725,4.3926,4.5119,4.732,4.9433,5.1426,5.1426,5.1426,5.1426,5.1426,5.1717,5.2221,5.2201,0.0,0.0,0.0,0.0,0.0,0.0,0.0,5.4544,5.4544,5.4544,5.4544,5.4544,5.4544,5.4544,5.4544,5.4544,5.4544,5.4544,5.4544,5.4544,5.4544,5.4544,5.4544,5.4544,5.4544,5.4544,5.4544,5.4544,5.4544,5.4544,5.4544,5.4544,5.4544,5.4731,5.4958,5.5165,5.5828,5.6324,5.6552,5.6966,5.7235,5.7235,5.7235,5.7235,5.7235,5.7235,5.767,5.8601,5.8601,5.9078,5.9988,5.9988,5.9988,5.9988,5.9988,5.9988,5.9988,5.9988,5.9988,5.9988,5.9988,5.9988,5.9988,5.9988,5.9988,6.0113,6.1003,6.1355,6.1672,0.0,0.0,0.0,0.0,0.0,0.0,0.0,0.0,0.0,3.6597,3.6597,3.6597,3.6597,3.6597,3.6626,0.0,0.0,0.0,3.6773,3.6773,3.6773,3.6773,3.6773,3.6905,3.7168,3.7183,3.73,3.7578,3.7636,3.7519,3.727,3.8205,3.8501,3.8354,4.1439,4.3689,4.5203,4.7717,4.9825,5.1426,5.1426,5.1426,5.1426,5.1426,5.1426,5.162,5.2008,5.2298,5.2491,5.3377,0.0,0.0,0.0,0.0,5.4354,5.4354,5.4449,5.4544,5.4544,5.4544,5.4544,5.4544,5.4544,5.4544,5.4544,5.4544,5.4544,5.4544,5.4544,5.4544,5.4544,5.4544,5.4544,5.4544,5.4544,5.4544,5.4544,5.4544,5.4544,5.4544,5.4544,5.4668,5.5041,5.5559,5.6035,5.6407,5.6925,5.7235,5.7235,5.7235,5.7235,5.7235,5.7235,5.767,5.8601,5.8601,5.9078,5.9988,5.9988,5.9988,5.9988,5.9988,5.9988,5.9988,5.9988,5.9988,5.9988,5.9988,5.9988,5.9988,5.9988,5.9988,6.0113,6.1003,6.1355,6.1479,0.0,0.0,0.0,0.0,0.0,0.0,0.0,0.0,0.0,0.0,3.6597,3.6597,3.6597,3.6597,3.6714,3.7007,3.7022,3.7153,3.7431,0.0,0.0,3.7446,3.7446,3.7475,3.7519,3.7519,3.7534,3.7578,3.7856,3.7973,3.8031,3.9912,4.001,3.8678,4.4665,4.6505,4.5286,4.9316,5.1134,5.1426,5.1426,5.1426,5.1426,5.1426,5.1717,5.2104,5.2201,5.2491,5.2896,5.3089,5.3089,0.0,0.0,0.0,5.3856,5.3856,5.4142,5.4544,5.4544,5.4544,5.4544,5.4544,5.4544,5.4544,5.4544,5.4544,5.4544,5.4544,5.4544,5.4544,5.4544,5.4544,5.4544,5.4544,5.4544,5.4544,5.4544,5.4544,5.4544,5.4544,5.4544,5.4565,5.4606,5.5393,5.589,5.5952,5.6738,5.7235,5.7235,5.7235,5.7235,5.7235,5.7235,5.767,5.8601,5.8601,5.9078,5.9988,5.9988,5.9988,5.9988,5.9988,5.9988,5.9988,5.9988,5.9988,5.9988,5.9988,5.9988,5.9988,5.9988,5.9988,6.0113,6.1003,6.1355,6.1479,0.0,0.0,0.0,0.0,0.0,0.0,0.0,0.0,0.0,0.0,0.0,3.667,3.6861,3.6875,3.7007,3.7329,3.7358,3.7417,3.7563,3.7578,0.0,3.7578,3.7578,3.7665,3.7841,3.7856,3.7943,3.8119,3.8265,3.8324,3.8324,3.9326,3.9313,3.8633,4.2774,4.48,4.5203,4.8311,5.0334,5.1426,5.1426,5.1426,5.1426,5.1426,5.1523,5.1717,5.1717,5.1911,5.2124,5.2394,5.2587,5.2587,5.2896,0.0,0.0,0.0,5.4142,5.4544,5.4544,5.4544,5.4544,5.4544,5.4544,5.4544,5.4544,5.4544,5.4544,5.4544,5.4544,5.4544,5.4544,5.4544,5.4544,5.4544,5.4544,5.4544,5.4544,5.4544,5.4544,5.4544,5.4544,5.4544,5.4544,5.5103,5.56,5.5848,5.649,5.6966,5.7215,5.7235,5.7235,5.7235,5.7235,5.7546,5.8208,5.8477,5.9078,5.9988,5.9988,5.9988,5.9988,5.9988,5.9988,5.9988,5.9988,5.9988,5.9988,5.9988,5.9988,5.9988,5.9988,5.9988,6.0113,6.1003,6.1355,6.1479,0.0,0.0,0.0,0.0,0.0,0.0,0.0,0.0,0.0,0.0,0.0,3.6846,3.7183,0.0,0.0,0.0,3.7695,3.7739,3.7812,0.0,0.0,0.0,3.7826,3.7943,3.8178,3.8178,3.8295,3.8543,3.8543,3.8543,3.8543,3.8543,3.8841,3.9448,4.1667,4.3486,4.5203,4.7915,4.9923,5.1426,5.1426,5.1426,5.1426,5.1426,5.1426,5.1426,5.1426,5.1426,5.1426,5.1911,5.2008,5.2104,5.2607,5.3185,0.0,0.0,0.0,5.4544,5.4544,5.4544,5.4544,5.4544,5.4544,5.4544,5.4544,5.4544,5.4544,5.4544,5.4544,5.4544,5.4544,5.4544,5.4544,5.4544,5.4544,5.4544,5.4544,5.4544,5.4544,5.4544,5.4544,5.4544,5.4544,5.4938,5.5372,5.5828,5.6304,5.6759,5.7194,5.7235,5.7235,5.7235,5.7235,5.7442,5.7918,5.8498,5.9202,5.9988,5.9988,5.9988,5.9988,5.9988,5.9988,5.9988,5.9988,5.9988,5.9988,5.9988,5.9988,5.9988,5.9988,5.9988,6.0113,6.1003,6.1355,6.1479,0.0,0.0,0.0,0.0,0.0,0.0,0.0,0.0,0.0,0.0,0.0,3.7183,3.7519,3.7548,3.768,3.8017,3.8046,3.8163,3.847,3.8485,0.0,0.0,0.0,0.0,3.8514,3.8514,3.8529,3.8543,3.8543,3.8543,3.8543,3.8543,3.9655,4.177,4.3891,4.4901,4.5269,4.9414,5.1328,5.1426,5.1426,5.1426,5.1426,5.1426,5.1426,5.1426,5.1426,5.1426,5.1426,5.1426,5.1426,5.1523,5.2104,5.2587,5.3185,0.0,0.0,0.0,5.4544,5.4544,5.4544,5.4544,5.4544,5.4544,5.4544,5.4544,5.4544,5.4544,5.4544,5.4544,5.4544,5.4544,5.4544,5.4544,5.4544,5.4544,5.4544,5.4544,5.4544,5.4544,5.4544,5.4544,5.4544,5.4938,5.5372,5.5828,5.6304,5.6759,5.7194,5.7235,5.7235,5.7235,5.7235,5.7442,5.7918,5.8808,5.9512,5.9988,5.9988,5.9988,5.9988,5.9988,5.9988,5.9988,5.9988,5.9988,5.9988,5.9988,5.9988,5.9988,5.9988,5.9988,6.0113,6.1003,6.1355,6.1479,0.0,0.0,0.0,0.0,0.0,0.0,0.0,0.0,0.0,0.0,0.0,0.0,0.0,3.7885,3.8017,3.8339,3.8368,3.8412,3.8529,3.8543,0.0,0.0,0.0,0.0,3.8543,3.8543,3.8543,3.8543,3.8543,3.8543,3.8543,3.8543,3.8945,3.9744,4.1974,4.4498,4.7103,4.8706,5.0119,5.1426,5.1426,5.1426,5.1426,5.1426,5.1426,5.1426,5.1426,5.1426,5.1426,5.1426,5.1426,5.1426,5.162,5.2008,5.2587,5.3089,5.3664,5.4047,5.4047,5.4238,5.4544,5.4544,5.4544,5.4544,5.4544,5.4544,5.4544,5.4544,5.4544,5.4544,5.4544,5.4544,5.4544,5.4544,5.4544,5.4544,5.4544,5.4544,5.4544,5.4544,5.4544,5.4544,5.4544,5.4668,5.5082,5.5807,5.6035,5.6449,5.7194,5.7235,5.7235,5.7235,5.7235,5.7587,5.8353,5.8684,5.9243,5.9988,5.9988,5.9988,5.9988,5.9988,5.9988,5.9988,5.9988,5.9988,5.9988,5.9988,5.9988,5.9988,5.9988,5.9988,6.0113,6.1003,6.1355,6.1479,0.0,0.0,0.0,0.0,0.0,0.0,0.0,0.0,3.7373,3.7695,0.0,0.0,0.0,0.0,3.8309,3.8514,3.8543,3.8543,3.8543,3.8543,3.8543,3.8543,0.0,0.0,3.8543,3.8441,3.8426,3.8543,3.8426,3.8441,3.8543,3.8543,3.8945,3.9655,4.0348,4.2673,4.6205,4.8311,4.9217,4.9316,5.0021,5.0334,5.0334,5.0334,5.0725,5.1426,5.1426,5.1426,5.1426,5.1426,5.1426,5.1426,5.162,5.2008,5.2587,5.3089,5.3569,5.3856,5.3951,5.4238,5.4544,5.4544,5.4544,5.4544,5.4544,5.4544,5.4544,5.4544,5.4544,5.4544,5.4544,5.4544,5.4544,5.4544,5.4544,5.4544,5.4544,5.4544,5.4544,5.4544,5.4544,5.4544,5.4544,5.4668,5.5062,5.5807,5.6014,5.6428,5.7194,5.7235,5.7235,5.7235,5.7235,5.767,5.8601,5.8601,5.9078,5.9988,5.9988,5.9988,5.9988,5.9988,5.9988,5.9988,5.9988,5.9988,5.9988,5.9988,5.9988,5.9988,5.9988,6.0092,6.032,6.1065,6.1437,6.1686,0.0,0.0,3.6626,3.6626,0.0,0.0,0.0,0.0,3.7709,3.8031,0.0,0.0,0.0,0.0,0.0,3.8543,3.8543,3.8543,3.8543,3.8543,3.8543,3.8543,0.0,0.0,3.8543,3.8236,3.8236,3.8543,3.8236,3.8236,3.8543,3.8543,3.9655,4.1565,3.9552,3.9744,4.2077,4.841,4.8823,4.532,4.732,4.8113,4.8212,4.8212,4.9531,5.1426,5.1426,5.1426,5.1426,5.1426,5.1426,5.1523,5.2008,5.2491,5.3089,5.3569,5.376,5.3856,0.0,0.0,0.0,5.4449,5.4449,5.4449,5.4544,5.4544,5.4544,5.4544,5.4544,5.4544,5.4544,5.4544,5.4544,5.4544,5.4544,5.4544,5.4544,5.4544,5.4544,5.4544,5.4544,5.4544,5.4544,5.4938,5.5372,5.5828,5.6304,5.6759,5.7194,5.7235,5.7235,5.7235,5.7235,5.767,5.8601,5.8601,5.9078,5.9988,5.9988,5.9988,5.9988,5.9988,5.9988,5.9988,5.9988,5.9988,5.9988,5.9988,5.9988,5.9988,5.9988,6.0278,6.0734,6.1189,6.1644,6.21,0.0,0.0,3.6963,3.6963,3.7226,3.7519,3.7768,3.787,3.8046,0.0,0.0,0.0,3.8529,3.8543,3.8543,3.8543,3.8543,3.8543,3.8543,3.8543,3.8543,3.8543,3.8543,3.8543,3.8543,3.8456,3.8456,3.8543,3.8456,3.8456,3.8543,3.8543,3.8841,3.9448,4.0466,4.0363,3.9655,4.2978,4.5587,4.722,4.6323,4.6822,4.8212,4.8212,4.9531,5.1426,5.1426,5.1426,5.1426,5.1426,5.1426,5.1426,5.1523,5.1717,5.1911,5.2008,5.2298,5.2684,5.278,0.0,0.0,0.0,0.0,0.0,5.4428,5.4544,5.4544,5.4544,5.4544,5.4544,5.4544,5.4544,5.4544,5.4544,5.4544,5.4544,5.4544,5.4544,5.4544,5.4544,5.4544,5.4544,5.4544,5.4938,5.5372,5.5828,5.6304,5.6759,5.7194,5.7235,5.7235,5.7235,5.7235,5.767,5.8601,5.8601,5.9078,5.9988,5.9988,5.9988,5.9988,5.9988,5.9988,5.9988,5.9988,5.9988,5.9988,5.9988,5.9988,5.9988,5.9988,6.0278,6.0734,6.1189,6.1644,6.21,3.6773,3.6963,3.7139,3.727,3.7563,3.7841,3.8031,3.8178,3.8324,0.0,0.0,0.0,3.8543,3.8543,3.8543,3.8543,3.8543,3.8543,3.8543,3.8543,3.8543,3.8543,3.8543,3.8543,3.8543,3.8412,3.8397,3.8543,3.8397,3.8412,3.8543,3.8543,3.8543,3.8529,3.9847,4.026,3.9847,4.026,4.1872,4.4195,4.48,4.5203,4.5604,4.6505,4.7618,4.8823,4.9727,5.0021,5.0217,5.1134,5.1426,5.1426,5.1426,5.1426,5.1426,5.1717,5.2008,5.2298,5.2491,5.28,5.3089,5.3664,0.0,0.0,5.4333,5.4544,5.4544,5.4544,5.4544,5.4544,5.4544,5.4544,5.4544,5.4544,5.4544,5.4544,5.4544,5.4544,5.4544,5.4544,5.4544,5.4544,5.4544,5.5103,5.5579,5.5848,5.6469,5.6945,5.7215,5.7235,5.7235,5.7235,5.7235,5.767,5.8601,5.8601,5.9078,5.9988,5.9988,5.9988,5.9988,5.9988,5.9988,5.9988,5.9988,5.9988,5.9988,5.9988,5.9988,5.9988,5.9988,6.0382,6.0982,6.1251,6.1748,6.2348,0.0,3.7183,3.7285,3.7578,3.79,3.8119,3.8119,3.8353,3.8543,0.0,3.8543,3.8543,3.8543,3.8543,3.8543,3.8543,3.8543,3.8543,3.8543,3.8543,3.8543,3.8543,3.8543,3.8543,3.8543,3.8265,3.8251,3.8543,3.8251,3.8265,3.8543,3.8543,3.8543,3.8543,3.8543,3.9552,4.1258,3.9345,3.8543,3.8841,4.2689,4.3299,4.1974,4.3908,4.4817,4.532,4.7419,4.8212,4.8527,5.0725,5.1426,5.1426,5.1426,5.1426,5.1523,5.2008,5.2104,5.2201,5.2704,5.2896,5.2992,5.3569,5.376,0.0,5.4333,5.4544,5.4544,5.4544,5.4544,5.4544,5.4544,5.4544,5.4544,5.4544,5.4544,5.4544,5.4544,5.4544,5.4544,5.4544,5.4544,5.4565,5.4606,5.5372,5.589,5.5952,5.6738,5.7235,5.7235,5.7235,5.7235,5.7235,5.7235,5.767,5.8601,5.8601,5.9078,5.9988,5.9988,5.9988,5.9988,5.9988,5.9988,5.9988,5.9988,5.9988,5.9988,5.9988,5.9988,5.9988,5.9988,6.0547,6.1355,6.1355,6.1913,6.2679,3.7417,3.7695,3.79,3.7958,3.8236,3.8441,3.8441,3.85,3.8543,3.8543,3.8543,3.8543,3.8543,3.8543,3.8543,3.8543,3.8543,3.8543,3.8543,3.8543,3.8543,3.8543,3.8543,3.8543,3.8543,3.8485,3.847,3.8543,3.847,3.8485,3.8543,3.8543,3.8543,3.8543,3.8543,3.8737,3.9137,3.8633,3.8543,3.8529,3.9448,4.0554,4.1872,4.2281,4.3486,4.532,4.7419,4.8212,4.8527,5.0725,5.1426,5.1426,5.1426,5.1426,5.1426,5.1523,5.1523,5.162,5.1717,5.2008,5.2491,5.2992,5.3473,0.0,5.4333,5.4544,5.4544,5.4544,5.4544,5.4544,5.4544,5.4544,5.4544,5.4544,5.4544,5.4544,5.4544,5.4544,5.4544,5.4544,5.4544,5.4668,5.502,5.5559,5.6035,5.6407,5.6925,5.7235,5.7235,5.7235,5.7235,5.7235,5.7235,5.767,5.8601,5.8601,5.9078,5.9988,5.9988,5.9988,5.9988,5.9988,5.9988,5.9988,5.9988,5.9988,5.9988,5.9988,5.9988,5.9988,5.9988,6.0547,6.1355,6.1355,6.1913,6.2679,3.7753,3.7958,3.8119,3.828,3.8426,3.8543,3.8543,3.8543,3.8543,3.8543,3.8543,3.8543,3.8543,3.8543,3.8543,3.8543,3.8543,3.8543,3.8543,3.8543,3.8543,3.8543,3.8543,3.8543,3.8543,3.8543,3.8543,3.8543,3.8543,3.8543,3.8543,3.8543,3.8543,3.8543,3.8543,3.8543,3.8543,3.8543,3.8543,3.8633,3.9655,4.0157,4.026,4.136,4.177,4.2077,4.4195,4.5705,4.6922,4.9119,4.9825,5.0021,5.1037,5.1426,5.1426,5.1426,5.1426,5.1426,5.1426,5.1814,5.2298,5.2896,5.3377,0.0,0.0,5.4544,5.4544,5.4544,5.4544,5.4544,5.4544,5.4544,5.4544,5.4544,5.4544,5.4544,5.4544,5.4544,5.4544,5.4544,5.4731,5.4938,5.5165,5.5807,5.6407,5.6863,5.7111,5.7235,5.7235,5.7235,5.7235,5.7235,5.7235,5.767,5.8601,5.8601,5.9078,5.9988,5.9988,5.9988,5.9988,5.9988,5.9988,5.9988,5.9988,5.9988,5.9988,5.9988,5.9988,6.0009,6.0237,6.0754,6.1375,6.1603,6.212,6.2679,3.8104,3.8163,3.8236,3.85,3.8543,3.8543,3.8543,3.8543,3.8543,3.8543,3.8543,3.8543,3.8543,3.8543,3.8543,3.8543,3.8543,3.8543,3.8543,3.8543,3.8543,3.8543,3.8543,3.8543,3.8543,3.8543,3.8543,3.8543,3.8543,3.8543,3.8543,3.8543,3.8543,3.8543,3.8543,3.8543,3.8543,3.8543,3.8543,3.8633,4.0466,4.0053,3.8737,4.0451,4.0053,3.8737,4.0965,4.3181,4.522,4.7021,4.7618,4.7915,5.0119,5.0822,5.0822,5.1231,5.1426,5.1426,5.1426,5.1814,5.2298,5.2704,5.3377,5.3856,0.0,0.0,0.0,5.4544,5.4544,5.4544,5.4544,5.4544,5.4503,5.442,5.4482,5.4503,5.442,5.4544,5.4627,5.4544,5.4917,5.5227,5.531,5.6159,5.6842,5.7194,5.7235,5.7235,5.7235,5.7235,5.7235,5.7235,5.7235,5.767,5.8601,5.8601,5.9078,5.9988,5.9988,5.9988,5.9988,5.9988,5.9988,5.9988,5.9988,5.9988,5.9988,5.9988,5.9988,6.003,6.0506,6.0961,6.1396,6.1872,6.2307,6.2679,3.8485,3.8485,3.85,3.8529,3.8543,3.8543,3.8543,3.8543,3.8543,3.8543,3.8543,3.8543,3.8543,3.8543,3.8543,3.8543,3.8543,3.8543,3.8543,3.8543,3.8543,3.8543,3.8543,3.8543,3.8543,3.8543,3.8543,3.8543,3.8543,3.8543,3.8543,3.8543,3.8543,3.8543,3.8543,3.8543,3.8543,3.8543,3.8543,3.8543,3.8737,3.8737,3.8543,3.8737,3.8737,3.8737,4.0965,4.3181,4.5019,4.532,4.532,4.5722,4.7915,4.8527,4.8922,5.0822,5.1426,5.1426,5.1426,5.1814,5.2181,5.2298,5.3068,5.3856,5.3856,0.0,5.4544,5.4544,0.0,5.4544,5.4544,0.0,0.0,5.3985,5.4275,5.4399,5.3985,5.4606,5.4979,5.4586,5.4917,5.5352,5.5745,5.6614,5.7173,5.7215,5.7235,5.7235,5.7235,5.7235,5.7235,5.7235,5.7235,5.767,5.8601,5.8601,5.9078,5.9988,5.9988,5.9988,5.9988,5.9988,5.9988,5.9988,5.9988,5.9988,5.9988,5.9988,5.9988,6.003,6.0506,6.0961,6.1396,6.1872,6.2307,6.2679,3.8543,3.8543,3.8543,3.8543,3.8543,3.8543,3.8543,3.8543,3.8543,3.8543,3.8543,3.8543,3.8543,3.8543,3.8543,3.8543,3.8543,3.8543,3.8543,3.8543,3.8543,3.8543,3.8543,3.8543,3.8543,3.8543,3.8543,3.8543,3.8543,3.8543,3.8543,3.8543,3.8543,3.8543,3.8543,3.8543,3.8543,3.8543,3.8543,3.8543,3.8543,3.8543,3.8543,3.8543,3.8543,3.8633,3.9552,4.0466,4.1376,4.2689,4.3181,4.3689,4.7121,4.8212,4.8626,5.0725,5.1426,5.1426,5.1426,5.1814,5.2201,5.2201,5.278,5.3377,5.376,5.3951,5.4142,5.4428,0.0,0.0,0.0,0.0,0.0,0.0,5.442,5.4565,5.4606,5.4938,5.5124,5.4938,5.5538,5.6159,5.6614,5.7008,5.7235,5.7235,5.7235,5.7235,5.7235,5.7235,5.7235,5.7235,5.7235,5.767,5.8601,5.8601,5.9078,5.9988,5.9988,5.9988,5.9988,5.9988,5.9988,5.9988,5.9988,5.9988,5.9988,5.9988,6.0154,6.0444,6.0899,6.1189,6.1437,6.2141,6.2534,6.2679,3.8543,3.8543,3.8543,3.8543,3.8543,3.8543,3.8543,3.8543,3.8543,3.8543,3.8543,3.8543,3.8543,3.8543,3.8543,3.8543,3.8543,3.8543,3.8543,3.8543,3.8543,3.8543,3.8543,3.8543,3.8543,3.8543,3.8543,3.8543,3.8543,3.8543,3.8543,3.8543,3.8543,3.8543,3.8543,3.8543,3.8543,3.8543,3.8543,3.8543,3.8543,3.8543,3.8543,3.8543,3.8543,3.8543,3.8543,3.8543,3.8737,4.0363,4.0862,4.1667,4.6005,4.732,4.7816,0.0,0.0,0.0,5.1426,5.1717,5.2008,5.2008,5.2394,5.2896,5.3261,5.3569,5.3856,5.4238,5.4428,0.0,0.0,0.0,5.4503,5.4358,0.0,5.4793,5.4979,5.5331,5.5517,5.5393,5.6076,5.6738,5.7194,5.7235,5.7235,5.7235,5.7235,5.7235,5.7235,5.7235,5.7235,5.7235,5.7235,5.767,5.8601,5.8601,5.9078,5.9988,5.9988,5.9988,5.9988,5.9988,5.9988,5.9988,5.9988,5.9988,5.9988,5.9988,6.0257,6.0734,6.1168,6.1417,6.1624,6.239,6.2679,6.2679,3.8543,3.8543,3.8543,3.8543,3.8543,3.8543,3.8543,3.8543,3.8543,3.8543,3.8543,3.8543,3.8543,3.8543,3.8543,3.8543,3.8543,3.8543,3.8543,3.8543,3.8543,3.8543,3.8543,3.8543,3.8543,3.8543,3.8543,3.8543,3.8543,3.8543,3.8543,3.8543,3.8543,3.8543,3.8543,3.8543,3.8543,3.8543,3.8543,3.8543,3.8543,3.8543,3.8543,3.8543,3.8543,3.8543,3.8543,3.8543,3.8529,3.8529,3.8633,0.0,0.0,0.0,0.0,0.0,0.0,0.0,0.0,0.0,0.0,5.1426,0.0,0.0,0.0,0.0,5.376,0.0,0.0,0.0,0.0,0.0,5.4399,5.3944,5.4586,0.0,0.0,5.5683,5.6345,5.591,5.6283,5.6738,5.7194,5.7235,5.7235,5.7235,5.7235,5.7235,5.7235,5.7235,5.7235,5.7235,5.7235,5.767,5.8601,5.8601,5.9078,5.9988,5.9988,5.9988,5.9988,5.9988,5.9988,5.9988,5.9988,5.9988,5.9988,5.9988,6.0257,6.0734,6.1168,6.1624,6.2079,6.2493,6.2679,6.2679,3.8543,3.8543,3.8543,3.8543,3.8543,3.8543,3.8543,3.8543,3.8543,3.8543,3.8543,3.8543,3.8543,3.8543,3.8543,3.8543,3.8543,3.8543,3.8543,3.8543,3.8543,3.8543,3.8543,3.8543,3.8543,3.8543,3.8543,3.8543,3.8543,3.8543,3.8543,3.8543,3.8543,3.8543,3.8543,3.8543,3.8543,3.8543,3.8543,3.8543,3.8543,3.8543,3.8543,3.8543,3.8543,3.8543,3.8543,3.8543,0.0,3.8543,3.8543,3.9048,4.1974,4.3908,4.5521,4.8429,5.0334,5.1426,0.0,0.0,5.1426,5.1426,0.0,0.0,0.0,0.0,0.0,0.0,0.0,0.0,0.0,0.0,5.4482,5.4337,5.4793,5.5227,0.0,5.6324,5.6945,5.678,5.6904,5.707,5.7215,5.7235,5.7235,0.0,5.7235,0.0,5.7235,5.7235,5.7235,5.7235,5.7235,5.767,5.8601,5.8601,5.9078,5.9988,5.9988,5.9988,5.9988,5.9988,5.9988,5.9988,5.9988,5.9988,6.0009,6.032,6.0713,6.1168,6.1624,6.2079,6.2472,6.2617,6.2679,6.2679,3.8543,3.8543,3.8543,3.8543,3.8543,3.8543,3.8543,3.8543,3.8543,3.8543,3.8543,3.8543,3.8543,3.8543,3.8543,3.8543,3.8543,3.8543,3.8543,3.8543,3.8543,3.8543,3.8543,3.8543,3.8543,3.8543,3.8543,3.8543,3.8543,3.8543,3.8543,3.8543,3.8543,3.8543,3.8543,3.8543,3.8543,3.8543,3.8543,3.8543,3.8543,3.8543,3.8543,3.8543,3.8543,3.8543,0.0,3.8543,3.8543,3.8543,3.8543,3.8841,4.1068,4.2791,4.4296,4.6423,4.8626,5.0236,5.0236,5.0822,0.0,5.1426,5.1426,0.0,5.2104,0.0,5.2684,0.0,0.0,0.0,0.0,0.0,0.0,0.0,0.0,0.0,0.0,5.6863,5.7235,5.7235,5.7235,5.7235,0.0,0.0,0.0,0.0,0.0,0.0,0.0,5.7235,5.7235,5.7235,5.7235,5.767,5.8601,5.8601,5.9078,5.9988,5.9988,5.9988,5.9988,5.9988,5.9988,5.9988,5.9988,5.9988,6.003,6.0485,6.0941,6.1396,6.1851,6.2307,6.2679,6.2679,6.2679,6.2679,3.8543,3.8543,3.8543,3.8543,3.8543,3.8543,3.8543,3.8543,3.8543,3.8543,3.8543,3.8543,3.8543,3.8543,3.8543,3.8543,3.8543,3.8543,3.8543,3.8543,3.8543,3.8543,3.8543,3.8543,3.8543,3.8543,3.8543,3.8543,3.8543,3.8543,3.8543,3.8543,3.8543,3.8543,3.8543,3.8543,3.8543,3.8543,3.8543,3.8543,3.8543,3.8543,3.8543,3.8543,3.8543,3.8543,3.8543,3.8543,3.8543,3.8543,3.8543,3.8841,4.0965,4.1667,4.2179,4.4195,4.6323,4.8014,4.8212,4.9727,5.1231,5.1328,5.1426,0.0,0.0,0.0,5.3089,0.0,0.0,0.0,0.0,0.0,0.0,0.0,0.0,0.0,0.0,0.0,5.7235,5.7235,5.7235,0.0,0.0,0.0,0.0,0.0,0.0,0.0,0.0,5.7235,5.7235,5.7235,5.7235,5.767,5.8601,5.8601,5.9078,5.9988,5.9988,5.9988,5.9988,5.9988,5.9988,5.9988,5.9988,6.0009,6.005,6.0527,6.0982,6.1417,6.1893,6.2327,6.2679,6.2679,6.2679,6.2679,3.8543,3.8543,3.8543,3.8543,3.8543,3.8543,3.8543,3.8543,3.8543,3.8543,3.8543,3.8543,3.8543,3.8543,3.8543,3.8543,3.8543,3.8543,3.8543,3.8543,3.8543,3.8543,3.8543,3.8543,3.8543,3.8543,3.8543,3.8543,3.8543,3.8543,3.8543,3.8543,3.8543,3.8543,3.8543,3.8543,3.8543,3.8543,3.8543,3.8543,3.8543,3.8543,3.8543,0.0,3.8543,3.8543,3.8543,3.8543,3.8543,3.8543,3.8543,3.8633,3.9152,4.0451,4.1872,4.2485,4.4093,4.6223,4.7717,4.8626,4.9433,5.1037,5.1426,5.1523,0.0,0.0,0.0,0.0,0.0,0.0,0.0,0.0,0.0,0.0,0.0,0.0,0.0,0.0,0.0,5.7235,5.7235,0.0,0.0,0.0,0.0,0.0,0.0,0.0,5.7235,5.7235,5.7235,5.7235,5.7235,5.767,5.8601,5.8601,5.9078,5.9988,5.9988,5.9988,5.9988,5.9988,5.9988,5.9988,5.9988,6.0195,6.0527,6.0982,6.1437,6.1913,6.2348,6.2555,6.2679,6.2679,6.2679,6.2679,3.8543,3.8543,3.8543,3.8543,3.8543,3.8543,3.8543,3.8543,3.8543,3.8543,3.8543,3.8543,3.8543,3.8543,3.8543,3.8543,3.8543,3.8543,3.8543,3.8543,3.8543,3.8543,3.8543,3.8543,3.8543,3.8543,3.8543,3.8543,3.8543,3.8543,3.8543,3.8543,3.8543,3.8543,3.8543,3.8543,3.8543,3.8543,3.8543,3.8543,3.8543,3.8543,0.0,3.8543,3.8543,3.8543,3.8543,3.8543,3.8543,3.8543,3.8543,3.8543,3.8543,3.9345,4.0363,4.0363,4.1872,4.4093,4.6205,4.7501,4.8725,5.0822,5.1426,5.1523,5.2104,5.2201,5.2491,0.0,5.376,5.3951,0.0,0.0,0.0,0.0,0.0,0.0,0.0,0.0,0.0,0.0,5.7235,0.0,0.0,5.7235,0.0,0.0,0.0,0.0,0.0,5.7235,5.7235,5.7235,5.7422,5.7877,5.8601,5.8808,5.9264,5.9988,5.9988,5.9988,5.9988,5.9988,5.9988,5.9988,5.9988,6.0257,6.0713,6.1168,6.1624,6.2079,6.2493,6.2679,6.2679,6.2679,6.2679,6.2679,3.8543,3.8543,3.8543,3.8543,3.8543,3.8543,3.8543,3.8543,3.8543,3.8543,3.8543,3.8543,3.8543,3.8543,3.8543,3.8543,3.8543,3.8543,3.8543,3.8543,3.8543,3.8543,3.8543,3.8543,3.8543,3.8543,3.8543,3.8543,3.8543,3.8543,3.8543,3.8543,3.8543,3.8543,3.8543,3.8543,3.8543,3.8543,3.8543,3.8543,3.8543,3.8543,3.8543,3.8543,3.8543,3.8543,3.8543,3.8543,3.8543,3.8543,3.8543,3.8543,3.8543,3.8543,3.8543,3.8543,3.9847,4.1872,4.438,4.6405,4.833,5.0822,5.1426,5.1523,5.2104,5.2201,5.2491,5.3569,5.376,5.3951,5.4428,0.0,0.0,0.0,0.0,0.0,0.0,0.0,0.0,0.0,0.0,0.0,5.7235,5.7235,5.7235,0.0,0.0,0.0,0.0,0.0,5.7235,5.7235,5.767,5.8146,5.8601,5.9078,5.9533,5.9988,5.9988,5.9988,5.9988,5.9988,5.9988,5.9988,5.9988,6.0278,6.0796,6.1189,6.1644,6.2162,6.2555,6.2679,6.2679,6.2679,6.2679,6.2679,3.8543,3.8543,3.8543,3.8543,3.8543,3.8543,3.8543,3.8543,3.8543,3.8543,3.8543,3.8543,3.8543,3.8543,3.8543,3.8543,3.8543,3.8543,3.8543,3.8543,3.8543,3.8543,3.8543,3.8543,3.8543,3.8543,3.8543,3.8543,3.8543,3.8543,3.8543,3.8543,3.8543,3.8543,3.8543,3.8543,3.8543,3.8543,3.8543,3.8543,3.8543,3.8543,3.8543,3.8543,3.8543,3.8543,3.8543,3.8543,3.8543,3.8543,3.8543,3.8543,3.8543,3.8543,3.8543,3.8543,3.8737,3.995,4.3891,4.5303,4.6523,5.0432,5.1426,5.1523,5.2104,5.2201,5.2491,5.3569,5.376,5.3951,5.4428,0.0,0.0,0.0,0.0,0.0,0.0,0.0,0.0,0.0,0.0,5.7235,0.0,0.0,5.7235,5.7235,0.0,0.0,0.0,0.0,5.7235,0.0,5.767,5.8146,0.0,5.9078,5.9533,5.9988,5.9988,5.9988,5.9988,5.9988,5.9988,5.9988,5.9988,6.0464,6.123,6.1313,6.1831,6.2555,6.2679,6.2679,6.2679,6.2679,6.2679,6.2679,3.8543,3.8543,3.8543,3.8543,3.8543,3.8543,3.8543,3.8543,3.8543,3.8543,3.8543,3.8543,3.8543,3.8543,3.8543,3.8543,3.8543,3.8543,3.8543,3.8543,3.8543,3.8543,3.8543,3.8543,3.8543,3.8543,3.8543,3.8543,3.8543,3.8543,3.8543,3.8543,3.8543,3.8543,3.8543,3.8543,3.8543,3.8543,3.8543,3.8543,3.8543,3.8543,3.8543,3.8543,3.8543,3.8543,3.8543,3.8543,3.8543,3.8543,3.8543,3.8543,3.8543,3.8543,3.8543,3.8543,3.8543,3.9241,4.2485,4.411,4.5722,4.8922,5.0627,5.1426,5.1717,5.1814,5.2008,5.278,5.3185,5.3569,5.4333,5.471,0.0,0.0,0.0,0.0,0.0,0.0,5.7235,0.0,0.0,0.0,0.0,0.0,0.0,5.7235,5.7235,0.0,0.0,0.0,5.7339,0.0,0.0,0.0,5.8953,0.0,5.9781,5.9988,5.9988,5.9988,5.9988,5.9988,5.9988,6.0009,6.0237,6.0734,6.1375,6.1851,6.2286,6.2679,6.2679,6.2679,6.2679,6.2679,6.2679,6.2679,3.8543,3.8543,3.8543,3.8543,3.8543,3.8543,3.8543,3.8543,3.8543,3.8543,3.8543,3.8543,3.8543,3.8543,3.8543,3.8543,3.8543,3.8543,3.8543,3.8543,3.8543,3.8543,3.8543,3.8543,3.8543,3.8543,3.8543,3.8543,0.0,3.85,3.8441,3.85,3.8543,3.8543,3.8543,3.8543,0.0,0.0,3.8543,3.8543,3.8543,3.8543,3.8543,3.8543,3.8543,3.8543,3.8543,3.8543,3.8543,3.8543,3.8543,3.8543,3.8543,3.8543,3.8543,3.8543,3.8543,3.8945,4.1171,4.3401,4.5521,4.7618,4.9825,5.1426,5.1426,5.1426,5.1523,5.2104,5.2684,5.3473,5.4354,5.4606,0.0,0.0,0.0,0.0,0.0,0.0,0.0,0.0,0.0,0.0,5.7235,0.0,0.0,0.0,0.0,0.0,5.7235,0.0,0.0,0.0,0.0,5.8933,5.9305,0.0,5.9988,5.9988,5.9988,5.9988,5.9988,5.9988,5.9988,6.0009,6.0485,6.0982,6.1562,6.2348,6.2679,6.2679,6.2679,6.2679,6.2679,6.2679,6.2679,6.2679,3.8543,3.8543,3.8543,3.8543,3.8543,3.8543,3.8543,3.8543,3.8543,3.8543,3.8543,3.8543,3.8543,3.8543,3.8543,3.8543,3.8543,3.8543,3.8543,3.8543,3.8543,3.8543,3.8543,3.8543,3.8543,3.8543,3.8543,0.0,0.0,3.8397,0.0,0.0,0.0,0.0,0.0,0.0,0.0,3.8543,3.8543,3.8543,3.8543,3.8543,3.8543,3.8543,3.8543,3.8543,3.8543,3.8543,3.8543,3.8543,3.8543,3.8543,3.8543,3.8543,3.8543,3.8543,3.8543,3.8945,4.1171,4.3401,4.5521,4.7618,4.9825,5.1426,5.1426,5.1426,5.1523,5.2104,5.2972,5.3856,5.4449,5.4855,5.5289,0.0,0.0,0.0,0.0,0.0,5.7235,5.7235,0.0,0.0,5.7235,5.7235,5.7235,0.0,5.7235,0.0,0.0,0.0,0.0,5.7918,5.8767,5.9264,5.9305,5.9761,5.9988,5.9988,5.9988,5.9988,5.9988,5.9988,5.9988,6.0009,6.0485,6.1168,6.1996,6.2493,6.2679,6.2679,6.2679,6.2679,6.2679,6.2679,6.2679,6.2679,3.8543,3.8543,3.8543,3.8543,3.8543,3.8543,3.8543,3.8543,3.8543,3.8543,3.8543,3.8543,3.8543,3.8543,3.8543,3.8543,3.8543,3.8543,3.8543,3.8543,3.8543,3.8543,3.8543,3.8543,3.8543,3.8543,3.8543,0.0,0.0,0.0,0.0,0.0,0.0,0.0,0.0,3.8543,3.8543,3.8543,3.8543,3.8543,3.8543,3.8543,3.8543,3.8543,3.8543,3.8543,3.8543,3.8543,3.8543,3.8543,3.8543,3.8543,3.8543,3.8543,3.8543,3.8543,3.8543,3.8737,3.9552,4.2383,4.522,4.6105,4.8903,5.1426,5.1426,5.1426,5.1426,5.1717,5.2587,5.3569,5.4354,5.4896,5.5331,5.5807,0.0,0.0,0.0,0.0,0.0,5.7235,0.0,5.7235,0.0,5.7235,5.7235,0.0,0.0,5.7235,0.0,0.0,0.0,5.8332,0.0,5.9429,5.9719,5.9906,5.9988,5.9988,5.9988,5.9988,5.9988,5.9988,6.0278,6.0816,6.1003,6.1582,6.2431,6.2617,6.2679,6.2679,6.2679,6.2679,6.2679,6.2679,6.2679,6.2679,3.8543,3.8543,3.8543,3.8543,3.8543,3.8543,3.8543,3.8543,3.8543,3.8543,3.8543,3.8543,3.8543,3.8543,3.8543,3.8543,3.8543,3.8543,3.8543,3.8543,3.8543,3.8543,3.8543,0.0,3.8543,3.8543,3.8543,3.8543,3.8543,0.0,0.0,0.0,0.0,0.0,3.8543,3.8543,3.8543,3.8543,3.8543,3.8543,3.8543,3.8543,3.8543,3.8543,3.8543,3.8543,3.8543,3.8543,3.8543,3.8543,3.8543,3.8543,3.8543,3.8543,3.8543,3.8543,3.8543,3.8543,3.8543,4.1683,4.5019,4.4984,4.8212,5.1426,5.1426,5.1426,5.1426,5.162,5.2201,5.3089,5.4142,5.4808,5.5303,5.5828,0.0,0.0,0.0,5.7235,0.0,0.0,5.7235,5.7235,5.7235,5.7235,5.7235,5.7235,5.7235,5.7235,5.7235,0.0,0.0,0.0,0.0,0.0,5.9988,5.9988,5.9988,5.9988,5.9988,5.9988,5.9988,6.0133,6.0609,6.1355,6.1499,6.1976,6.2679,6.2679,6.2679,6.2679,6.2679,6.2679,6.2679,6.2679,6.2679,6.2679,3.8543,3.8543,3.8543,3.8543,3.8543,3.8543,3.8543,3.8543,3.8543,3.8543,3.8543,3.8543,3.8543,3.8543,3.8543,3.8543,3.8543,3.8543,3.8543,3.8543,3.8543,0.0,0.0,3.8543,3.8543,3.8543,3.8543,3.8543,0.0,0.0,3.8075,0.0,3.8236,3.8543,3.8543,3.8543,3.8543,3.8543,3.8543,3.8543,3.8543,3.8543,3.8543,3.8543,3.8543,3.8543,3.8543,3.8543,3.8543,3.8543,3.8543,3.8543,3.8543,3.8543,3.8543,3.8543,3.8543,3.8543,3.8543,4.1683,4.5019,4.5019,4.8231,5.1426,5.1426,5.1426,5.1523,5.2104,5.2201,5.2587,5.3569,5.4495,5.5283,5.5772,0.0,0.0,0.0,5.7235,0.0,5.7235,5.7235,5.7235,5.7235,5.7235,0.0,5.7235,5.7235,5.7235,5.7235,5.8105,0.0,5.8601,5.9512,0.0,5.9988,5.9988,5.9988,5.9988,5.9988,5.9988,6.0009,6.0464,6.092,6.1375,6.1831,6.2265,6.2679,6.2679,6.2679,6.2679,6.2679,6.2679,6.2679,6.2679,6.2679,6.2679,3.8543,3.8543,3.8543,3.8543,3.8543,3.8543,3.8543,3.8543,3.8543,3.8543,3.8543,3.8543,3.8543,3.8543,3.8543,0.0,3.8543,3.8543,0.0,3.8543,3.8543,3.8543,3.8543,3.8543,3.8543,3.8543,3.8543,3.8543,0.0,0.0,0.0,3.8382,3.8441,3.8543,3.8543,3.8543,3.8543,3.8543,3.8543,3.8543,3.8543,3.8543,3.8543,3.8543,3.8543,3.8543,3.8543,3.8543,3.8543,3.8543,3.8543,3.8543,3.8543,3.8543,3.8543,3.8543,3.8543,3.8543,3.8543,4.1683,4.5019,4.5019,4.8231,5.1426,5.1426,5.1426,5.1523,5.2104,5.2491,5.2992,5.3664,5.4786,5.5674,5.5869,5.6635,0.0,5.7235,0.0,5.7235,5.7235,5.7235,5.7235,5.7235,5.7235,0.0,0.0,0.0,0.0,0.0,0.0,0.0,0.0,5.9512,0.0,5.9988,5.9988,5.9988,5.9988,5.9988,5.9988,6.0009,6.0464,6.092,6.1375,6.1831,6.2286,6.2679,6.2679,6.2679,6.2679,6.2679,6.2679,6.2679,6.2679,6.2679,6.2679,3.8543,3.8543,3.8543,3.8543,3.8543,3.8543,3.8543,3.8543,3.8543,3.8543,3.8543,3.8543,3.8543,3.8543,0.0,3.8543,3.8543,3.8543,3.8543,3.8543,3.8543,3.8543,3.8543,3.8543,3.8543,3.8543,0.0,3.8543,3.8543,3.8543,3.8543,3.8543,3.8543,3.8543,3.8543,3.8543,3.8543,3.8543,3.8543,3.8543,3.8543,3.8543,3.8543,3.8543,3.8543,3.8543,3.8543,3.8543,3.8543,3.8543,3.8543,3.8543,3.8543,3.8543,3.8543,3.8543,3.8543,3.8543,3.8543,4.1068,4.3992,4.48,4.7004,4.9217,5.0021,5.0822,5.1523,5.1814,5.2201,5.2607,5.3068,5.4377,5.5381,5.5576,5.6536,5.7235,5.7235,0.0,5.7235,0.0,0.0,5.7235,5.7235,5.7235,5.7235,0.0,0.0,0.0,0.0,0.0,5.8684,5.8871,5.9595,5.9988,5.9988,5.9988,5.9988,5.9988,5.9988,5.9988,6.0009,6.0651,6.1085,6.1375,6.2017,6.2431,6.2679,6.2679,6.2679,6.2679,6.2679,6.2679,6.2679,6.2679,6.2679,6.2679,3.8543,3.8543,3.8543,3.8543,3.8543,3.8543,3.8543,3.8543,3.8543,3.8543,3.8543,3.8543,3.8543,3.8543,3.8543,3.8543,0.0,0.0,3.8543,3.8543,3.8543,3.8543,3.8543,3.8543,3.8543,3.8543,3.8543,3.8543,3.8543,3.8543,3.8543,3.8543,3.8543,3.8543,3.8543,3.8543,3.8543,3.8543,3.8543,3.8543,3.8543,3.8543,3.8543,3.8543,3.8543,3.8543,3.8543,3.8543,3.8543,3.8543,3.8543,3.8543,3.8543,3.8543,3.8543,3.8543,3.8543,3.8543,3.8543,4.0157,4.2265,4.4279,4.5001,4.5722,4.7717,4.9825,5.1426,5.1426,5.1426,5.1639,5.2144,5.3424,5.4517,5.5029,5.626,5.7235,5.7235,5.7235,0.0,0.0,0.0,0.0,5.7235,5.7235,5.7235,0.0,0.0,0.0,0.0,0.0,5.8829,5.9285,5.9761,5.9988,5.9988,5.9988,5.9988,5.9988,5.9988,6.0009,6.0071,6.0941,6.1355,6.1437,6.2307,6.2679,6.2679,6.2679,6.2679,6.2679,6.2679,6.2679,6.2679,6.2679,6.2679,6.2679,0.0,0.0,3.8543,3.8543,3.8543,3.8543,3.8543,3.8543,3.8543,3.8543,3.8543,3.8543,3.8543,3.8543,3.8543,3.8543,3.8543,3.8543,3.8543,3.8543,3.8543,3.8543,3.8543,3.8543,3.8543,3.8543,3.8543,3.8543,3.8543,3.8543,3.8543,3.8543,3.8543,3.8543,3.8543,3.8543,3.8543,3.8543,3.8543,3.8543,3.8543,3.8543,3.8543,3.8543,3.8543,3.8543,3.8543,3.8543,3.8543,3.8543,3.8543,3.8543,3.8543,3.8543,3.8543,3.8543,3.8543,3.8543,3.8543,4.0157,4.1974,4.2469,4.5001,4.7618,4.8113,4.9825,5.1426,5.1426,5.1717,5.2203,5.2657,5.3938,5.5111,5.5556,5.6565,5.7235,5.7235,5.7235,5.7235,0.0,5.7235,5.7235,5.7235,5.7235,5.7235,0.0,0.0,5.7587,5.8394,5.856,5.8829,5.9285,5.9761,5.9988,5.9988,5.9988,5.9988,5.9988,5.9988,6.0175,6.0527,6.1085,6.1541,6.1913,6.2452,6.2679,6.2679,6.2679,6.2679,6.2679,6.2679,6.2679,6.2679,6.2679,6.2679,6.2679,3.8543,3.8543,3.8543,3.8543,3.8543,3.8543,3.8543,3.8543,3.8543,3.8543,3.8543,3.8543,3.8543,3.8543,3.8543,3.8543,3.8543,3.8543,3.8543,3.8543,3.8543,3.8543,3.8543,3.8543,3.8543,3.8543,3.8543,3.8543,3.8543,3.8543,3.8543,3.8543,3.8543,3.8543,3.8543,3.8543,3.8543,3.8543,3.8543,3.8543,3.8543,3.8543,3.8543,3.8543,3.8543,3.8543,3.8543,3.8543,3.8543,3.8543,3.8543,3.8543,3.8543,3.8543,3.8543,3.8543,3.8543,3.8543,3.8543,3.9345,4.0554,4.1565,4.5001,4.8212,4.8212,4.9825,5.1426,5.1426,5.162,5.1952,5.2404,5.3724,5.4856,5.5401,5.6448,5.7235,5.7235,5.7235,5.7235,5.7235,5.7235,5.7235,5.7235,5.7235,5.7235,5.7235,5.7422,0.0,5.8581,5.8808,5.914,5.9595,5.9864,5.9988,5.9988,5.9988,5.9988,5.9988,5.9988,6.0237,6.0692,6.1148,6.1603,6.2058,6.2493,6.2679,6.2679,6.2679,6.2679,6.2679,6.2679,6.2679,6.2679,6.2679,6.2679,6.2679,3.8543,3.8543,3.8543,3.8543,3.8543,3.8543,3.8543,3.8543,3.8543,3.8543,3.8543,3.8543,3.8543,3.8543,3.8543,3.8543,3.8543,3.8543,3.8543,3.8543,3.8543,3.8543,3.8543,3.8543,3.8543,3.8543,3.8543,3.8543,3.8543,3.8543,3.8543,3.8543,3.8543,3.8543,3.8543,3.8543,3.8543,3.8543,3.8543,3.8543,3.8543,3.8543,3.8543,3.8543,3.8543,3.8543,3.8543,3.8543,3.8543,3.8543,3.8543,3.8543,3.8543,3.8543,3.8543,3.8543,3.8543,3.8543,3.8543,3.8543,3.9048,4.1273,4.48,4.7816,4.8113,4.9825,5.1426,5.1426,5.1426,5.1582,5.209,5.3272,5.4382,5.4904,5.6189,5.7135,5.7135,0.0,5.7235,5.7235,5.7235,5.7235,5.7235,5.7235,5.7256,5.7318,5.7691,5.8146,5.8684,5.9078,5.9512,5.9988,5.9988,5.9988,5.9988,5.9988,5.9988,5.9988,5.9988,6.0257,6.0796,6.1168,6.1624,6.2162,6.2534,6.2679,6.2679,6.2679,6.2679,6.2679,6.2679,6.2679,6.2679,6.2679,6.2679,6.2679,3.8543,3.8543,3.8543,3.8543,3.8543,3.8543,3.8543,3.8543,3.8543,3.8543,3.8543,3.8543,3.8543,3.8543,3.8543,3.8543,3.8543,3.8543,3.8543,3.8543,3.8543,3.8543,3.8543,3.8543,3.8543,3.8543,3.8543,3.8543,3.8543,3.8543,3.8543,3.8543,3.8543,3.8543,3.8543,3.8543,3.8543,3.8543,3.8543,3.8543,3.8543,3.8543,3.8543,3.8543,3.8543,3.8543,3.8543,3.8543,3.8543,3.8543,3.8543,3.8543,3.8543,3.8543,3.8543,3.8543,3.8543,3.8543,3.8543,3.8543,3.9048,4.1273,4.3689,4.6023,4.7816,4.9825,5.1426,5.1426,5.1426,5.168,5.2461,5.3153,5.3867,5.4701,5.5789,5.6534,5.6534,0.0,5.7235,5.7235,5.7235,5.7235,5.7235,5.7235,5.738,5.7773,5.7877,5.8291,5.914,5.9264,5.9512,5.9988,5.9988,5.9988,5.9988,5.9988,5.9988,5.9988,5.9988,6.0423,6.1251,6.1313,6.1789,6.2617,6.2679,6.2679,6.2679,6.2679,6.2679,6.2679,6.2679,6.2679,6.2679,6.2679,6.2679,6.2679,3.8543,3.8543,3.8543,3.8543,3.8543,3.8543,3.8543,3.8543,3.8543,3.8543,3.8543,3.8543,3.8543,3.8543,3.8543,3.8543,3.8543,3.8543,3.8543,3.8543,3.8543,3.8543,3.8543,3.8543,3.8543,3.8543,3.8543,3.8543,3.8543,3.8543,3.8543,3.8543,3.8543,3.8543,3.8543,3.8543,3.8543,3.8543,3.8543,3.8543,3.8543,3.8543,3.8543,3.8543,3.8543,3.8543,3.8543,3.8543,3.8543,3.8543,3.8543,3.8543,3.8543,3.8543,3.8543,3.8543,3.8543,3.8543,3.8543,3.8543,3.9345,4.2689,4.4296,4.5888,4.9119,5.0725,5.1426,5.1426,5.1621,5.1973,5.2598,5.3309,5.4084,5.4719,5.5729,5.6434,5.6434,5.6835,5.7235,5.7235,5.7235,5.7235,5.7235,5.7235,5.7422,5.7877,5.8146,5.8581,5.9264,5.9533,5.9781,5.9988,5.9988,5.9988,5.9988,5.9988,5.9988,5.9988,6.0237,6.0713,6.1355,6.1603,6.2058,6.2679,6.2679,6.2679,6.2679,6.2679,6.2679,6.2679,6.2679,6.2679,6.2679,6.2679,6.2679,6.2679,3.8543,3.8543,3.8543,3.8543,3.8543,3.8543,3.8543,3.8543,3.8543,3.8543,3.8543,3.8543,3.8543,3.8543,3.8543,3.8543,3.8543,3.8543,3.8543,3.8543,3.8543,3.8543,3.8543,3.8543,3.8543,3.8543,3.8543,3.8543,3.8543,3.8543,3.8543,3.8543,3.8543,3.8543,3.8543,3.8543,3.8543,3.8543,3.8543,3.8543,3.8543,3.8543,3.8543,3.8543,3.8543,3.8543,3.8543,3.8543,3.8543,3.8543,3.8543,3.8543,3.8543,3.8543,3.8543,3.8543,3.8543,3.8543,3.8543,3.8543,3.9552,4.3908,4.5001,4.6088,5.0432,5.1426,5.1465,5.1562,5.1855,5.2246,5.2773,5.3445,5.4121,5.4556,0.0,5.6233,5.6233,5.6835,5.7235,5.7235,5.7235,5.7235,5.7235,5.7318,5.7587,5.8043,5.8519,5.8974,5.9429,5.9802,5.9988,5.9988,5.9988,5.9988,5.9988,5.9988,5.9988,5.9988,6.0464,6.092,6.1355,6.1831,6.2265,6.2679,6.2679,6.2679,6.2679,6.2679,6.2679,6.2679,6.2679,6.2679,6.2679,6.2679,6.2679,6.2679,3.8543,3.8543,3.8543,3.8543,3.8543,3.8543,3.8543,3.8543,3.8543,3.8543,3.8543,3.8543,3.8543,3.8543,3.8543,3.8543,3.8543,3.8543,3.8543,3.8543,3.8543,3.8543,3.8543,3.8543,3.8543,3.8543,3.8543,3.8543,3.8543,3.8543,3.8543,3.8543,3.8543,3.8543,3.8543,3.8543,3.8543,3.8543,3.8543,3.8543,3.8543,3.8543,3.8543,3.8543,3.8543,3.8543,3.8543,3.8543,3.8543,3.8543,3.8543,3.8543,3.8543,3.8543,3.8543,3.8543,3.8543,3.8543,3.8543,3.8543,3.9552,4.3908,4.5019,4.6105,5.0432,5.1426,5.1543,5.1953,5.2051,5.2324,5.3164,5.344,5.3617,5.3945,0.0,0.0,5.5628,5.6534,5.7235,5.7235,5.7235,5.7235,5.7235,5.7608,5.8063,5.8519,5.8995,5.945,5.9906,5.9968,5.9988,5.9988,5.9988,5.9988,5.9988,5.9988,5.9988,5.9988,6.0464,6.092,6.1355,6.1831,6.2265,6.2679,6.2679,6.2679,6.2679,6.2679,6.2679,6.2679,6.2679,6.2679,6.2679,6.2679,6.2679,6.2679,3.8543,3.8543,3.8543,3.8543,3.8543,3.8543,3.8543,3.8543,3.8543,3.8543,3.8543,3.8543,3.8543,3.8543,3.8543,3.8543,3.8543,3.8543,3.8543,3.8543,3.8543,3.8543,3.8543,3.8543,3.8543,3.8543,3.8543,3.8543,3.8543,3.8543,3.8543,3.8543,3.8543,3.8543,3.8543,3.8543,3.8543,3.8543,3.8543,3.8543,3.8543,3.8543,3.8543,3.8543,3.8543,3.8543,3.8543,3.8543,3.8543,3.8543,3.8543,3.8543,3.8543,3.8543,3.8543,3.8543,3.8543,3.8543,3.8543,3.9552,4.1258,4.4279,4.5001,4.6123,5.0432,5.0643,5.0261,5.1736,5.25,5.2969,5.3301,5.3594,5.3828,5.4004,0.0,5.5628,5.5628,5.6534,5.7235,5.7235,5.7235,5.7339,5.7629,5.7815,5.8229,5.8974,5.9202,5.9492,5.9968,5.9988,5.9988,5.9988,5.9988,5.9988,5.9988,5.9988,5.9988,5.9988,6.0734,6.1189,6.1375,6.21,6.2534,6.2679,6.2679,6.2679,6.2679,6.2679,6.2679,6.2679,6.2679,6.2679,6.2679,6.2679,6.2679,6.2679,3.8543,3.8543,3.8543,3.8543,3.8543,3.8543,3.8543,3.8543,3.8543,3.8543,3.8543,3.8543,3.8543,3.8543,3.8543,3.8543,3.8543,3.8543,3.8543,3.8543,3.8543,3.8543,3.8543,3.8543,3.8543,3.8543,3.8543,3.8543,3.8543,3.8543,3.8543,3.8543,3.8543,3.8543,3.8543,3.8543,3.8543,3.8543,3.8543,3.8543,3.8543,3.8543,3.8543,3.8543,3.8543,3.8543,3.8543,3.8543,3.8543,3.8543,3.8543,3.8543,3.8543,3.8543,3.8543,3.8543,3.8543,3.8543,3.8543,4.0157,4.2265,4.4481,4.4481,4.5303,5.0217,5.0049,4.9573,5.1851,5.2851,5.3398,5.3555,5.3828,5.4023,5.4023,5.4736,5.5325,5.5325,5.6233,5.6935,5.6935,5.7135,5.7401,5.7877,5.8043,5.8457,5.9243,5.9429,5.9657,5.9968,5.9988,5.9988,5.9988,5.9988,5.9988,5.9988,5.9988,6.0071,6.0216,6.0982,6.1417,6.1582,6.2327,6.2679,6.2679,6.2679,6.2679,6.2679,6.2679,6.2679,6.2679,6.2679,6.2679,6.2679,6.2679,6.2679,6.2679,3.8543,3.8543,3.8543,3.8543,3.8543,3.8543,3.8543,3.8543,3.8543,3.8543,3.8543,3.8543,3.8543,3.8543,3.8543,3.8543,3.8543,3.8543,3.8543,3.8543,3.8543,3.8543,3.8543,3.8543,3.8543,3.8543,3.8543,3.8543,3.8543,3.8543,3.8543,3.8543,3.8543,3.8543,3.8543,3.8543,3.8543,3.8543,3.8543,3.8543,3.8543,3.8543,3.8543,3.8543,3.8543,3.8543,3.8543,3.8543,3.8543,3.8543,3.8543,3.8543,3.8543,3.8543,3.8543,3.8543,3.8543,3.8543,3.8543,4.0157,4.2265,4.4481,4.3368,4.3486,4.9923,5.0049,4.9647,5.2219,5.3066,5.3496,5.3945,5.4023,5.4023,5.4023,5.4431,5.4838,5.4838,5.5729,5.6434,5.6434,5.6835,5.7422,5.7877,5.8353,5.8808,5.9264,5.974,5.9988,5.9988,5.9988,5.9988,5.9988,5.9988,5.9988,5.9988,5.9988,6.0216,6.0692,6.1127,6.1582,6.2058,6.2493,6.2679,6.2679,6.2679,6.2679,6.2679,6.2679,6.2679,6.2679,6.2679,6.2679,6.2679,6.2679,6.2679,6.2679,3.8543,3.8543,3.8543,3.8543,3.8543,3.8543,3.8543,3.8543,3.8543,3.8543,3.8543,3.8543,3.8543,3.8543,3.8543,3.8543,3.8543,3.8543,3.8543,3.8543,3.8543,3.8543,3.8543,3.8543,3.8543,3.8543,3.8543,3.8543,3.8543,3.8543,3.8543,3.8543,3.8543,3.8543,3.8543,3.8543,3.8543,3.8543,3.8543,3.8543,3.8543,3.8543,3.8543,3.8543,3.8543,3.8543,3.8543,3.8543,3.8543,3.8543,3.8543,3.8543,3.8543,3.8543,3.8543,3.8543,3.8543,3.8841,4.0348,4.0157,4.0053,4.2163,4.2265,4.3145,4.8479,4.8342,4.8232,5.2344,5.3516,5.3867,5.4004,5.4023,5.4023,5.4023,5.4431,5.4838,5.4838,5.5729,5.6434,5.6434,5.7102,5.7898,5.8353,5.8829,5.9285,5.9761,5.9906,5.9988,5.9988,5.9988,5.9988,5.9988,5.9988,5.9988,5.9988,5.9988,6.0216,6.0692,6.1127,6.1582,6.2058,6.2493,6.2679,6.2679,6.2679,6.2679,6.2679,6.2679,6.2679,6.2679,6.2679,6.2679,6.2679,6.2679,6.2679,6.2679,3.8543,3.8543,3.8543,3.8543,3.8543,3.8543,3.8543,3.8543,3.8543,3.8543,3.8543,3.8543,3.8543,3.8543,3.8543,3.8543,3.8543,3.8543,3.8543,3.8543,3.8543,3.8543,3.8543,3.8543,3.8543,3.8543,3.8543,3.8543,3.8543,3.8543,3.8543,3.8543,3.8543,3.8543,3.8543,3.8543,3.8543,3.8543,3.8543,3.8543,3.8543,3.8543,3.8543,3.8543,3.8543,3.8543,3.8543,3.8543,3.8543,3.8543,3.8543,3.8543,3.8543,3.8543,3.8543,3.8543,3.8543,3.8945,4.1171,4.0157,3.9048,4.1273,4.1265,4.2127,4.7659,4.7616,4.7768,5.2474,5.3711,5.4023,5.4023,5.4023,5.4023,5.4023,5.4227,5.4533,5.4533,5.5426,5.6193,5.6376,5.7248,5.8167,5.8829,5.914,5.9492,5.9947,5.9988,5.9988,5.9988,5.9988,5.9988,5.9988,5.9988,5.9988,5.9988,6.0175,6.0485,6.0941,6.121,6.1686,6.2307,6.2555,6.2679,6.2679,6.2679,6.2679,6.2679,6.2679,6.2679,6.2679,6.2679,6.2679,6.2679,6.2679,6.2679,6.2679,3.8543,3.8543,3.8543,3.8543,3.8543,3.8543,3.8543,3.8543,3.8543,3.8543,3.8543,3.8543,3.8543,3.8543,3.8543,3.8543,3.8543,3.8543,3.8543,3.8543,3.8543,3.8543,3.8543,3.8543,3.8543,3.8543,3.8543,3.8543,3.8543,3.8543,3.8543,3.8543,3.8543,3.8543,3.8543,3.8543,3.8543,3.8543,3.8543,3.8543,3.8543,3.8543,3.8543,3.8543,3.8543,3.8543,3.8543,3.8543,3.8543,3.8543,3.8543,3.8543,3.8543,3.8543,3.8543,3.8543,3.8543,3.8945,4.1171,4.0157,3.9048,4.1305,4.0551,4.102,4.7243,4.7726,4.8067,5.257,5.375,5.4023,5.4023,5.4023,5.4023,5.4023,5.4023,5.4023,5.4023,5.4939,5.5688,5.615,5.725,5.8231,5.9098,5.9347,5.9533,5.9968,5.9988,5.9988,5.9988,5.9988,5.9988,5.9988,5.9988,5.9988,5.9988,6.0444,6.0899,6.1355,6.1396,6.1851,6.2679,6.2679,6.2679,6.2679,6.2679,6.2679,6.2679,6.2679,6.2679,6.2679,6.2679,6.2679,6.2679,6.2679,6.2679,6.2679,3.8543,3.8543,3.8543,3.8543,3.8543,3.8543,3.8543,3.8543,3.8543,3.8543,3.8543,3.8543,3.8543,3.8543,3.8543,3.8543,3.8543,3.8543,3.8543,3.8543,3.8543,3.8543,3.8543,3.8543,3.8543,3.8543,3.8543,3.8543,3.8543,3.8543,3.8543,3.8543,3.8543,3.8543,3.8543,3.8543,3.8543,3.8543,3.8543,3.8543,3.8543,3.8543,3.8543,3.8543,3.8543,3.8543,3.8543,3.8543,3.8543,3.8543,3.8543,3.8543,3.8543,3.8543,3.8543,3.8543,3.8543,3.8945,4.1171,4.0157,3.9108,4.1603,4.2141,4.29,4.6115,4.6786,4.8138,5.2872,5.3965,5.4023,5.4023,5.4023,5.4023,5.4023,5.4023,5.4023,5.4023,5.4533,5.52,5.5638,5.6922,5.8068,5.8497,5.9303,5.9885,5.9988,5.9988,5.9988,5.9988,5.9988,5.9988,5.9988,5.9988,5.9988,5.9988,6.0444,6.0899,6.1355,6.1706,6.2162,6.2679,6.2679,6.2679,6.2679,6.2679,6.2679,6.2679,6.2679,6.2679,6.2679,6.2679,6.2679,6.2679,6.2679,6.2679,6.2679,3.8543,3.8543,3.8543,3.8543,3.8543,3.8543,3.8543,3.8543,3.8543,3.8543,3.8543,3.8543,3.8543,3.8543,3.8543,3.8543,3.8543,3.8543,3.8543,3.8543,3.8543,3.8543,3.8543,3.8543,3.8543,3.8543,3.8543,3.8543,3.8543,3.8543,3.8543,3.8543,3.8543,3.8543,3.8543,3.8543,3.8543,3.8543,3.8543,3.8543,3.8543,3.8543,3.8543,3.8543,3.8543,3.8543,3.8543,3.8543,3.8543,3.8543,3.8543,3.8543,3.8543,3.8543,3.8543,3.8543,3.8543,3.8945,4.1171,4.0264,3.9315,4.1744,4.2675,4.3794,4.599,4.7634,4.9633,5.3249,5.4023,5.4023,5.4023,5.4023,5.4023,5.4023,5.4023,5.4023,5.4023,5.4608,5.5314,5.575,5.71,5.8374,5.9054,5.9634,5.9988,5.9988,5.9988,5.9988,5.9988,5.9988,5.9988,5.9988,5.9988,6.0092,6.032,6.0775,6.123,6.1686,6.1913,6.2265,6.2679,6.2679,6.2679,6.2679,6.2679,6.2679,6.2679,6.2679,6.2679,6.2679,6.2679,6.2679,6.2679,6.2679,6.2679,6.2679,3.8543,3.8543,3.8543,3.8543,3.8543,3.8543,3.8543,3.8543,3.8543,3.8543,3.8543,3.8543,3.8543,3.8543,3.8543,3.8543,3.8543,3.8543,3.8543,3.8543,3.8543,3.8543,3.8543,3.8543,3.8543,3.8543,3.8543,3.8543,3.8543,3.8543,3.8543,3.8543,3.8543,3.8543,3.8543,3.8543,3.8543,3.8543,3.8543,3.8543,3.8543,3.8543,3.8543,3.8543,3.8543,3.8543,3.8543,3.8543,3.8543,3.8543,3.8543,3.8543,3.8543,3.8543,3.8543,3.8543,3.8543,3.8959,4.0837,4.0135,3.9567,4.1932,4.3229,4.4613,4.6887,4.9114,5.1255,5.3493,5.4023,5.4023,5.4023,5.4023,5.4023,5.4023,5.4023,5.4062,5.4141,5.4864,5.5587,5.5978,5.7459,5.8824,5.9842,5.9988,5.9988,5.9988,5.9988,5.9988,5.9988,5.9988,5.9988,5.9988,5.9988,6.0216,6.0671,6.1127,6.1582,6.2038,6.212,6.2327,6.2679,6.2679,6.2679,6.2679,6.2679,6.2679,6.2679,6.2679,6.2679,6.2679,6.2679,6.2679,6.2679,6.2679,6.2679,6.2679,3.8543,3.8543,3.8543,3.8543,3.8543,3.8543,3.8543,3.8543,3.8543,3.8543,3.8543,3.8543,3.8543,3.8543,3.8543,3.8543,3.8543,3.8543,3.8543,3.8543,3.8543,3.8543,3.8543,3.8543,3.8543,3.8543,3.8543,3.8543,3.8543,3.8543,3.8543,3.8543,3.8543,3.8543,3.8543,3.8543,3.8543,3.8543,3.8543,3.8543,3.8543,3.8543,3.8543,3.8543,3.8543,3.8543,3.8543,3.8543,3.8543,3.8543,3.8543,3.8543,3.8543,3.8543,3.8543,3.8543,3.8543,3.8602,3.918,3.9193,3.9671,4.2529,4.4847,4.6991,4.9516,5.037,5.1255,5.3493,5.4023,5.4023,5.4023,5.4023,5.4023,5.4023,5.4023,5.416,5.4531,5.4752,5.5065,5.5867,5.7289,5.8751,5.9884,5.9988,5.9988,5.9988,5.9988,5.9988,5.9988,5.9988,5.9988,5.9988,5.9988,6.0216,6.0671,6.1127,6.1582,6.2038,6.241,6.2617,6.2679,6.2679,6.2679,6.2679,6.2679,6.2679,6.2679,6.2679,6.2679,6.2679,6.2679,6.2679,6.2679,6.2679,6.2679,6.2679,3.8543,3.8543,3.8543,3.8543,3.8543,3.8543,3.8543,3.8543,3.8543,3.8543,3.8543,3.8543,3.8543,3.8543,3.8543,3.8543,3.8543,3.8543,3.8543,3.8543,3.8543,3.8543,3.8543,3.8543,3.8543,3.8543,3.8543,3.8543,3.8543,3.8543,3.8543,3.8543,3.8543,3.8543,3.8543,3.8543,3.8543,3.8543,3.8543,3.8543,3.8543,3.8543,3.8543,3.8543,3.8543,3.8543,3.8543,3.8543,3.8543,3.8543,3.8543,3.8543,3.8543,3.8543,3.8543,3.8543,3.866,3.8836,3.8982,3.929,4.0161,4.2733,4.5273,4.7669,5.004,5.1584,5.2756,5.3819,5.4023,5.4023,5.4023,5.4023,5.4023,5.4023,5.4023,5.418,5.4629,5.4883,5.556,5.7038,5.7846,5.8706,5.9884,5.9988,5.9988,5.9988,5.9988,5.9988,5.9988,5.9988,5.9988,5.9988,5.9988,6.034,6.1044,6.1251,6.1706,6.239,6.2617,6.2679,6.2679,6.2679,6.2679,6.2679,6.2679,6.2679,6.2679,6.2679,6.2679,6.2679,6.2679,6.2679,6.2679,6.2679,6.2679,6.2679]}]]